<?xml version="1.0" encoding="UTF-8"?>
<gpx version="1.1" creator="Endomondo.com" xsi:schemaLocation="http://www.topografix.com/GPX/1/1 http://www.topografix.com/GPX/1/1/gpx.xsd http://www.garmin.com/xmlschemas/GpxExtensions/v3 http://www.garmin.com/xmlschemas/GpxExtensionsv3.xsd http://www.garmin.com/xmlschemas/TrackPointExtension/v1 http://www.garmin.com/xmlschemas/TrackPointExtensionv1.xsd" xmlns="http://www.topografix.com/GPX/1/1" xmlns:gpxtpx="http://www.garmin.com/xmlschemas/TrackPointExtension/v1" xmlns:gpxx="http://www.garmin.com/xmlschemas/GpxExtensions/v3" xmlns:xsi="http://www.w3.org/2001/XMLSchema-instance">
  <metadata>
    <author>
      <name>Pablo Pravia Fernadez</name>
      <email id="praporvertesonreir" domain="gmail.com"/>
    </author>
    <link href="http://www.endomondo.com">
      <text>Endomondo</text>
    </link>
    <time>2012-03-02T18:37:14Z</time>
    <bounds minlat="43.388837" minlon="-6.067976" maxlat="43.392875" maxlon="-6.065309"/>
  </metadata>
  <trk>
    <src>http://www.endomondo.com/</src>
    <link href="http://www.endomondo.com/workouts/sxT9BBVzbi0">
      <text>endomondo</text>
    </link>
    <type>CYCLING_SPORT</type>
    <trkseg>
      <trkpt lat="43.388837" lon="-6.067976">
        <time>2012-03-02T15:41:24Z</time>
      </trkpt>
      <trkpt lat="43.388837" lon="-6.067976">
        <ele>122.0</ele>
        <time>2012-03-02T15:41:37Z</time>
      </trkpt>
      <trkpt lat="43.388897" lon="-6.068073">
        <ele>124.0</ele>
        <time>2012-03-02T15:41:42Z</time>
      </trkpt>
      <trkpt lat="43.389113" lon="-6.068121">
        <ele>125.0</ele>
        <time>2012-03-02T15:41:47Z</time>
      </trkpt>
      <trkpt lat="43.389316" lon="-6.068078">
        <ele>123.0</ele>
        <time>2012-03-02T15:41:51Z</time>
      </trkpt>
      <trkpt lat="43.389426" lon="-6.068008">
        <ele>123.0</ele>
        <time>2012-03-02T15:41:53Z</time>
      </trkpt>
      <trkpt lat="43.389721" lon="-6.067787">
        <ele>123.0</ele>
        <time>2012-03-02T15:41:59Z</time>
      </trkpt>
      <trkpt lat="43.389942" lon="-6.067678">
        <ele>122.0</ele>
        <time>2012-03-02T15:42:03Z</time>
      </trkpt>
      <trkpt lat="43.390175" lon="-6.067648">
        <ele>122.0</ele>
        <time>2012-03-02T15:42:07Z</time>
      </trkpt>
      <trkpt lat="43.390383" lon="-6.067618">
        <ele>122.0</ele>
        <time>2012-03-02T15:42:11Z</time>
      </trkpt>
      <trkpt lat="43.390516" lon="-6.067629">
        <ele>122.0</ele>
        <time>2012-03-02T15:42:15Z</time>
      </trkpt>
      <trkpt lat="43.390648" lon="-6.067656">
        <ele>122.0</ele>
        <time>2012-03-02T15:42:19Z</time>
      </trkpt>
      <trkpt lat="43.390775" lon="-6.067701">
        <ele>122.0</ele>
        <time>2012-03-02T15:42:23Z</time>
      </trkpt>
      <trkpt lat="43.390857" lon="-6.06774">
        <ele>122.0</ele>
        <time>2012-03-02T15:42:26Z</time>
      </trkpt>
      <trkpt lat="43.391009" lon="-6.067815">
        <ele>121.0</ele>
        <time>2012-03-02T15:42:31Z</time>
      </trkpt>
      <trkpt lat="43.391164" lon="-6.06786">
        <ele>121.0</ele>
        <time>2012-03-02T15:42:35Z</time>
      </trkpt>
      <trkpt lat="43.391331" lon="-6.06783">
        <ele>120.0</ele>
        <time>2012-03-02T15:42:39Z</time>
      </trkpt>
      <trkpt lat="43.391522" lon="-6.067723">
        <ele>120.0</ele>
        <time>2012-03-02T15:42:43Z</time>
      </trkpt>
      <trkpt lat="43.391627" lon="-6.067664">
        <ele>120.0</ele>
        <time>2012-03-02T15:42:45Z</time>
      </trkpt>
      <trkpt lat="43.391949" lon="-6.067488">
        <ele>121.0</ele>
        <time>2012-03-02T15:42:51Z</time>
      </trkpt>
      <trkpt lat="43.392166" lon="-6.067373">
        <ele>121.0</ele>
        <time>2012-03-02T15:42:55Z</time>
      </trkpt>
      <trkpt lat="43.39239" lon="-6.067261">
        <ele>122.0</ele>
        <time>2012-03-02T15:42:59Z</time>
      </trkpt>
      <trkpt lat="43.392624" lon="-6.067162">
        <ele>121.0</ele>
        <time>2012-03-02T15:43:03Z</time>
      </trkpt>
      <trkpt lat="43.392875" lon="-6.067207">
        <ele>120.0</ele>
        <time>2012-03-02T15:43:07Z</time>
      </trkpt>
      <trkpt lat="43.392936" lon="-6.067253">
        <ele>120.0</ele>
        <time>2012-03-02T15:43:08Z</time>
      </trkpt>
      <trkpt lat="43.393236" lon="-6.067355">
        <ele>119.0</ele>
        <time>2012-03-02T15:43:14Z</time>
      </trkpt>
      <trkpt lat="43.393619" lon="-6.067354">
        <ele>119.0</ele>
        <time>2012-03-02T15:43:22Z</time>
      </trkpt>
      <trkpt lat="43.393981" lon="-6.067371">
        <ele>119.0</ele>
        <time>2012-03-02T15:43:30Z</time>
      </trkpt>
      <trkpt lat="43.394151" lon="-6.067409">
        <ele>120.0</ele>
        <time>2012-03-02T15:43:34Z</time>
      </trkpt>
      <trkpt lat="43.394348" lon="-6.067416">
        <ele>121.0</ele>
        <time>2012-03-02T15:43:38Z</time>
      </trkpt>
      <trkpt lat="43.394574" lon="-6.067406">
        <ele>121.0</ele>
        <time>2012-03-02T15:43:42Z</time>
      </trkpt>
      <trkpt lat="43.394807" lon="-6.067389">
        <ele>122.0</ele>
        <time>2012-03-02T15:43:46Z</time>
      </trkpt>
      <trkpt lat="43.39504" lon="-6.067391">
        <ele>122.0</ele>
        <time>2012-03-02T15:43:50Z</time>
      </trkpt>
      <trkpt lat="43.395272" lon="-6.067403">
        <ele>122.0</ele>
        <time>2012-03-02T15:43:54Z</time>
      </trkpt>
      <trkpt lat="43.395506" lon="-6.06741">
        <ele>122.0</ele>
        <time>2012-03-02T15:43:58Z</time>
      </trkpt>
      <trkpt lat="43.395735" lon="-6.067415">
        <ele>122.0</ele>
        <time>2012-03-02T15:44:02Z</time>
      </trkpt>
      <trkpt lat="43.395949" lon="-6.067417">
        <ele>122.0</ele>
        <time>2012-03-02T15:44:06Z</time>
      </trkpt>
      <trkpt lat="43.396184" lon="-6.067434">
        <ele>123.0</ele>
        <time>2012-03-02T15:44:10Z</time>
      </trkpt>
      <trkpt lat="43.396431" lon="-6.067461">
        <ele>123.0</ele>
        <time>2012-03-02T15:44:14Z</time>
      </trkpt>
      <trkpt lat="43.396682" lon="-6.067471">
        <ele>122.0</ele>
        <time>2012-03-02T15:44:18Z</time>
      </trkpt>
      <trkpt lat="43.396925" lon="-6.067484">
        <ele>121.0</ele>
        <time>2012-03-02T15:44:22Z</time>
      </trkpt>
      <trkpt lat="43.397156" lon="-6.067502">
        <ele>121.0</ele>
        <time>2012-03-02T15:44:26Z</time>
      </trkpt>
      <trkpt lat="43.397386" lon="-6.067521">
        <ele>120.0</ele>
        <time>2012-03-02T15:44:30Z</time>
      </trkpt>
      <trkpt lat="43.397585" lon="-6.067522">
        <ele>120.0</ele>
        <time>2012-03-02T15:44:34Z</time>
      </trkpt>
      <trkpt lat="43.397795" lon="-6.067523">
        <ele>119.0</ele>
        <time>2012-03-02T15:44:38Z</time>
      </trkpt>
      <trkpt lat="43.398011" lon="-6.067536">
        <ele>118.0</ele>
        <time>2012-03-02T15:44:42Z</time>
      </trkpt>
      <trkpt lat="43.398237" lon="-6.067535">
        <ele>118.0</ele>
        <time>2012-03-02T15:44:46Z</time>
      </trkpt>
      <trkpt lat="43.398466" lon="-6.067539">
        <ele>118.0</ele>
        <time>2012-03-02T15:44:50Z</time>
      </trkpt>
      <trkpt lat="43.3987" lon="-6.067547">
        <ele>118.0</ele>
        <time>2012-03-02T15:44:54Z</time>
      </trkpt>
      <trkpt lat="43.398935" lon="-6.067556">
        <ele>118.0</ele>
        <time>2012-03-02T15:44:58Z</time>
      </trkpt>
      <trkpt lat="43.399156" lon="-6.067575">
        <ele>119.0</ele>
        <time>2012-03-02T15:45:02Z</time>
      </trkpt>
      <trkpt lat="43.399373" lon="-6.067582">
        <ele>119.0</ele>
        <time>2012-03-02T15:45:06Z</time>
      </trkpt>
      <trkpt lat="43.399587" lon="-6.067558">
        <ele>119.0</ele>
        <time>2012-03-02T15:45:10Z</time>
      </trkpt>
      <trkpt lat="43.399851" lon="-6.067398">
        <ele>117.0</ele>
        <time>2012-03-02T15:45:15Z</time>
      </trkpt>
      <trkpt lat="43.40002" lon="-6.067082">
        <ele>117.0</ele>
        <time>2012-03-02T15:45:19Z</time>
      </trkpt>
      <trkpt lat="43.400141" lon="-6.066723">
        <ele>117.0</ele>
        <time>2012-03-02T15:45:23Z</time>
      </trkpt>
      <trkpt lat="43.40036" lon="-6.066421">
        <ele>117.0</ele>
        <time>2012-03-02T15:45:27Z</time>
      </trkpt>
      <trkpt lat="43.400648" lon="-6.066223">
        <ele>118.0</ele>
        <time>2012-03-02T15:45:31Z</time>
      </trkpt>
      <trkpt lat="43.40096" lon="-6.066086">
        <ele>118.0</ele>
        <time>2012-03-02T15:45:35Z</time>
      </trkpt>
      <trkpt lat="43.401277" lon="-6.065985">
        <ele>119.0</ele>
        <time>2012-03-02T15:45:39Z</time>
      </trkpt>
      <trkpt lat="43.401592" lon="-6.066043">
        <ele>119.0</ele>
        <time>2012-03-02T15:45:43Z</time>
      </trkpt>
      <trkpt lat="43.401843" lon="-6.066297">
        <ele>118.0</ele>
        <time>2012-03-02T15:45:47Z</time>
      </trkpt>
      <trkpt lat="43.402079" lon="-6.066581">
        <ele>118.0</ele>
        <time>2012-03-02T15:45:51Z</time>
      </trkpt>
      <trkpt lat="43.402317" lon="-6.066857">
        <ele>116.0</ele>
        <time>2012-03-02T15:45:55Z</time>
      </trkpt>
      <trkpt lat="43.402581" lon="-6.067093">
        <ele>116.0</ele>
        <time>2012-03-02T15:45:59Z</time>
      </trkpt>
      <trkpt lat="43.402877" lon="-6.067297">
        <ele>117.0</ele>
        <time>2012-03-02T15:46:03Z</time>
      </trkpt>
      <trkpt lat="43.403185" lon="-6.067437">
        <ele>118.0</ele>
        <time>2012-03-02T15:46:07Z</time>
      </trkpt>
      <trkpt lat="43.40348" lon="-6.067553">
        <ele>117.0</ele>
        <time>2012-03-02T15:46:11Z</time>
      </trkpt>
      <trkpt lat="43.403785" lon="-6.067602">
        <ele>116.0</ele>
        <time>2012-03-02T15:46:15Z</time>
      </trkpt>
      <trkpt lat="43.404091" lon="-6.067612">
        <ele>115.0</ele>
        <time>2012-03-02T15:46:19Z</time>
      </trkpt>
      <trkpt lat="43.404392" lon="-6.067619">
        <ele>115.0</ele>
        <time>2012-03-02T15:46:23Z</time>
      </trkpt>
      <trkpt lat="43.40469" lon="-6.06763">
        <ele>115.0</ele>
        <time>2012-03-02T15:46:27Z</time>
      </trkpt>
      <trkpt lat="43.404984" lon="-6.067634">
        <ele>114.0</ele>
        <time>2012-03-02T15:46:31Z</time>
      </trkpt>
      <trkpt lat="43.405268" lon="-6.067614">
        <ele>114.0</ele>
        <time>2012-03-02T15:46:35Z</time>
      </trkpt>
      <trkpt lat="43.405524" lon="-6.067558">
        <ele>114.0</ele>
        <time>2012-03-02T15:46:39Z</time>
      </trkpt>
      <trkpt lat="43.40576" lon="-6.067477">
        <ele>114.0</ele>
        <time>2012-03-02T15:46:43Z</time>
      </trkpt>
      <trkpt lat="43.405937" lon="-6.067389">
        <ele>114.0</ele>
        <time>2012-03-02T15:46:46Z</time>
      </trkpt>
      <trkpt lat="43.406232" lon="-6.067219">
        <ele>114.0</ele>
        <time>2012-03-02T15:46:51Z</time>
      </trkpt>
      <trkpt lat="43.406469" lon="-6.067069">
        <ele>114.0</ele>
        <time>2012-03-02T15:46:55Z</time>
      </trkpt>
      <trkpt lat="43.406582" lon="-6.066986">
        <ele>114.0</ele>
        <time>2012-03-02T15:46:57Z</time>
      </trkpt>
      <trkpt lat="43.406821" lon="-6.066845">
        <ele>116.0</ele>
        <time>2012-03-02T15:47:01Z</time>
      </trkpt>
      <trkpt lat="43.407193" lon="-6.066649">
        <ele>116.0</ele>
        <time>2012-03-02T15:47:07Z</time>
      </trkpt>
      <trkpt lat="43.407443" lon="-6.066516">
        <ele>116.0</ele>
        <time>2012-03-02T15:47:11Z</time>
      </trkpt>
      <trkpt lat="43.407692" lon="-6.066383">
        <ele>115.0</ele>
        <time>2012-03-02T15:47:15Z</time>
      </trkpt>
      <trkpt lat="43.407942" lon="-6.06626">
        <ele>114.0</ele>
        <time>2012-03-02T15:47:19Z</time>
      </trkpt>
      <trkpt lat="43.408189" lon="-6.066142">
        <ele>113.0</ele>
        <time>2012-03-02T15:47:23Z</time>
      </trkpt>
      <trkpt lat="43.408433" lon="-6.066009">
        <ele>113.0</ele>
        <time>2012-03-02T15:47:27Z</time>
      </trkpt>
      <trkpt lat="43.408677" lon="-6.065879">
        <ele>113.0</ele>
        <time>2012-03-02T15:47:31Z</time>
      </trkpt>
      <trkpt lat="43.408924" lon="-6.065766">
        <ele>113.0</ele>
        <time>2012-03-02T15:47:35Z</time>
      </trkpt>
      <trkpt lat="43.409112" lon="-6.065671">
        <ele>113.0</ele>
        <time>2012-03-02T15:47:38Z</time>
      </trkpt>
      <trkpt lat="43.409425" lon="-6.065496">
        <ele>113.0</ele>
        <time>2012-03-02T15:47:43Z</time>
      </trkpt>
      <trkpt lat="43.409668" lon="-6.065345">
        <ele>113.0</ele>
        <time>2012-03-02T15:47:47Z</time>
      </trkpt>
      <trkpt lat="43.409908" lon="-6.065212">
        <ele>113.0</ele>
        <time>2012-03-02T15:47:51Z</time>
      </trkpt>
      <trkpt lat="43.410152" lon="-6.065096">
        <ele>113.0</ele>
        <time>2012-03-02T15:47:55Z</time>
      </trkpt>
      <trkpt lat="43.410402" lon="-6.06498">
        <ele>113.0</ele>
        <time>2012-03-02T15:47:59Z</time>
      </trkpt>
      <trkpt lat="43.410661" lon="-6.064853">
        <ele>114.0</ele>
        <time>2012-03-02T15:48:03Z</time>
      </trkpt>
      <trkpt lat="43.410912" lon="-6.064749">
        <ele>114.0</ele>
        <time>2012-03-02T15:48:07Z</time>
      </trkpt>
      <trkpt lat="43.411165" lon="-6.064677">
        <ele>113.0</ele>
        <time>2012-03-02T15:48:11Z</time>
      </trkpt>
      <trkpt lat="43.411421" lon="-6.06463">
        <ele>112.0</ele>
        <time>2012-03-02T15:48:15Z</time>
      </trkpt>
      <trkpt lat="43.411673" lon="-6.064589">
        <ele>112.0</ele>
        <time>2012-03-02T15:48:19Z</time>
      </trkpt>
      <trkpt lat="43.411918" lon="-6.064552">
        <ele>111.0</ele>
        <time>2012-03-02T15:48:23Z</time>
      </trkpt>
      <trkpt lat="43.412155" lon="-6.064526">
        <ele>111.0</ele>
        <time>2012-03-02T15:48:27Z</time>
      </trkpt>
      <trkpt lat="43.412393" lon="-6.064509">
        <ele>111.0</ele>
        <time>2012-03-02T15:48:31Z</time>
      </trkpt>
      <trkpt lat="43.412634" lon="-6.064516">
        <ele>111.0</ele>
        <time>2012-03-02T15:48:35Z</time>
      </trkpt>
      <trkpt lat="43.41275" lon="-6.064531">
        <ele>111.0</ele>
        <time>2012-03-02T15:48:37Z</time>
      </trkpt>
      <trkpt lat="43.413093" lon="-6.064607">
        <ele>111.0</ele>
        <time>2012-03-02T15:48:43Z</time>
      </trkpt>
      <trkpt lat="43.413333" lon="-6.064664">
        <ele>110.0</ele>
        <time>2012-03-02T15:48:47Z</time>
      </trkpt>
      <trkpt lat="43.413518" lon="-6.064699">
        <ele>110.0</ele>
        <time>2012-03-02T15:48:50Z</time>
      </trkpt>
      <trkpt lat="43.413755" lon="-6.064743">
        <ele>109.0</ele>
        <time>2012-03-02T15:48:54Z</time>
      </trkpt>
      <trkpt lat="43.413977" lon="-6.064799">
        <ele>109.0</ele>
        <time>2012-03-02T15:48:58Z</time>
      </trkpt>
      <trkpt lat="43.414186" lon="-6.064867">
        <ele>109.0</ele>
        <time>2012-03-02T15:49:02Z</time>
      </trkpt>
      <trkpt lat="43.414398" lon="-6.064926">
        <ele>109.0</ele>
        <time>2012-03-02T15:49:06Z</time>
      </trkpt>
      <trkpt lat="43.414611" lon="-6.064954">
        <ele>108.0</ele>
        <time>2012-03-02T15:49:10Z</time>
      </trkpt>
      <trkpt lat="43.414828" lon="-6.064927">
        <ele>107.0</ele>
        <time>2012-03-02T15:49:14Z</time>
      </trkpt>
      <trkpt lat="43.414937" lon="-6.064905">
        <ele>107.0</ele>
        <time>2012-03-02T15:49:16Z</time>
      </trkpt>
      <trkpt lat="43.415156" lon="-6.06485">
        <ele>107.0</ele>
        <time>2012-03-02T15:49:20Z</time>
      </trkpt>
      <trkpt lat="43.415492" lon="-6.064786">
        <ele>107.0</ele>
        <time>2012-03-02T15:49:26Z</time>
      </trkpt>
      <trkpt lat="43.415714" lon="-6.064868">
        <ele>107.0</ele>
        <time>2012-03-02T15:49:30Z</time>
      </trkpt>
      <trkpt lat="43.416009" lon="-6.065048">
        <ele>107.0</ele>
        <time>2012-03-02T15:49:35Z</time>
      </trkpt>
      <trkpt lat="43.416246" lon="-6.065227">
        <ele>106.0</ele>
        <time>2012-03-02T15:49:39Z</time>
      </trkpt>
      <trkpt lat="43.416483" lon="-6.065411">
        <ele>106.0</ele>
        <time>2012-03-02T15:49:43Z</time>
      </trkpt>
      <trkpt lat="43.41675" lon="-6.065482">
        <ele>106.0</ele>
        <time>2012-03-02T15:49:47Z</time>
      </trkpt>
      <trkpt lat="43.417019" lon="-6.065481">
        <ele>106.0</ele>
        <time>2012-03-02T15:49:51Z</time>
      </trkpt>
      <trkpt lat="43.417281" lon="-6.065435">
        <ele>106.0</ele>
        <time>2012-03-02T15:49:55Z</time>
      </trkpt>
      <trkpt lat="43.417543" lon="-6.065356">
        <ele>105.0</ele>
        <time>2012-03-02T15:49:59Z</time>
      </trkpt>
      <trkpt lat="43.417801" lon="-6.065272">
        <ele>98.0</ele>
        <time>2012-03-02T15:50:03Z</time>
      </trkpt>
      <trkpt lat="43.41806" lon="-6.065187">
        <ele>98.0</ele>
        <time>2012-03-02T15:50:07Z</time>
      </trkpt>
      <trkpt lat="43.418189" lon="-6.065145">
        <ele>98.0</ele>
        <time>2012-03-02T15:50:09Z</time>
      </trkpt>
      <trkpt lat="43.418488" lon="-6.06501">
        <ele>104.0</ele>
        <time>2012-03-02T15:50:14Z</time>
      </trkpt>
      <trkpt lat="43.418788" lon="-6.064848">
        <ele>109.0</ele>
        <time>2012-03-02T15:50:19Z</time>
      </trkpt>
      <trkpt lat="43.419045" lon="-6.06466">
        <ele>110.0</ele>
        <time>2012-03-02T15:50:23Z</time>
      </trkpt>
      <trkpt lat="43.419305" lon="-6.06447">
        <ele>110.0</ele>
        <time>2012-03-02T15:50:27Z</time>
      </trkpt>
      <trkpt lat="43.419587" lon="-6.064294">
        <ele>109.0</ele>
        <time>2012-03-02T15:50:31Z</time>
      </trkpt>
      <trkpt lat="43.419866" lon="-6.064136">
        <ele>108.0</ele>
        <time>2012-03-02T15:50:35Z</time>
      </trkpt>
      <trkpt lat="43.420143" lon="-6.063981">
        <ele>108.0</ele>
        <time>2012-03-02T15:50:39Z</time>
      </trkpt>
      <trkpt lat="43.420416" lon="-6.063807">
        <ele>107.0</ele>
        <time>2012-03-02T15:50:43Z</time>
      </trkpt>
      <trkpt lat="43.420691" lon="-6.063624">
        <ele>107.0</ele>
        <time>2012-03-02T15:50:47Z</time>
      </trkpt>
      <trkpt lat="43.420968" lon="-6.063442">
        <ele>107.0</ele>
        <time>2012-03-02T15:50:51Z</time>
      </trkpt>
      <trkpt lat="43.421247" lon="-6.063263">
        <ele>107.0</ele>
        <time>2012-03-02T15:50:55Z</time>
      </trkpt>
      <trkpt lat="43.421454" lon="-6.06314">
        <ele>107.0</ele>
        <time>2012-03-02T15:50:58Z</time>
      </trkpt>
      <trkpt lat="43.421792" lon="-6.063037">
        <ele>107.0</ele>
        <time>2012-03-02T15:51:03Z</time>
      </trkpt>
      <trkpt lat="43.421865" lon="-6.063022">
        <ele>107.0</ele>
        <time>2012-03-02T15:51:04Z</time>
      </trkpt>
      <trkpt lat="43.422093" lon="-6.062773">
        <ele>95.0</ele>
        <time>2012-03-02T15:51:11Z</time>
      </trkpt>
      <trkpt lat="43.422381" lon="-6.062437">
        <ele>79.0</ele>
        <time>2012-03-02T15:51:15Z</time>
      </trkpt>
      <trkpt lat="43.422529" lon="-6.06231">
        <ele>75.0</ele>
        <time>2012-03-02T15:51:19Z</time>
      </trkpt>
      <trkpt lat="43.423118" lon="-6.062132">
        <ele>69.0</ele>
        <time>2012-03-02T15:51:23Z</time>
      </trkpt>
      <trkpt lat="43.42346" lon="-6.061854">
        <ele>70.0</ele>
        <time>2012-03-02T15:51:27Z</time>
      </trkpt>
      <trkpt lat="43.423728" lon="-6.061538">
        <ele>82.0</ele>
        <time>2012-03-02T15:51:31Z</time>
      </trkpt>
      <trkpt lat="43.423983" lon="-6.061294">
        <ele>90.0</ele>
        <time>2012-03-02T15:51:35Z</time>
      </trkpt>
      <trkpt lat="43.424239" lon="-6.061097">
        <ele>94.0</ele>
        <time>2012-03-02T15:51:39Z</time>
      </trkpt>
      <trkpt lat="43.424484" lon="-6.0609">
        <ele>96.0</ele>
        <time>2012-03-02T15:51:43Z</time>
      </trkpt>
      <trkpt lat="43.424727" lon="-6.060717">
        <ele>97.0</ele>
        <time>2012-03-02T15:51:47Z</time>
      </trkpt>
      <trkpt lat="43.424975" lon="-6.060538">
        <ele>98.0</ele>
        <time>2012-03-02T15:51:51Z</time>
      </trkpt>
      <trkpt lat="43.425216" lon="-6.060359">
        <ele>100.0</ele>
        <time>2012-03-02T15:51:55Z</time>
      </trkpt>
      <trkpt lat="43.425457" lon="-6.060178">
        <ele>101.0</ele>
        <time>2012-03-02T15:51:59Z</time>
      </trkpt>
      <trkpt lat="43.425687" lon="-6.059986">
        <ele>101.0</ele>
        <time>2012-03-02T15:52:03Z</time>
      </trkpt>
      <trkpt lat="43.425904" lon="-6.059784">
        <ele>102.0</ele>
        <time>2012-03-02T15:52:07Z</time>
      </trkpt>
      <trkpt lat="43.42611" lon="-6.059574">
        <ele>102.0</ele>
        <time>2012-03-02T15:52:11Z</time>
      </trkpt>
      <trkpt lat="43.42632" lon="-6.059378">
        <ele>102.0</ele>
        <time>2012-03-02T15:52:15Z</time>
      </trkpt>
      <trkpt lat="43.426538" lon="-6.0592">
        <ele>102.0</ele>
        <time>2012-03-02T15:52:19Z</time>
      </trkpt>
      <trkpt lat="43.4267" lon="-6.059083">
        <ele>102.0</ele>
        <time>2012-03-02T15:52:22Z</time>
      </trkpt>
      <trkpt lat="43.426911" lon="-6.058942">
        <ele>102.0</ele>
        <time>2012-03-02T15:52:26Z</time>
      </trkpt>
      <trkpt lat="43.42711" lon="-6.058821">
        <ele>102.0</ele>
        <time>2012-03-02T15:52:30Z</time>
      </trkpt>
      <trkpt lat="43.427305" lon="-6.058738">
        <ele>102.0</ele>
        <time>2012-03-02T15:52:34Z</time>
      </trkpt>
      <trkpt lat="43.427501" lon="-6.058704">
        <ele>102.0</ele>
        <time>2012-03-02T15:52:38Z</time>
      </trkpt>
      <trkpt lat="43.427688" lon="-6.058721">
        <ele>102.0</ele>
        <time>2012-03-02T15:52:42Z</time>
      </trkpt>
      <trkpt lat="43.427865" lon="-6.058747">
        <ele>102.0</ele>
        <time>2012-03-02T15:52:46Z</time>
      </trkpt>
      <trkpt lat="43.428038" lon="-6.058756">
        <ele>103.0</ele>
        <time>2012-03-02T15:52:50Z</time>
      </trkpt>
      <trkpt lat="43.42822" lon="-6.058746">
        <ele>103.0</ele>
        <time>2012-03-02T15:52:54Z</time>
      </trkpt>
      <trkpt lat="43.428407" lon="-6.058631">
        <ele>103.0</ele>
        <time>2012-03-02T15:52:58Z</time>
      </trkpt>
      <trkpt lat="43.428666" lon="-6.058386">
        <ele>104.0</ele>
        <time>2012-03-02T15:53:03Z</time>
      </trkpt>
      <trkpt lat="43.428887" lon="-6.058158">
        <ele>104.0</ele>
        <time>2012-03-02T15:53:07Z</time>
      </trkpt>
      <trkpt lat="43.429134" lon="-6.057945">
        <ele>105.0</ele>
        <time>2012-03-02T15:53:11Z</time>
      </trkpt>
      <trkpt lat="43.429417" lon="-6.057772">
        <ele>104.0</ele>
        <time>2012-03-02T15:53:15Z</time>
      </trkpt>
      <trkpt lat="43.429705" lon="-6.057676">
        <ele>104.0</ele>
        <time>2012-03-02T15:53:19Z</time>
      </trkpt>
      <trkpt lat="43.429917" lon="-6.057662">
        <ele>104.0</ele>
        <time>2012-03-02T15:53:22Z</time>
      </trkpt>
      <trkpt lat="43.430234" lon="-6.057795">
        <ele>104.0</ele>
        <time>2012-03-02T15:53:27Z</time>
      </trkpt>
      <trkpt lat="43.43044" lon="-6.058044">
        <ele>104.0</ele>
        <time>2012-03-02T15:53:31Z</time>
      </trkpt>
      <trkpt lat="43.430699" lon="-6.058243">
        <ele>103.0</ele>
        <time>2012-03-02T15:53:35Z</time>
      </trkpt>
      <trkpt lat="43.431002" lon="-6.058306">
        <ele>102.0</ele>
        <time>2012-03-02T15:53:39Z</time>
      </trkpt>
      <trkpt lat="43.431303" lon="-6.058328">
        <ele>100.0</ele>
        <time>2012-03-02T15:53:43Z</time>
      </trkpt>
      <trkpt lat="43.43159" lon="-6.05833">
        <ele>99.0</ele>
        <time>2012-03-02T15:53:47Z</time>
      </trkpt>
      <trkpt lat="43.431777" lon="-6.058402">
        <ele>98.0</ele>
        <time>2012-03-02T15:53:50Z</time>
      </trkpt>
      <trkpt lat="43.431856" lon="-6.058708">
        <ele>98.0</ele>
        <time>2012-03-02T15:53:54Z</time>
      </trkpt>
      <trkpt lat="43.431817" lon="-6.059734">
        <ele>100.0</ele>
        <time>2012-03-02T15:54:07Z</time>
      </trkpt>
      <trkpt lat="43.431798" lon="-6.060001">
        <ele>99.0</ele>
        <time>2012-03-02T15:54:11Z</time>
      </trkpt>
      <trkpt lat="43.431809" lon="-6.0602">
        <ele>99.0</ele>
        <time>2012-03-02T15:54:15Z</time>
      </trkpt>
      <trkpt lat="43.431789" lon="-6.060409">
        <ele>101.0</ele>
        <time>2012-03-02T15:54:19Z</time>
      </trkpt>
      <trkpt lat="43.431739" lon="-6.060621">
        <ele>102.0</ele>
        <time>2012-03-02T15:54:23Z</time>
      </trkpt>
      <trkpt lat="43.431707" lon="-6.060839">
        <ele>102.0</ele>
        <time>2012-03-02T15:54:27Z</time>
      </trkpt>
      <trkpt lat="43.431744" lon="-6.061068">
        <ele>102.0</ele>
        <time>2012-03-02T15:54:31Z</time>
      </trkpt>
      <trkpt lat="43.431833" lon="-6.061274">
        <ele>102.0</ele>
        <time>2012-03-02T15:54:35Z</time>
      </trkpt>
      <trkpt lat="43.431953" lon="-6.061443">
        <ele>102.0</ele>
        <time>2012-03-02T15:54:39Z</time>
      </trkpt>
      <trkpt lat="43.432082" lon="-6.061595">
        <ele>103.0</ele>
        <time>2012-03-02T15:54:43Z</time>
      </trkpt>
      <trkpt lat="43.432203" lon="-6.061755">
        <ele>104.0</ele>
        <time>2012-03-02T15:54:47Z</time>
      </trkpt>
      <trkpt lat="43.432262" lon="-6.061833">
        <ele>104.0</ele>
        <time>2012-03-02T15:54:49Z</time>
      </trkpt>
      <trkpt lat="43.432277" lon="-6.06213">
        <ele>105.0</ele>
        <time>2012-03-02T15:54:55Z</time>
      </trkpt>
      <trkpt lat="43.432239" lon="-6.062212">
        <ele>105.0</ele>
        <time>2012-03-02T15:54:57Z</time>
      </trkpt>
      <trkpt lat="43.43203" lon="-6.062241">
        <ele>106.0</ele>
        <time>2012-03-02T15:55:03Z</time>
      </trkpt>
      <trkpt lat="43.431873" lon="-6.062229">
        <ele>106.0</ele>
        <time>2012-03-02T15:55:07Z</time>
      </trkpt>
      <trkpt lat="43.431741" lon="-6.062341">
        <ele>108.0</ele>
        <time>2012-03-02T15:55:11Z</time>
      </trkpt>
      <trkpt lat="43.431662" lon="-6.062526">
        <ele>108.0</ele>
        <time>2012-03-02T15:55:15Z</time>
      </trkpt>
      <trkpt lat="43.431633" lon="-6.062734">
        <ele>109.0</ele>
        <time>2012-03-02T15:55:19Z</time>
      </trkpt>
      <trkpt lat="43.431601" lon="-6.062942">
        <ele>110.0</ele>
        <time>2012-03-02T15:55:23Z</time>
      </trkpt>
      <trkpt lat="43.431561" lon="-6.063144">
        <ele>110.0</ele>
        <time>2012-03-02T15:55:27Z</time>
      </trkpt>
      <trkpt lat="43.431523" lon="-6.063345">
        <ele>110.0</ele>
        <time>2012-03-02T15:55:31Z</time>
      </trkpt>
      <trkpt lat="43.431485" lon="-6.063552">
        <ele>111.0</ele>
        <time>2012-03-02T15:55:35Z</time>
      </trkpt>
      <trkpt lat="43.431436" lon="-6.063753">
        <ele>111.0</ele>
        <time>2012-03-02T15:55:39Z</time>
      </trkpt>
      <trkpt lat="43.431374" lon="-6.063944">
        <ele>112.0</ele>
        <time>2012-03-02T15:55:43Z</time>
      </trkpt>
      <trkpt lat="43.431306" lon="-6.064133">
        <ele>112.0</ele>
        <time>2012-03-02T15:55:47Z</time>
      </trkpt>
      <trkpt lat="43.43123" lon="-6.064314">
        <ele>112.0</ele>
        <time>2012-03-02T15:55:51Z</time>
      </trkpt>
      <trkpt lat="43.43115" lon="-6.064487">
        <ele>113.0</ele>
        <time>2012-03-02T15:55:55Z</time>
      </trkpt>
      <trkpt lat="43.431066" lon="-6.064651">
        <ele>113.0</ele>
        <time>2012-03-02T15:55:59Z</time>
      </trkpt>
      <trkpt lat="43.430976" lon="-6.064808">
        <ele>113.0</ele>
        <time>2012-03-02T15:56:03Z</time>
      </trkpt>
      <trkpt lat="43.430888" lon="-6.064967">
        <ele>113.0</ele>
        <time>2012-03-02T15:56:07Z</time>
      </trkpt>
      <trkpt lat="43.430798" lon="-6.065138">
        <ele>115.0</ele>
        <time>2012-03-02T15:56:11Z</time>
      </trkpt>
      <trkpt lat="43.430713" lon="-6.065311">
        <ele>115.0</ele>
        <time>2012-03-02T15:56:15Z</time>
      </trkpt>
      <trkpt lat="43.430644" lon="-6.065492">
        <ele>116.0</ele>
        <time>2012-03-02T15:56:19Z</time>
      </trkpt>
      <trkpt lat="43.430641" lon="-6.065699">
        <ele>116.0</ele>
        <time>2012-03-02T15:56:23Z</time>
      </trkpt>
      <trkpt lat="43.430701" lon="-6.065939">
        <ele>117.0</ele>
        <time>2012-03-02T15:56:27Z</time>
      </trkpt>
      <trkpt lat="43.4308" lon="-6.066211">
        <ele>119.0</ele>
        <time>2012-03-02T15:56:31Z</time>
      </trkpt>
      <trkpt lat="43.430914" lon="-6.066507">
        <ele>120.0</ele>
        <time>2012-03-02T15:56:35Z</time>
      </trkpt>
      <trkpt lat="43.431034" lon="-6.066815">
        <ele>122.0</ele>
        <time>2012-03-02T15:56:39Z</time>
      </trkpt>
      <trkpt lat="43.431152" lon="-6.067135">
        <ele>124.0</ele>
        <time>2012-03-02T15:56:43Z</time>
      </trkpt>
      <trkpt lat="43.431303" lon="-6.067433">
        <ele>125.0</ele>
        <time>2012-03-02T15:56:47Z</time>
      </trkpt>
      <trkpt lat="43.431539" lon="-6.067607">
        <ele>125.0</ele>
        <time>2012-03-02T15:56:51Z</time>
      </trkpt>
      <trkpt lat="43.4318" lon="-6.067609">
        <ele>126.0</ele>
        <time>2012-03-02T15:56:55Z</time>
      </trkpt>
      <trkpt lat="43.432047" lon="-6.067487">
        <ele>127.0</ele>
        <time>2012-03-02T15:56:59Z</time>
      </trkpt>
      <trkpt lat="43.432299" lon="-6.067343">
        <ele>128.0</ele>
        <time>2012-03-02T15:57:03Z</time>
      </trkpt>
      <trkpt lat="43.432492" lon="-6.067225">
        <ele>129.0</ele>
        <time>2012-03-02T15:57:06Z</time>
      </trkpt>
      <trkpt lat="43.432747" lon="-6.067072">
        <ele>129.0</ele>
        <time>2012-03-02T15:57:10Z</time>
      </trkpt>
      <trkpt lat="43.43306" lon="-6.066876">
        <ele>129.0</ele>
        <time>2012-03-02T15:57:15Z</time>
      </trkpt>
      <trkpt lat="43.433311" lon="-6.066669">
        <ele>128.0</ele>
        <time>2012-03-02T15:57:19Z</time>
      </trkpt>
      <trkpt lat="43.433549" lon="-6.06644">
        <ele>128.0</ele>
        <time>2012-03-02T15:57:23Z</time>
      </trkpt>
      <trkpt lat="43.433776" lon="-6.066203">
        <ele>128.0</ele>
        <time>2012-03-02T15:57:27Z</time>
      </trkpt>
      <trkpt lat="43.434" lon="-6.065961">
        <ele>128.0</ele>
        <time>2012-03-02T15:57:31Z</time>
      </trkpt>
      <trkpt lat="43.43422" lon="-6.065731">
        <ele>129.0</ele>
        <time>2012-03-02T15:57:35Z</time>
      </trkpt>
      <trkpt lat="43.434461" lon="-6.065533">
        <ele>129.0</ele>
        <time>2012-03-02T15:57:39Z</time>
      </trkpt>
      <trkpt lat="43.434731" lon="-6.065401">
        <ele>129.0</ele>
        <time>2012-03-02T15:57:43Z</time>
      </trkpt>
      <trkpt lat="43.43502" lon="-6.065331">
        <ele>130.0</ele>
        <time>2012-03-02T15:57:47Z</time>
      </trkpt>
      <trkpt lat="43.435328" lon="-6.065273">
        <ele>130.0</ele>
        <time>2012-03-02T15:57:51Z</time>
      </trkpt>
      <trkpt lat="43.435705" lon="-6.065168">
        <ele>130.0</ele>
        <time>2012-03-02T15:57:56Z</time>
      </trkpt>
      <trkpt lat="43.435971" lon="-6.06496">
        <ele>130.0</ele>
        <time>2012-03-02T15:58:00Z</time>
      </trkpt>
      <trkpt lat="43.436139" lon="-6.064758">
        <ele>131.0</ele>
        <time>2012-03-02T15:58:03Z</time>
      </trkpt>
      <trkpt lat="43.436381" lon="-6.064396">
        <ele>131.0</ele>
        <time>2012-03-02T15:58:08Z</time>
      </trkpt>
      <trkpt lat="43.436525" lon="-6.064173">
        <ele>131.0</ele>
        <time>2012-03-02T15:58:11Z</time>
      </trkpt>
      <trkpt lat="43.436772" lon="-6.063799">
        <ele>131.0</ele>
        <time>2012-03-02T15:58:16Z</time>
      </trkpt>
      <trkpt lat="43.436971" lon="-6.063496">
        <ele>131.0</ele>
        <time>2012-03-02T15:58:20Z</time>
      </trkpt>
      <trkpt lat="43.43717" lon="-6.063195">
        <ele>131.0</ele>
        <time>2012-03-02T15:58:24Z</time>
      </trkpt>
      <trkpt lat="43.437369" lon="-6.062899">
        <ele>131.0</ele>
        <time>2012-03-02T15:58:28Z</time>
      </trkpt>
      <trkpt lat="43.437586" lon="-6.062627">
        <ele>131.0</ele>
        <time>2012-03-02T15:58:32Z</time>
      </trkpt>
      <trkpt lat="43.437767" lon="-6.062455">
        <ele>131.0</ele>
        <time>2012-03-02T15:58:35Z</time>
      </trkpt>
      <trkpt lat="43.438089" lon="-6.062203">
        <ele>132.0</ele>
        <time>2012-03-02T15:58:40Z</time>
      </trkpt>
      <trkpt lat="43.438352" lon="-6.062011">
        <ele>132.0</ele>
        <time>2012-03-02T15:58:44Z</time>
      </trkpt>
      <trkpt lat="43.438616" lon="-6.061813">
        <ele>132.0</ele>
        <time>2012-03-02T15:58:48Z</time>
      </trkpt>
      <trkpt lat="43.438878" lon="-6.061621">
        <ele>132.0</ele>
        <time>2012-03-02T15:58:52Z</time>
      </trkpt>
      <trkpt lat="43.439141" lon="-6.061428">
        <ele>133.0</ele>
        <time>2012-03-02T15:58:56Z</time>
      </trkpt>
      <trkpt lat="43.439403" lon="-6.061225">
        <ele>133.0</ele>
        <time>2012-03-02T15:59:00Z</time>
      </trkpt>
      <trkpt lat="43.43967" lon="-6.06102">
        <ele>134.0</ele>
        <time>2012-03-02T15:59:04Z</time>
      </trkpt>
      <trkpt lat="43.439939" lon="-6.060822">
        <ele>134.0</ele>
        <time>2012-03-02T15:59:08Z</time>
      </trkpt>
      <trkpt lat="43.440205" lon="-6.060629">
        <ele>134.0</ele>
        <time>2012-03-02T15:59:12Z</time>
      </trkpt>
      <trkpt lat="43.440473" lon="-6.060442">
        <ele>134.0</ele>
        <time>2012-03-02T15:59:16Z</time>
      </trkpt>
      <trkpt lat="43.440734" lon="-6.060265">
        <ele>134.0</ele>
        <time>2012-03-02T15:59:20Z</time>
      </trkpt>
      <trkpt lat="43.440984" lon="-6.060074">
        <ele>134.0</ele>
        <time>2012-03-02T15:59:24Z</time>
      </trkpt>
      <trkpt lat="43.441191" lon="-6.059815">
        <ele>134.0</ele>
        <time>2012-03-02T15:59:28Z</time>
      </trkpt>
      <trkpt lat="43.441389" lon="-6.059538">
        <ele>134.0</ele>
        <time>2012-03-02T15:59:32Z</time>
      </trkpt>
      <trkpt lat="43.441659" lon="-6.059341">
        <ele>134.0</ele>
        <time>2012-03-02T15:59:36Z</time>
      </trkpt>
      <trkpt lat="43.441892" lon="-6.059218">
        <ele>134.0</ele>
        <time>2012-03-02T15:59:39Z</time>
      </trkpt>
      <trkpt lat="43.44231" lon="-6.058968">
        <ele>133.0</ele>
        <time>2012-03-02T15:59:44Z</time>
      </trkpt>
      <trkpt lat="43.442667" lon="-6.058744">
        <ele>131.0</ele>
        <time>2012-03-02T15:59:48Z</time>
      </trkpt>
      <trkpt lat="43.443029" lon="-6.0585">
        <ele>130.0</ele>
        <time>2012-03-02T15:59:52Z</time>
      </trkpt>
      <trkpt lat="43.443405" lon="-6.058256">
        <ele>128.0</ele>
        <time>2012-03-02T15:59:56Z</time>
      </trkpt>
      <trkpt lat="43.44379" lon="-6.05802">
        <ele>127.0</ele>
        <time>2012-03-02T16:00:00Z</time>
      </trkpt>
      <trkpt lat="43.444181" lon="-6.057773">
        <ele>127.0</ele>
        <time>2012-03-02T16:00:04Z</time>
      </trkpt>
      <trkpt lat="43.444572" lon="-6.057519">
        <ele>126.0</ele>
        <time>2012-03-02T16:00:08Z</time>
      </trkpt>
      <trkpt lat="43.444966" lon="-6.05723">
        <ele>123.0</ele>
        <time>2012-03-02T16:00:12Z</time>
      </trkpt>
      <trkpt lat="43.445358" lon="-6.056931">
        <ele>119.0</ele>
        <time>2012-03-02T16:00:16Z</time>
      </trkpt>
      <trkpt lat="43.445738" lon="-6.056633">
        <ele>115.0</ele>
        <time>2012-03-02T16:00:20Z</time>
      </trkpt>
      <trkpt lat="43.446104" lon="-6.056313">
        <ele>112.0</ele>
        <time>2012-03-02T16:00:24Z</time>
      </trkpt>
      <trkpt lat="43.446403" lon="-6.056168">
        <ele>110.0</ele>
        <time>2012-03-02T16:00:27Z</time>
      </trkpt>
      <trkpt lat="43.446823" lon="-6.056455">
        <ele>108.0</ele>
        <time>2012-03-02T16:00:32Z</time>
      </trkpt>
      <trkpt lat="43.44687" lon="-6.0569">
        <ele>107.0</ele>
        <time>2012-03-02T16:00:36Z</time>
      </trkpt>
      <trkpt lat="43.446801" lon="-6.057323">
        <ele>106.0</ele>
        <time>2012-03-02T16:00:40Z</time>
      </trkpt>
      <trkpt lat="43.446712" lon="-6.057699">
        <ele>105.0</ele>
        <time>2012-03-02T16:00:44Z</time>
      </trkpt>
      <trkpt lat="43.446644" lon="-6.058055">
        <ele>105.0</ele>
        <time>2012-03-02T16:00:48Z</time>
      </trkpt>
      <trkpt lat="43.446723" lon="-6.058403">
        <ele>105.0</ele>
        <time>2012-03-02T16:00:52Z</time>
      </trkpt>
      <trkpt lat="43.446954" lon="-6.058586">
        <ele>105.0</ele>
        <time>2012-03-02T16:00:56Z</time>
      </trkpt>
      <trkpt lat="43.447252" lon="-6.058622">
        <ele>106.0</ele>
        <time>2012-03-02T16:01:00Z</time>
      </trkpt>
      <trkpt lat="43.44755" lon="-6.058623">
        <ele>107.0</ele>
        <time>2012-03-02T16:01:04Z</time>
      </trkpt>
      <trkpt lat="43.447842" lon="-6.058701">
        <ele>107.0</ele>
        <time>2012-03-02T16:01:08Z</time>
      </trkpt>
      <trkpt lat="43.448109" lon="-6.058898">
        <ele>107.0</ele>
        <time>2012-03-02T16:01:12Z</time>
      </trkpt>
      <trkpt lat="43.448337" lon="-6.059179">
        <ele>107.0</ele>
        <time>2012-03-02T16:01:16Z</time>
      </trkpt>
      <trkpt lat="43.448491" lon="-6.059536">
        <ele>106.0</ele>
        <time>2012-03-02T16:01:20Z</time>
      </trkpt>
      <trkpt lat="43.448568" lon="-6.059955">
        <ele>106.0</ele>
        <time>2012-03-02T16:01:24Z</time>
      </trkpt>
      <trkpt lat="43.448568" lon="-6.060365">
        <ele>106.0</ele>
        <time>2012-03-02T16:01:28Z</time>
      </trkpt>
      <trkpt lat="43.448515" lon="-6.060745">
        <ele>106.0</ele>
        <time>2012-03-02T16:01:32Z</time>
      </trkpt>
      <trkpt lat="43.44845" lon="-6.061007">
        <ele>106.0</ele>
        <time>2012-03-02T16:01:35Z</time>
      </trkpt>
      <trkpt lat="43.448352" lon="-6.061315">
        <ele>106.0</ele>
        <time>2012-03-02T16:01:39Z</time>
      </trkpt>
      <trkpt lat="43.448264" lon="-6.061604">
        <ele>106.0</ele>
        <time>2012-03-02T16:01:43Z</time>
      </trkpt>
      <trkpt lat="43.448164" lon="-6.061896">
        <ele>106.0</ele>
        <time>2012-03-02T16:01:47Z</time>
      </trkpt>
      <trkpt lat="43.448024" lon="-6.062294">
        <ele>107.0</ele>
        <time>2012-03-02T16:01:52Z</time>
      </trkpt>
      <trkpt lat="43.4479" lon="-6.062649">
        <ele>107.0</ele>
        <time>2012-03-02T16:01:56Z</time>
      </trkpt>
      <trkpt lat="43.447773" lon="-6.063024">
        <ele>108.0</ele>
        <time>2012-03-02T16:02:00Z</time>
      </trkpt>
      <trkpt lat="43.447634" lon="-6.063404">
        <ele>108.0</ele>
        <time>2012-03-02T16:02:04Z</time>
      </trkpt>
      <trkpt lat="43.447454" lon="-6.06382">
        <ele>108.0</ele>
        <time>2012-03-02T16:02:08Z</time>
      </trkpt>
      <trkpt lat="43.447251" lon="-6.064261">
        <ele>108.0</ele>
        <time>2012-03-02T16:02:12Z</time>
      </trkpt>
      <trkpt lat="43.447168" lon="-6.064798">
        <ele>108.0</ele>
        <time>2012-03-02T16:02:16Z</time>
      </trkpt>
      <trkpt lat="43.447189" lon="-6.065361">
        <ele>107.0</ele>
        <time>2012-03-02T16:02:20Z</time>
      </trkpt>
      <trkpt lat="43.446989" lon="-6.065837">
        <ele>107.0</ele>
        <time>2012-03-02T16:02:24Z</time>
      </trkpt>
      <trkpt lat="43.446735" lon="-6.066272">
        <ele>106.0</ele>
        <time>2012-03-02T16:02:28Z</time>
      </trkpt>
      <trkpt lat="43.446607" lon="-6.066792">
        <ele>104.0</ele>
        <time>2012-03-02T16:02:32Z</time>
      </trkpt>
      <trkpt lat="43.446533" lon="-6.067309">
        <ele>103.0</ele>
        <time>2012-03-02T16:02:36Z</time>
      </trkpt>
      <trkpt lat="43.446489" lon="-6.067692">
        <ele>102.0</ele>
        <time>2012-03-02T16:02:39Z</time>
      </trkpt>
      <trkpt lat="43.446462" lon="-6.068201">
        <ele>101.0</ele>
        <time>2012-03-02T16:02:43Z</time>
      </trkpt>
      <trkpt lat="43.446479" lon="-6.068845">
        <ele>101.0</ele>
        <time>2012-03-02T16:02:48Z</time>
      </trkpt>
      <trkpt lat="43.446517" lon="-6.069362">
        <ele>101.0</ele>
        <time>2012-03-02T16:02:52Z</time>
      </trkpt>
      <trkpt lat="43.446586" lon="-6.069869">
        <ele>101.0</ele>
        <time>2012-03-02T16:02:56Z</time>
      </trkpt>
      <trkpt lat="43.446697" lon="-6.070363">
        <ele>101.0</ele>
        <time>2012-03-02T16:03:00Z</time>
      </trkpt>
      <trkpt lat="43.446795" lon="-6.070717">
        <ele>101.0</ele>
        <time>2012-03-02T16:03:03Z</time>
      </trkpt>
      <trkpt lat="43.446961" lon="-6.07132">
        <ele>101.0</ele>
        <time>2012-03-02T16:03:08Z</time>
      </trkpt>
      <trkpt lat="43.447094" lon="-6.071796">
        <ele>100.0</ele>
        <time>2012-03-02T16:03:12Z</time>
      </trkpt>
      <trkpt lat="43.447218" lon="-6.072276">
        <ele>99.0</ele>
        <time>2012-03-02T16:03:16Z</time>
      </trkpt>
      <trkpt lat="43.44733" lon="-6.07274">
        <ele>98.0</ele>
        <time>2012-03-02T16:03:20Z</time>
      </trkpt>
      <trkpt lat="43.447446" lon="-6.073174">
        <ele>96.0</ele>
        <time>2012-03-02T16:03:24Z</time>
      </trkpt>
      <trkpt lat="43.447588" lon="-6.073602">
        <ele>95.0</ele>
        <time>2012-03-02T16:03:28Z</time>
      </trkpt>
      <trkpt lat="43.447747" lon="-6.074013">
        <ele>93.0</ele>
        <time>2012-03-02T16:03:32Z</time>
      </trkpt>
      <trkpt lat="43.447902" lon="-6.074407">
        <ele>92.0</ele>
        <time>2012-03-02T16:03:36Z</time>
      </trkpt>
      <trkpt lat="43.448038" lon="-6.074778">
        <ele>91.0</ele>
        <time>2012-03-02T16:03:40Z</time>
      </trkpt>
      <trkpt lat="43.448166" lon="-6.075139">
        <ele>91.0</ele>
        <time>2012-03-02T16:03:44Z</time>
      </trkpt>
      <trkpt lat="43.44829" lon="-6.075484">
        <ele>90.0</ele>
        <time>2012-03-02T16:03:48Z</time>
      </trkpt>
      <trkpt lat="43.448411" lon="-6.075821">
        <ele>89.0</ele>
        <time>2012-03-02T16:03:52Z</time>
      </trkpt>
      <trkpt lat="43.448531" lon="-6.076156">
        <ele>88.0</ele>
        <time>2012-03-02T16:03:56Z</time>
      </trkpt>
      <trkpt lat="43.448651" lon="-6.076498">
        <ele>88.0</ele>
        <time>2012-03-02T16:04:00Z</time>
      </trkpt>
      <trkpt lat="43.448801" lon="-6.076824">
        <ele>89.0</ele>
        <time>2012-03-02T16:04:04Z</time>
      </trkpt>
      <trkpt lat="43.448977" lon="-6.077143">
        <ele>89.0</ele>
        <time>2012-03-02T16:04:08Z</time>
      </trkpt>
      <trkpt lat="43.449171" lon="-6.077522">
        <ele>89.0</ele>
        <time>2012-03-02T16:04:12Z</time>
      </trkpt>
      <trkpt lat="43.449294" lon="-6.077972">
        <ele>88.0</ele>
        <time>2012-03-02T16:04:16Z</time>
      </trkpt>
      <trkpt lat="43.449261" lon="-6.078429">
        <ele>87.0</ele>
        <time>2012-03-02T16:04:20Z</time>
      </trkpt>
      <trkpt lat="43.449201" lon="-6.078836">
        <ele>87.0</ele>
        <time>2012-03-02T16:04:24Z</time>
      </trkpt>
      <trkpt lat="43.449194" lon="-6.079219">
        <ele>86.0</ele>
        <time>2012-03-02T16:04:28Z</time>
      </trkpt>
      <trkpt lat="43.449207" lon="-6.079587">
        <ele>85.0</ele>
        <time>2012-03-02T16:04:32Z</time>
      </trkpt>
      <trkpt lat="43.449222" lon="-6.079942">
        <ele>85.0</ele>
        <time>2012-03-02T16:04:36Z</time>
      </trkpt>
      <trkpt lat="43.449244" lon="-6.080291">
        <ele>85.0</ele>
        <time>2012-03-02T16:04:40Z</time>
      </trkpt>
      <trkpt lat="43.449266" lon="-6.080641">
        <ele>85.0</ele>
        <time>2012-03-02T16:04:44Z</time>
      </trkpt>
      <trkpt lat="43.449291" lon="-6.080991">
        <ele>85.0</ele>
        <time>2012-03-02T16:04:48Z</time>
      </trkpt>
      <trkpt lat="43.449334" lon="-6.081334">
        <ele>86.0</ele>
        <time>2012-03-02T16:04:52Z</time>
      </trkpt>
      <trkpt lat="43.44939" lon="-6.081689">
        <ele>86.0</ele>
        <time>2012-03-02T16:04:56Z</time>
      </trkpt>
      <trkpt lat="43.449474" lon="-6.082081">
        <ele>87.0</ele>
        <time>2012-03-02T16:05:00Z</time>
      </trkpt>
      <trkpt lat="43.449588" lon="-6.082503">
        <ele>87.0</ele>
        <time>2012-03-02T16:05:04Z</time>
      </trkpt>
      <trkpt lat="43.449743" lon="-6.082919">
        <ele>86.0</ele>
        <time>2012-03-02T16:05:08Z</time>
      </trkpt>
      <trkpt lat="43.449933" lon="-6.083321">
        <ele>85.0</ele>
        <time>2012-03-02T16:05:12Z</time>
      </trkpt>
      <trkpt lat="43.450151" lon="-6.083692">
        <ele>84.0</ele>
        <time>2012-03-02T16:05:16Z</time>
      </trkpt>
      <trkpt lat="43.450385" lon="-6.084008">
        <ele>84.0</ele>
        <time>2012-03-02T16:05:20Z</time>
      </trkpt>
      <trkpt lat="43.450629" lon="-6.084271">
        <ele>84.0</ele>
        <time>2012-03-02T16:05:24Z</time>
      </trkpt>
      <trkpt lat="43.450892" lon="-6.084492">
        <ele>84.0</ele>
        <time>2012-03-02T16:05:28Z</time>
      </trkpt>
      <trkpt lat="43.451167" lon="-6.084677">
        <ele>85.0</ele>
        <time>2012-03-02T16:05:32Z</time>
      </trkpt>
      <trkpt lat="43.451451" lon="-6.08483">
        <ele>85.0</ele>
        <time>2012-03-02T16:05:36Z</time>
      </trkpt>
      <trkpt lat="43.45174" lon="-6.084948">
        <ele>85.0</ele>
        <time>2012-03-02T16:05:40Z</time>
      </trkpt>
      <trkpt lat="43.452029" lon="-6.085033">
        <ele>86.0</ele>
        <time>2012-03-02T16:05:44Z</time>
      </trkpt>
      <trkpt lat="43.452324" lon="-6.085099">
        <ele>86.0</ele>
        <time>2012-03-02T16:05:48Z</time>
      </trkpt>
      <trkpt lat="43.452623" lon="-6.085145">
        <ele>86.0</ele>
        <time>2012-03-02T16:05:52Z</time>
      </trkpt>
      <trkpt lat="43.452934" lon="-6.085173">
        <ele>85.0</ele>
        <time>2012-03-02T16:05:56Z</time>
      </trkpt>
      <trkpt lat="43.453243" lon="-6.085196">
        <ele>85.0</ele>
        <time>2012-03-02T16:06:00Z</time>
      </trkpt>
      <trkpt lat="43.45355" lon="-6.085217">
        <ele>85.0</ele>
        <time>2012-03-02T16:06:04Z</time>
      </trkpt>
      <trkpt lat="43.453866" lon="-6.085235">
        <ele>85.0</ele>
        <time>2012-03-02T16:06:08Z</time>
      </trkpt>
      <trkpt lat="43.454195" lon="-6.08526">
        <ele>84.0</ele>
        <time>2012-03-02T16:06:12Z</time>
      </trkpt>
      <trkpt lat="43.454519" lon="-6.08528">
        <ele>83.0</ele>
        <time>2012-03-02T16:06:16Z</time>
      </trkpt>
      <trkpt lat="43.454835" lon="-6.085306">
        <ele>82.0</ele>
        <time>2012-03-02T16:06:20Z</time>
      </trkpt>
      <trkpt lat="43.455135" lon="-6.085328">
        <ele>81.0</ele>
        <time>2012-03-02T16:06:24Z</time>
      </trkpt>
      <trkpt lat="43.455432" lon="-6.085364">
        <ele>81.0</ele>
        <time>2012-03-02T16:06:28Z</time>
      </trkpt>
      <trkpt lat="43.45572" lon="-6.085472">
        <ele>81.0</ele>
        <time>2012-03-02T16:06:32Z</time>
      </trkpt>
      <trkpt lat="43.455922" lon="-6.085609">
        <ele>81.0</ele>
        <time>2012-03-02T16:06:35Z</time>
      </trkpt>
      <trkpt lat="43.456101" lon="-6.085817">
        <ele>82.0</ele>
        <time>2012-03-02T16:06:38Z</time>
      </trkpt>
      <trkpt lat="43.456404" lon="-6.086305">
        <ele>82.0</ele>
        <time>2012-03-02T16:06:44Z</time>
      </trkpt>
      <trkpt lat="43.456543" lon="-6.086572">
        <ele>80.0</ele>
        <time>2012-03-02T16:06:47Z</time>
      </trkpt>
      <trkpt lat="43.456721" lon="-6.086939">
        <ele>80.0</ele>
        <time>2012-03-02T16:06:51Z</time>
      </trkpt>
      <trkpt lat="43.456908" lon="-6.087267">
        <ele>80.0</ele>
        <time>2012-03-02T16:06:55Z</time>
      </trkpt>
      <trkpt lat="43.457124" lon="-6.087796">
        <ele>79.0</ele>
        <time>2012-03-02T16:06:59Z</time>
      </trkpt>
      <trkpt lat="43.45735" lon="-6.088207">
        <ele>77.0</ele>
        <time>2012-03-02T16:07:03Z</time>
      </trkpt>
      <trkpt lat="43.457561" lon="-6.088114">
        <ele>77.0</ele>
        <time>2012-03-02T16:07:07Z</time>
      </trkpt>
      <trkpt lat="43.457812" lon="-6.088214">
        <ele>79.0</ele>
        <time>2012-03-02T16:07:11Z</time>
      </trkpt>
      <trkpt lat="43.457988" lon="-6.088305">
        <ele>81.0</ele>
        <time>2012-03-02T16:07:14Z</time>
      </trkpt>
      <trkpt lat="43.458222" lon="-6.088404">
        <ele>82.0</ele>
        <time>2012-03-02T16:07:18Z</time>
      </trkpt>
      <trkpt lat="43.458442" lon="-6.088493">
        <ele>83.0</ele>
        <time>2012-03-02T16:07:22Z</time>
      </trkpt>
      <trkpt lat="43.45865" lon="-6.088583">
        <ele>84.0</ele>
        <time>2012-03-02T16:07:26Z</time>
      </trkpt>
      <trkpt lat="43.458846" lon="-6.088669">
        <ele>84.0</ele>
        <time>2012-03-02T16:07:30Z</time>
      </trkpt>
      <trkpt lat="43.45903" lon="-6.088777">
        <ele>85.0</ele>
        <time>2012-03-02T16:07:34Z</time>
      </trkpt>
      <trkpt lat="43.459195" lon="-6.088898">
        <ele>86.0</ele>
        <time>2012-03-02T16:07:38Z</time>
      </trkpt>
      <trkpt lat="43.45935" lon="-6.08904">
        <ele>86.0</ele>
        <time>2012-03-02T16:07:42Z</time>
      </trkpt>
      <trkpt lat="43.459497" lon="-6.089185">
        <ele>87.0</ele>
        <time>2012-03-02T16:07:46Z</time>
      </trkpt>
      <trkpt lat="43.459631" lon="-6.089348">
        <ele>88.0</ele>
        <time>2012-03-02T16:07:50Z</time>
      </trkpt>
      <trkpt lat="43.459767" lon="-6.089512">
        <ele>89.0</ele>
        <time>2012-03-02T16:07:54Z</time>
      </trkpt>
      <trkpt lat="43.459891" lon="-6.089687">
        <ele>90.0</ele>
        <time>2012-03-02T16:07:58Z</time>
      </trkpt>
      <trkpt lat="43.459997" lon="-6.089879">
        <ele>92.0</ele>
        <time>2012-03-02T16:08:02Z</time>
      </trkpt>
      <trkpt lat="43.460084" lon="-6.090082">
        <ele>92.0</ele>
        <time>2012-03-02T16:08:06Z</time>
      </trkpt>
      <trkpt lat="43.460163" lon="-6.090293">
        <ele>93.0</ele>
        <time>2012-03-02T16:08:10Z</time>
      </trkpt>
      <trkpt lat="43.460231" lon="-6.090502">
        <ele>93.0</ele>
        <time>2012-03-02T16:08:14Z</time>
      </trkpt>
      <trkpt lat="43.460289" lon="-6.090713">
        <ele>94.0</ele>
        <time>2012-03-02T16:08:18Z</time>
      </trkpt>
      <trkpt lat="43.46034" lon="-6.090908">
        <ele>94.0</ele>
        <time>2012-03-02T16:08:22Z</time>
      </trkpt>
      <trkpt lat="43.460377" lon="-6.09111">
        <ele>94.0</ele>
        <time>2012-03-02T16:08:26Z</time>
      </trkpt>
      <trkpt lat="43.460405" lon="-6.091332">
        <ele>95.0</ele>
        <time>2012-03-02T16:08:30Z</time>
      </trkpt>
      <trkpt lat="43.460428" lon="-6.091554">
        <ele>96.0</ele>
        <time>2012-03-02T16:08:34Z</time>
      </trkpt>
      <trkpt lat="43.460446" lon="-6.091787">
        <ele>98.0</ele>
        <time>2012-03-02T16:08:38Z</time>
      </trkpt>
      <trkpt lat="43.46046" lon="-6.092028">
        <ele>100.0</ele>
        <time>2012-03-02T16:08:42Z</time>
      </trkpt>
      <trkpt lat="43.460475" lon="-6.092278">
        <ele>101.0</ele>
        <time>2012-03-02T16:08:46Z</time>
      </trkpt>
      <trkpt lat="43.460489" lon="-6.092541">
        <ele>102.0</ele>
        <time>2012-03-02T16:08:50Z</time>
      </trkpt>
      <trkpt lat="43.460521" lon="-6.092795">
        <ele>103.0</ele>
        <time>2012-03-02T16:08:54Z</time>
      </trkpt>
      <trkpt lat="43.460577" lon="-6.093042">
        <ele>105.0</ele>
        <time>2012-03-02T16:08:58Z</time>
      </trkpt>
      <trkpt lat="43.460626" lon="-6.093286">
        <ele>106.0</ele>
        <time>2012-03-02T16:09:02Z</time>
      </trkpt>
      <trkpt lat="43.460647" lon="-6.093528">
        <ele>107.0</ele>
        <time>2012-03-02T16:09:06Z</time>
      </trkpt>
      <trkpt lat="43.460659" lon="-6.093784">
        <ele>107.0</ele>
        <time>2012-03-02T16:09:10Z</time>
      </trkpt>
      <trkpt lat="43.460681" lon="-6.094042">
        <ele>107.0</ele>
        <time>2012-03-02T16:09:14Z</time>
      </trkpt>
      <trkpt lat="43.460737" lon="-6.094299">
        <ele>108.0</ele>
        <time>2012-03-02T16:09:18Z</time>
      </trkpt>
      <trkpt lat="43.460818" lon="-6.094546">
        <ele>108.0</ele>
        <time>2012-03-02T16:09:22Z</time>
      </trkpt>
      <trkpt lat="43.460918" lon="-6.094776">
        <ele>109.0</ele>
        <time>2012-03-02T16:09:26Z</time>
      </trkpt>
      <trkpt lat="43.461034" lon="-6.094999">
        <ele>110.0</ele>
        <time>2012-03-02T16:09:30Z</time>
      </trkpt>
      <trkpt lat="43.461183" lon="-6.095183">
        <ele>112.0</ele>
        <time>2012-03-02T16:09:34Z</time>
      </trkpt>
      <trkpt lat="43.461348" lon="-6.095327">
        <ele>113.0</ele>
        <time>2012-03-02T16:09:38Z</time>
      </trkpt>
      <trkpt lat="43.461517" lon="-6.095464">
        <ele>114.0</ele>
        <time>2012-03-02T16:09:42Z</time>
      </trkpt>
      <trkpt lat="43.461686" lon="-6.095596">
        <ele>115.0</ele>
        <time>2012-03-02T16:09:46Z</time>
      </trkpt>
      <trkpt lat="43.461855" lon="-6.095715">
        <ele>116.0</ele>
        <time>2012-03-02T16:09:50Z</time>
      </trkpt>
      <trkpt lat="43.462013" lon="-6.09584">
        <ele>117.0</ele>
        <time>2012-03-02T16:09:54Z</time>
      </trkpt>
      <trkpt lat="43.462165" lon="-6.095959">
        <ele>118.0</ele>
        <time>2012-03-02T16:09:58Z</time>
      </trkpt>
      <trkpt lat="43.46232" lon="-6.096079">
        <ele>119.0</ele>
        <time>2012-03-02T16:10:02Z</time>
      </trkpt>
      <trkpt lat="43.462458" lon="-6.096231">
        <ele>120.0</ele>
        <time>2012-03-02T16:10:06Z</time>
      </trkpt>
      <trkpt lat="43.462523" lon="-6.096318">
        <ele>121.0</ele>
        <time>2012-03-02T16:10:08Z</time>
      </trkpt>
      <trkpt lat="43.462774" lon="-6.096564">
        <ele>122.0</ele>
        <time>2012-03-02T16:10:14Z</time>
      </trkpt>
      <trkpt lat="43.463092" lon="-6.096552">
        <ele>124.0</ele>
        <time>2012-03-02T16:10:19Z</time>
      </trkpt>
      <trkpt lat="43.463404" lon="-6.096429">
        <ele>125.0</ele>
        <time>2012-03-02T16:10:23Z</time>
      </trkpt>
      <trkpt lat="43.463732" lon="-6.09626">
        <ele>125.0</ele>
        <time>2012-03-02T16:10:27Z</time>
      </trkpt>
      <trkpt lat="43.464078" lon="-6.096141">
        <ele>125.0</ele>
        <time>2012-03-02T16:10:31Z</time>
      </trkpt>
      <trkpt lat="43.464438" lon="-6.096044">
        <ele>125.0</ele>
        <time>2012-03-02T16:10:35Z</time>
      </trkpt>
      <trkpt lat="43.464801" lon="-6.095841">
        <ele>125.0</ele>
        <time>2012-03-02T16:10:39Z</time>
      </trkpt>
      <trkpt lat="43.465177" lon="-6.095603">
        <ele>125.0</ele>
        <time>2012-03-02T16:10:43Z</time>
      </trkpt>
      <trkpt lat="43.465578" lon="-6.095384">
        <ele>125.0</ele>
        <time>2012-03-02T16:10:47Z</time>
      </trkpt>
      <trkpt lat="43.465891" lon="-6.095252">
        <ele>125.0</ele>
        <time>2012-03-02T16:10:50Z</time>
      </trkpt>
      <trkpt lat="43.466311" lon="-6.095106">
        <ele>125.0</ele>
        <time>2012-03-02T16:10:54Z</time>
      </trkpt>
      <trkpt lat="43.466803" lon="-6.094919">
        <ele>125.0</ele>
        <time>2012-03-02T16:10:59Z</time>
      </trkpt>
      <trkpt lat="43.467195" lon="-6.094771">
        <ele>125.0</ele>
        <time>2012-03-02T16:11:03Z</time>
      </trkpt>
      <trkpt lat="43.467195" lon="-6.094771">
        <time>2012-03-02T16:11:15Z</time>
      </trkpt>
    </trkseg>
    <trkseg>
      <trkpt lat="43.467195" lon="-6.094771">
        <time>2012-03-02T16:11:18Z</time>
      </trkpt>
      <trkpt lat="43.467195" lon="-6.094771">
        <time>2012-03-02T16:11:33Z</time>
      </trkpt>
    </trkseg>
    <trkseg>
      <trkpt lat="43.467195" lon="-6.094771">
        <time>2012-03-02T16:11:36Z</time>
      </trkpt>
      <trkpt lat="43.470006" lon="-6.097995">
        <ele>120.0</ele>
        <time>2012-03-02T16:11:39Z</time>
      </trkpt>
      <trkpt lat="43.47028" lon="-6.098317">
        <ele>111.0</ele>
        <time>2012-03-02T16:11:43Z</time>
      </trkpt>
      <trkpt lat="43.470534" lon="-6.098555">
        <ele>105.0</ele>
        <time>2012-03-02T16:11:47Z</time>
      </trkpt>
      <trkpt lat="43.470846" lon="-6.098674">
        <ele>99.0</ele>
        <time>2012-03-02T16:11:51Z</time>
      </trkpt>
      <trkpt lat="43.471158" lon="-6.09879">
        <ele>96.0</ele>
        <time>2012-03-02T16:11:55Z</time>
      </trkpt>
      <trkpt lat="43.471306" lon="-6.098869">
        <ele>95.0</ele>
        <time>2012-03-02T16:11:57Z</time>
      </trkpt>
      <trkpt lat="43.47169" lon="-6.099281">
        <ele>94.0</ele>
        <time>2012-03-02T16:12:03Z</time>
      </trkpt>
      <trkpt lat="43.471816" lon="-6.099405">
        <ele>94.0</ele>
        <time>2012-03-02T16:12:05Z</time>
      </trkpt>
      <trkpt lat="43.472181" lon="-6.099781">
        <ele>87.0</ele>
        <time>2012-03-02T16:12:11Z</time>
      </trkpt>
      <trkpt lat="43.472372" lon="-6.100153">
        <ele>88.0</ele>
        <time>2012-03-02T16:12:15Z</time>
      </trkpt>
      <trkpt lat="43.472553" lon="-6.100563">
        <ele>88.0</ele>
        <time>2012-03-02T16:12:19Z</time>
      </trkpt>
      <trkpt lat="43.472773" lon="-6.100875">
        <ele>88.0</ele>
        <time>2012-03-02T16:12:23Z</time>
      </trkpt>
      <trkpt lat="43.473005" lon="-6.101158">
        <ele>90.0</ele>
        <time>2012-03-02T16:12:27Z</time>
      </trkpt>
      <trkpt lat="43.473237" lon="-6.101408">
        <ele>91.0</ele>
        <time>2012-03-02T16:12:31Z</time>
      </trkpt>
      <trkpt lat="43.473487" lon="-6.10159">
        <ele>91.0</ele>
        <time>2012-03-02T16:12:35Z</time>
      </trkpt>
      <trkpt lat="43.47377" lon="-6.101647">
        <ele>91.0</ele>
        <time>2012-03-02T16:12:39Z</time>
      </trkpt>
      <trkpt lat="43.474038" lon="-6.101484">
        <ele>90.0</ele>
        <time>2012-03-02T16:12:43Z</time>
      </trkpt>
      <trkpt lat="43.474273" lon="-6.101226">
        <ele>89.0</ele>
        <time>2012-03-02T16:12:47Z</time>
      </trkpt>
      <trkpt lat="43.474495" lon="-6.100957">
        <ele>89.0</ele>
        <time>2012-03-02T16:12:51Z</time>
      </trkpt>
      <trkpt lat="43.474732" lon="-6.100716">
        <ele>89.0</ele>
        <time>2012-03-02T16:12:55Z</time>
      </trkpt>
      <trkpt lat="43.474976" lon="-6.100495">
        <ele>89.0</ele>
        <time>2012-03-02T16:12:59Z</time>
      </trkpt>
      <trkpt lat="43.475157" lon="-6.10033">
        <ele>89.0</ele>
        <time>2012-03-02T16:13:02Z</time>
      </trkpt>
      <trkpt lat="43.475399" lon="-6.100109">
        <ele>89.0</ele>
        <time>2012-03-02T16:13:06Z</time>
      </trkpt>
      <trkpt lat="43.475785" lon="-6.10003">
        <ele>83.0</ele>
        <time>2012-03-02T16:13:11Z</time>
      </trkpt>
      <trkpt lat="43.476021" lon="-6.099995">
        <ele>83.0</ele>
        <time>2012-03-02T16:13:14Z</time>
      </trkpt>
      <trkpt lat="43.476318" lon="-6.09982">
        <ele>84.0</ele>
        <time>2012-03-02T16:13:19Z</time>
      </trkpt>
      <trkpt lat="43.476585" lon="-6.099677">
        <ele>86.0</ele>
        <time>2012-03-02T16:13:23Z</time>
      </trkpt>
      <trkpt lat="43.476824" lon="-6.099427">
        <ele>86.0</ele>
        <time>2012-03-02T16:13:27Z</time>
      </trkpt>
      <trkpt lat="43.477055" lon="-6.099172">
        <ele>86.0</ele>
        <time>2012-03-02T16:13:31Z</time>
      </trkpt>
      <trkpt lat="43.477327" lon="-6.098991">
        <ele>87.0</ele>
        <time>2012-03-02T16:13:35Z</time>
      </trkpt>
      <trkpt lat="43.477599" lon="-6.098838">
        <ele>87.0</ele>
        <time>2012-03-02T16:13:39Z</time>
      </trkpt>
      <trkpt lat="43.477849" lon="-6.098667">
        <ele>87.0</ele>
        <time>2012-03-02T16:13:43Z</time>
      </trkpt>
      <trkpt lat="43.478112" lon="-6.098482">
        <ele>87.0</ele>
        <time>2012-03-02T16:13:47Z</time>
      </trkpt>
      <trkpt lat="43.478374" lon="-6.098293">
        <ele>87.0</ele>
        <time>2012-03-02T16:13:51Z</time>
      </trkpt>
      <trkpt lat="43.478636" lon="-6.098108">
        <ele>87.0</ele>
        <time>2012-03-02T16:13:55Z</time>
      </trkpt>
      <trkpt lat="43.478901" lon="-6.097929">
        <ele>87.0</ele>
        <time>2012-03-02T16:13:59Z</time>
      </trkpt>
      <trkpt lat="43.479177" lon="-6.097784">
        <ele>88.0</ele>
        <time>2012-03-02T16:14:03Z</time>
      </trkpt>
      <trkpt lat="43.479392" lon="-6.097736">
        <ele>88.0</ele>
        <time>2012-03-02T16:14:06Z</time>
      </trkpt>
      <trkpt lat="43.479709" lon="-6.097806">
        <ele>89.0</ele>
        <time>2012-03-02T16:14:11Z</time>
      </trkpt>
      <trkpt lat="43.479931" lon="-6.097978">
        <ele>89.0</ele>
        <time>2012-03-02T16:14:15Z</time>
      </trkpt>
      <trkpt lat="43.480122" lon="-6.0982">
        <ele>91.0</ele>
        <time>2012-03-02T16:14:19Z</time>
      </trkpt>
      <trkpt lat="43.480319" lon="-6.098368">
        <ele>91.0</ele>
        <time>2012-03-02T16:14:23Z</time>
      </trkpt>
      <trkpt lat="43.480544" lon="-6.098366">
        <ele>91.0</ele>
        <time>2012-03-02T16:14:27Z</time>
      </trkpt>
      <trkpt lat="43.480749" lon="-6.098233">
        <ele>91.0</ele>
        <time>2012-03-02T16:14:31Z</time>
      </trkpt>
      <trkpt lat="43.480935" lon="-6.098046">
        <ele>91.0</ele>
        <time>2012-03-02T16:14:35Z</time>
      </trkpt>
      <trkpt lat="43.481116" lon="-6.097835">
        <ele>91.0</ele>
        <time>2012-03-02T16:14:39Z</time>
      </trkpt>
      <trkpt lat="43.481298" lon="-6.097609">
        <ele>91.0</ele>
        <time>2012-03-02T16:14:43Z</time>
      </trkpt>
      <trkpt lat="43.481479" lon="-6.097387">
        <ele>91.0</ele>
        <time>2012-03-02T16:14:47Z</time>
      </trkpt>
      <trkpt lat="43.481676" lon="-6.097176">
        <ele>91.0</ele>
        <time>2012-03-02T16:14:51Z</time>
      </trkpt>
      <trkpt lat="43.481886" lon="-6.096971">
        <ele>91.0</ele>
        <time>2012-03-02T16:14:55Z</time>
      </trkpt>
      <trkpt lat="43.482092" lon="-6.096761">
        <ele>91.0</ele>
        <time>2012-03-02T16:14:59Z</time>
      </trkpt>
      <trkpt lat="43.482298" lon="-6.09655">
        <ele>92.0</ele>
        <time>2012-03-02T16:15:03Z</time>
      </trkpt>
      <trkpt lat="43.482514" lon="-6.096348">
        <ele>93.0</ele>
        <time>2012-03-02T16:15:07Z</time>
      </trkpt>
      <trkpt lat="43.482726" lon="-6.096136">
        <ele>92.0</ele>
        <time>2012-03-02T16:15:11Z</time>
      </trkpt>
      <trkpt lat="43.48294" lon="-6.095917">
        <ele>92.0</ele>
        <time>2012-03-02T16:15:15Z</time>
      </trkpt>
      <trkpt lat="43.483154" lon="-6.09571">
        <ele>93.0</ele>
        <time>2012-03-02T16:15:19Z</time>
      </trkpt>
      <trkpt lat="43.483353" lon="-6.095488">
        <ele>93.0</ele>
        <time>2012-03-02T16:15:23Z</time>
      </trkpt>
      <trkpt lat="43.483526" lon="-6.095232">
        <ele>94.0</ele>
        <time>2012-03-02T16:15:27Z</time>
      </trkpt>
      <trkpt lat="43.483651" lon="-6.095037">
        <ele>94.0</ele>
        <time>2012-03-02T16:15:30Z</time>
      </trkpt>
      <trkpt lat="43.483871" lon="-6.094728">
        <ele>95.0</ele>
        <time>2012-03-02T16:15:35Z</time>
      </trkpt>
      <trkpt lat="43.484102" lon="-6.094574">
        <ele>95.0</ele>
        <time>2012-03-02T16:15:39Z</time>
      </trkpt>
      <trkpt lat="43.484357" lon="-6.094548">
        <ele>96.0</ele>
        <time>2012-03-02T16:15:43Z</time>
      </trkpt>
      <trkpt lat="43.484486" lon="-6.094588">
        <ele>97.0</ele>
        <time>2012-03-02T16:15:45Z</time>
      </trkpt>
      <trkpt lat="43.484789" lon="-6.094698">
        <ele>98.0</ele>
        <time>2012-03-02T16:15:50Z</time>
      </trkpt>
      <trkpt lat="43.485018" lon="-6.0948">
        <ele>98.0</ele>
        <time>2012-03-02T16:15:54Z</time>
      </trkpt>
      <trkpt lat="43.485308" lon="-6.094938">
        <ele>99.0</ele>
        <time>2012-03-02T16:15:59Z</time>
      </trkpt>
      <trkpt lat="43.485427" lon="-6.095007">
        <ele>99.0</ele>
        <time>2012-03-02T16:16:01Z</time>
      </trkpt>
      <trkpt lat="43.485782" lon="-6.095257">
        <ele>100.0</ele>
        <time>2012-03-02T16:16:07Z</time>
      </trkpt>
      <trkpt lat="43.486017" lon="-6.095524">
        <ele>102.0</ele>
        <time>2012-03-02T16:16:11Z</time>
      </trkpt>
      <trkpt lat="43.486248" lon="-6.095854">
        <ele>103.0</ele>
        <time>2012-03-02T16:16:15Z</time>
      </trkpt>
      <trkpt lat="43.48647" lon="-6.096181">
        <ele>104.0</ele>
        <time>2012-03-02T16:16:19Z</time>
      </trkpt>
      <trkpt lat="43.486583" lon="-6.096338">
        <ele>104.0</ele>
        <time>2012-03-02T16:16:21Z</time>
      </trkpt>
      <trkpt lat="43.486935" lon="-6.096792">
        <ele>105.0</ele>
        <time>2012-03-02T16:16:27Z</time>
      </trkpt>
      <trkpt lat="43.487117" lon="-6.097008">
        <ele>106.0</ele>
        <time>2012-03-02T16:16:30Z</time>
      </trkpt>
      <trkpt lat="43.487422" lon="-6.097376">
        <ele>107.0</ele>
        <time>2012-03-02T16:16:35Z</time>
      </trkpt>
      <trkpt lat="43.487683" lon="-6.097691">
        <ele>107.0</ele>
        <time>2012-03-02T16:16:39Z</time>
      </trkpt>
      <trkpt lat="43.487957" lon="-6.097999">
        <ele>107.0</ele>
        <time>2012-03-02T16:16:43Z</time>
      </trkpt>
      <trkpt lat="43.488171" lon="-6.098194">
        <ele>107.0</ele>
        <time>2012-03-02T16:16:46Z</time>
      </trkpt>
      <trkpt lat="43.488554" lon="-6.09846">
        <ele>106.0</ele>
        <time>2012-03-02T16:16:51Z</time>
      </trkpt>
      <trkpt lat="43.488713" lon="-6.098554">
        <ele>106.0</ele>
        <time>2012-03-02T16:16:53Z</time>
      </trkpt>
      <trkpt lat="43.489212" lon="-6.09879">
        <ele>104.0</ele>
        <time>2012-03-02T16:16:59Z</time>
      </trkpt>
      <trkpt lat="43.489553" lon="-6.09891">
        <ele>103.0</ele>
        <time>2012-03-02T16:17:03Z</time>
      </trkpt>
      <trkpt lat="43.489893" lon="-6.098952">
        <ele>101.0</ele>
        <time>2012-03-02T16:17:07Z</time>
      </trkpt>
      <trkpt lat="43.490232" lon="-6.098875">
        <ele>99.0</ele>
        <time>2012-03-02T16:17:11Z</time>
      </trkpt>
      <trkpt lat="43.490491" lon="-6.098859">
        <ele>98.0</ele>
        <time>2012-03-02T16:17:14Z</time>
      </trkpt>
      <trkpt lat="43.490803" lon="-6.099061">
        <ele>97.0</ele>
        <time>2012-03-02T16:17:18Z</time>
      </trkpt>
      <trkpt lat="43.491006" lon="-6.09941">
        <ele>97.0</ele>
        <time>2012-03-02T16:17:22Z</time>
      </trkpt>
      <trkpt lat="43.491258" lon="-6.099868">
        <ele>97.0</ele>
        <time>2012-03-02T16:17:27Z</time>
      </trkpt>
      <trkpt lat="43.491459" lon="-6.100242">
        <ele>95.0</ele>
        <time>2012-03-02T16:17:31Z</time>
      </trkpt>
      <trkpt lat="43.491357" lon="-6.100637">
        <ele>95.0</ele>
        <time>2012-03-02T16:17:35Z</time>
      </trkpt>
      <trkpt lat="43.491129" lon="-6.101012">
        <ele>94.0</ele>
        <time>2012-03-02T16:17:39Z</time>
      </trkpt>
      <trkpt lat="43.49116" lon="-6.101525">
        <ele>95.0</ele>
        <time>2012-03-02T16:17:43Z</time>
      </trkpt>
      <trkpt lat="43.491419" lon="-6.101951">
        <ele>93.0</ele>
        <time>2012-03-02T16:17:47Z</time>
      </trkpt>
      <trkpt lat="43.491507" lon="-6.102462">
        <ele>91.0</ele>
        <time>2012-03-02T16:17:51Z</time>
      </trkpt>
      <trkpt lat="43.491717" lon="-6.102707">
        <ele>90.0</ele>
        <time>2012-03-02T16:17:55Z</time>
      </trkpt>
      <trkpt lat="43.491938" lon="-6.102896">
        <ele>87.0</ele>
        <time>2012-03-02T16:17:59Z</time>
      </trkpt>
      <trkpt lat="43.491845" lon="-6.103193">
        <ele>87.0</ele>
        <time>2012-03-02T16:18:03Z</time>
      </trkpt>
      <trkpt lat="43.491588" lon="-6.103145">
        <ele>86.0</ele>
        <time>2012-03-02T16:18:07Z</time>
      </trkpt>
      <trkpt lat="43.491329" lon="-6.103277">
        <ele>85.0</ele>
        <time>2012-03-02T16:18:11Z</time>
      </trkpt>
      <trkpt lat="43.491076" lon="-6.103505">
        <ele>83.0</ele>
        <time>2012-03-02T16:18:15Z</time>
      </trkpt>
      <trkpt lat="43.490814" lon="-6.103729">
        <ele>81.0</ele>
        <time>2012-03-02T16:18:19Z</time>
      </trkpt>
      <trkpt lat="43.490558" lon="-6.103954">
        <ele>79.0</ele>
        <time>2012-03-02T16:18:23Z</time>
      </trkpt>
      <trkpt lat="43.490299" lon="-6.104177">
        <ele>78.0</ele>
        <time>2012-03-02T16:18:27Z</time>
      </trkpt>
      <trkpt lat="43.490029" lon="-6.104408">
        <ele>78.0</ele>
        <time>2012-03-02T16:18:31Z</time>
      </trkpt>
      <trkpt lat="43.489755" lon="-6.104647">
        <ele>77.0</ele>
        <time>2012-03-02T16:18:35Z</time>
      </trkpt>
      <trkpt lat="43.48947" lon="-6.104879">
        <ele>76.0</ele>
        <time>2012-03-02T16:18:39Z</time>
      </trkpt>
      <trkpt lat="43.489177" lon="-6.105107">
        <ele>76.0</ele>
        <time>2012-03-02T16:18:43Z</time>
      </trkpt>
      <trkpt lat="43.488852" lon="-6.105233">
        <ele>75.0</ele>
        <time>2012-03-02T16:18:47Z</time>
      </trkpt>
      <trkpt lat="43.488501" lon="-6.105206">
        <ele>74.0</ele>
        <time>2012-03-02T16:18:51Z</time>
      </trkpt>
      <trkpt lat="43.488163" lon="-6.104995">
        <ele>74.0</ele>
        <time>2012-03-02T16:18:55Z</time>
      </trkpt>
      <trkpt lat="43.487859" lon="-6.104721">
        <ele>75.0</ele>
        <time>2012-03-02T16:18:59Z</time>
      </trkpt>
      <trkpt lat="43.487571" lon="-6.104455">
        <ele>76.0</ele>
        <time>2012-03-02T16:19:03Z</time>
      </trkpt>
      <trkpt lat="43.487292" lon="-6.104235">
        <ele>76.0</ele>
        <time>2012-03-02T16:19:07Z</time>
      </trkpt>
      <trkpt lat="43.487002" lon="-6.10407">
        <ele>75.0</ele>
        <time>2012-03-02T16:19:11Z</time>
      </trkpt>
      <trkpt lat="43.4867" lon="-6.103954">
        <ele>74.0</ele>
        <time>2012-03-02T16:19:15Z</time>
      </trkpt>
      <trkpt lat="43.486393" lon="-6.103874">
        <ele>73.0</ele>
        <time>2012-03-02T16:19:19Z</time>
      </trkpt>
      <trkpt lat="43.486081" lon="-6.103808">
        <ele>73.0</ele>
        <time>2012-03-02T16:19:23Z</time>
      </trkpt>
      <trkpt lat="43.485764" lon="-6.103743">
        <ele>73.0</ele>
        <time>2012-03-02T16:19:27Z</time>
      </trkpt>
      <trkpt lat="43.485446" lon="-6.103675">
        <ele>72.0</ele>
        <time>2012-03-02T16:19:31Z</time>
      </trkpt>
      <trkpt lat="43.485131" lon="-6.10361">
        <ele>72.0</ele>
        <time>2012-03-02T16:19:35Z</time>
      </trkpt>
      <trkpt lat="43.484975" lon="-6.103586">
        <ele>72.0</ele>
        <time>2012-03-02T16:19:37Z</time>
      </trkpt>
      <trkpt lat="43.484503" lon="-6.103584">
        <ele>72.0</ele>
        <time>2012-03-02T16:19:43Z</time>
      </trkpt>
      <trkpt lat="43.484188" lon="-6.103657">
        <ele>72.0</ele>
        <time>2012-03-02T16:19:47Z</time>
      </trkpt>
      <trkpt lat="43.483881" lon="-6.10379">
        <ele>73.0</ele>
        <time>2012-03-02T16:19:51Z</time>
      </trkpt>
      <trkpt lat="43.483584" lon="-6.103988">
        <ele>73.0</ele>
        <time>2012-03-02T16:19:55Z</time>
      </trkpt>
      <trkpt lat="43.48331" lon="-6.104243">
        <ele>73.0</ele>
        <time>2012-03-02T16:19:59Z</time>
      </trkpt>
      <trkpt lat="43.483061" lon="-6.104552">
        <ele>74.0</ele>
        <time>2012-03-02T16:20:03Z</time>
      </trkpt>
      <trkpt lat="43.482829" lon="-6.104871">
        <ele>75.0</ele>
        <time>2012-03-02T16:20:07Z</time>
      </trkpt>
      <trkpt lat="43.4826" lon="-6.105183">
        <ele>75.0</ele>
        <time>2012-03-02T16:20:11Z</time>
      </trkpt>
      <trkpt lat="43.482354" lon="-6.105464">
        <ele>75.0</ele>
        <time>2012-03-02T16:20:15Z</time>
      </trkpt>
      <trkpt lat="43.482082" lon="-6.105697">
        <ele>75.0</ele>
        <time>2012-03-02T16:20:19Z</time>
      </trkpt>
      <trkpt lat="43.481797" lon="-6.105872">
        <ele>75.0</ele>
        <time>2012-03-02T16:20:23Z</time>
      </trkpt>
      <trkpt lat="43.481502" lon="-6.105994">
        <ele>75.0</ele>
        <time>2012-03-02T16:20:27Z</time>
      </trkpt>
      <trkpt lat="43.481197" lon="-6.106064">
        <ele>76.0</ele>
        <time>2012-03-02T16:20:31Z</time>
      </trkpt>
      <trkpt lat="43.480882" lon="-6.106081">
        <ele>76.0</ele>
        <time>2012-03-02T16:20:35Z</time>
      </trkpt>
      <trkpt lat="43.48056" lon="-6.106049">
        <ele>77.0</ele>
        <time>2012-03-02T16:20:39Z</time>
      </trkpt>
      <trkpt lat="43.480243" lon="-6.10596">
        <ele>77.0</ele>
        <time>2012-03-02T16:20:43Z</time>
      </trkpt>
      <trkpt lat="43.479936" lon="-6.105816">
        <ele>76.0</ele>
        <time>2012-03-02T16:20:47Z</time>
      </trkpt>
      <trkpt lat="43.479642" lon="-6.105613">
        <ele>77.0</ele>
        <time>2012-03-02T16:20:51Z</time>
      </trkpt>
      <trkpt lat="43.479366" lon="-6.105366">
        <ele>77.0</ele>
        <time>2012-03-02T16:20:55Z</time>
      </trkpt>
      <trkpt lat="43.479103" lon="-6.105113">
        <ele>77.0</ele>
        <time>2012-03-02T16:20:59Z</time>
      </trkpt>
      <trkpt lat="43.478844" lon="-6.104867">
        <ele>78.0</ele>
        <time>2012-03-02T16:21:03Z</time>
      </trkpt>
      <trkpt lat="43.47858" lon="-6.10466">
        <ele>79.0</ele>
        <time>2012-03-02T16:21:07Z</time>
      </trkpt>
      <trkpt lat="43.478305" lon="-6.104518">
        <ele>79.0</ele>
        <time>2012-03-02T16:21:11Z</time>
      </trkpt>
      <trkpt lat="43.47802" lon="-6.104424">
        <ele>80.0</ele>
        <time>2012-03-02T16:21:15Z</time>
      </trkpt>
      <trkpt lat="43.477803" lon="-6.104388">
        <ele>79.0</ele>
        <time>2012-03-02T16:21:18Z</time>
      </trkpt>
      <trkpt lat="43.477446" lon="-6.104392">
        <ele>79.0</ele>
        <time>2012-03-02T16:21:23Z</time>
      </trkpt>
      <trkpt lat="43.477173" lon="-6.104465">
        <ele>79.0</ele>
        <time>2012-03-02T16:21:27Z</time>
      </trkpt>
      <trkpt lat="43.476914" lon="-6.104571">
        <ele>79.0</ele>
        <time>2012-03-02T16:21:31Z</time>
      </trkpt>
      <trkpt lat="43.476663" lon="-6.104719">
        <ele>79.0</ele>
        <time>2012-03-02T16:21:35Z</time>
      </trkpt>
      <trkpt lat="43.47641" lon="-6.104917">
        <ele>79.0</ele>
        <time>2012-03-02T16:21:39Z</time>
      </trkpt>
      <trkpt lat="43.476168" lon="-6.10517">
        <ele>79.0</ele>
        <time>2012-03-02T16:21:43Z</time>
      </trkpt>
      <trkpt lat="43.475943" lon="-6.105474">
        <ele>80.0</ele>
        <time>2012-03-02T16:21:47Z</time>
      </trkpt>
      <trkpt lat="43.475739" lon="-6.105827">
        <ele>80.0</ele>
        <time>2012-03-02T16:21:51Z</time>
      </trkpt>
      <trkpt lat="43.475524" lon="-6.106196">
        <ele>80.0</ele>
        <time>2012-03-02T16:21:55Z</time>
      </trkpt>
      <trkpt lat="43.47529" lon="-6.106581">
        <ele>81.0</ele>
        <time>2012-03-02T16:21:59Z</time>
      </trkpt>
      <trkpt lat="43.475067" lon="-6.106993">
        <ele>82.0</ele>
        <time>2012-03-02T16:22:03Z</time>
      </trkpt>
      <trkpt lat="43.474839" lon="-6.107414">
        <ele>83.0</ele>
        <time>2012-03-02T16:22:07Z</time>
      </trkpt>
      <trkpt lat="43.474664" lon="-6.107723">
        <ele>83.0</ele>
        <time>2012-03-02T16:22:10Z</time>
      </trkpt>
      <trkpt lat="43.474409" lon="-6.108095">
        <ele>84.0</ele>
        <time>2012-03-02T16:22:14Z</time>
      </trkpt>
      <trkpt lat="43.474047" lon="-6.108493">
        <ele>85.0</ele>
        <time>2012-03-02T16:22:19Z</time>
      </trkpt>
      <trkpt lat="43.473817" lon="-6.108708">
        <ele>85.0</ele>
        <time>2012-03-02T16:22:22Z</time>
      </trkpt>
      <trkpt lat="43.473512" lon="-6.108995">
        <ele>86.0</ele>
        <time>2012-03-02T16:22:26Z</time>
      </trkpt>
      <trkpt lat="43.473246" lon="-6.109311">
        <ele>86.0</ele>
        <time>2012-03-02T16:22:30Z</time>
      </trkpt>
      <trkpt lat="43.473022" lon="-6.109648">
        <ele>86.0</ele>
        <time>2012-03-02T16:22:34Z</time>
      </trkpt>
      <trkpt lat="43.472824" lon="-6.110019">
        <ele>86.0</ele>
        <time>2012-03-02T16:22:38Z</time>
      </trkpt>
      <trkpt lat="43.472634" lon="-6.110387">
        <ele>86.0</ele>
        <time>2012-03-02T16:22:42Z</time>
      </trkpt>
      <trkpt lat="43.472451" lon="-6.11073">
        <ele>86.0</ele>
        <time>2012-03-02T16:22:46Z</time>
      </trkpt>
      <trkpt lat="43.472263" lon="-6.11107">
        <ele>86.0</ele>
        <time>2012-03-02T16:22:50Z</time>
      </trkpt>
      <trkpt lat="43.472164" lon="-6.111245">
        <ele>87.0</ele>
        <time>2012-03-02T16:22:52Z</time>
      </trkpt>
      <trkpt lat="43.471867" lon="-6.111777">
        <ele>88.0</ele>
        <time>2012-03-02T16:22:58Z</time>
      </trkpt>
      <trkpt lat="43.47161" lon="-6.112211">
        <ele>89.0</ele>
        <time>2012-03-02T16:23:03Z</time>
      </trkpt>
      <trkpt lat="43.471385" lon="-6.112534">
        <ele>89.0</ele>
        <time>2012-03-02T16:23:07Z</time>
      </trkpt>
      <trkpt lat="43.471144" lon="-6.112835">
        <ele>89.0</ele>
        <time>2012-03-02T16:23:11Z</time>
      </trkpt>
      <trkpt lat="43.470887" lon="-6.113095">
        <ele>89.0</ele>
        <time>2012-03-02T16:23:15Z</time>
      </trkpt>
      <trkpt lat="43.470634" lon="-6.113336">
        <ele>90.0</ele>
        <time>2012-03-02T16:23:19Z</time>
      </trkpt>
      <trkpt lat="43.47036" lon="-6.113532">
        <ele>90.0</ele>
        <time>2012-03-02T16:23:23Z</time>
      </trkpt>
      <trkpt lat="43.47008" lon="-6.113724">
        <ele>90.0</ele>
        <time>2012-03-02T16:23:27Z</time>
      </trkpt>
      <trkpt lat="43.469803" lon="-6.113918">
        <ele>90.0</ele>
        <time>2012-03-02T16:23:31Z</time>
      </trkpt>
      <trkpt lat="43.46953" lon="-6.114116">
        <ele>91.0</ele>
        <time>2012-03-02T16:23:35Z</time>
      </trkpt>
      <trkpt lat="43.469264" lon="-6.114334">
        <ele>91.0</ele>
        <time>2012-03-02T16:23:39Z</time>
      </trkpt>
      <trkpt lat="43.469007" lon="-6.11458">
        <ele>91.0</ele>
        <time>2012-03-02T16:23:43Z</time>
      </trkpt>
      <trkpt lat="43.46877" lon="-6.114868">
        <ele>91.0</ele>
        <time>2012-03-02T16:23:47Z</time>
      </trkpt>
      <trkpt lat="43.468564" lon="-6.115194">
        <ele>91.0</ele>
        <time>2012-03-02T16:23:51Z</time>
      </trkpt>
      <trkpt lat="43.468429" lon="-6.115451">
        <ele>91.0</ele>
        <time>2012-03-02T16:23:54Z</time>
      </trkpt>
      <trkpt lat="43.468238" lon="-6.115907">
        <ele>91.0</ele>
        <time>2012-03-02T16:23:59Z</time>
      </trkpt>
      <trkpt lat="43.46811" lon="-6.116288">
        <ele>91.0</ele>
        <time>2012-03-02T16:24:03Z</time>
      </trkpt>
      <trkpt lat="43.467991" lon="-6.116668">
        <ele>92.0</ele>
        <time>2012-03-02T16:24:07Z</time>
      </trkpt>
      <trkpt lat="43.467862" lon="-6.117026">
        <ele>93.0</ele>
        <time>2012-03-02T16:24:11Z</time>
      </trkpt>
      <trkpt lat="43.46771" lon="-6.11736">
        <ele>93.0</ele>
        <time>2012-03-02T16:24:15Z</time>
      </trkpt>
      <trkpt lat="43.467575" lon="-6.1176">
        <ele>93.0</ele>
        <time>2012-03-02T16:24:18Z</time>
      </trkpt>
      <trkpt lat="43.467319" lon="-6.117964">
        <ele>93.0</ele>
        <time>2012-03-02T16:24:23Z</time>
      </trkpt>
      <trkpt lat="43.467098" lon="-6.118233">
        <ele>94.0</ele>
        <time>2012-03-02T16:24:27Z</time>
      </trkpt>
      <trkpt lat="43.466878" lon="-6.118507">
        <ele>94.0</ele>
        <time>2012-03-02T16:24:31Z</time>
      </trkpt>
      <trkpt lat="43.466767" lon="-6.118642">
        <ele>94.0</ele>
        <time>2012-03-02T16:24:33Z</time>
      </trkpt>
      <trkpt lat="43.466438" lon="-6.119102">
        <ele>95.0</ele>
        <time>2012-03-02T16:24:39Z</time>
      </trkpt>
      <trkpt lat="43.466295" lon="-6.119369">
        <ele>95.0</ele>
        <time>2012-03-02T16:24:42Z</time>
      </trkpt>
      <trkpt lat="43.466101" lon="-6.119839">
        <ele>95.0</ele>
        <time>2012-03-02T16:24:47Z</time>
      </trkpt>
      <trkpt lat="43.46597" lon="-6.120238">
        <ele>95.0</ele>
        <time>2012-03-02T16:24:51Z</time>
      </trkpt>
      <trkpt lat="43.465841" lon="-6.120643">
        <ele>95.0</ele>
        <time>2012-03-02T16:24:55Z</time>
      </trkpt>
      <trkpt lat="43.465703" lon="-6.121038">
        <ele>96.0</ele>
        <time>2012-03-02T16:24:59Z</time>
      </trkpt>
      <trkpt lat="43.465554" lon="-6.121409">
        <ele>96.0</ele>
        <time>2012-03-02T16:25:03Z</time>
      </trkpt>
      <trkpt lat="43.465385" lon="-6.121758">
        <ele>97.0</ele>
        <time>2012-03-02T16:25:07Z</time>
      </trkpt>
      <trkpt lat="43.465202" lon="-6.122087">
        <ele>97.0</ele>
        <time>2012-03-02T16:25:11Z</time>
      </trkpt>
      <trkpt lat="43.464998" lon="-6.122398">
        <ele>97.0</ele>
        <time>2012-03-02T16:25:15Z</time>
      </trkpt>
      <trkpt lat="43.464889" lon="-6.122547">
        <ele>97.0</ele>
        <time>2012-03-02T16:25:17Z</time>
      </trkpt>
      <trkpt lat="43.46454" lon="-6.122978">
        <ele>97.0</ele>
        <time>2012-03-02T16:25:23Z</time>
      </trkpt>
      <trkpt lat="43.464297" lon="-6.123231">
        <ele>97.0</ele>
        <time>2012-03-02T16:25:27Z</time>
      </trkpt>
      <trkpt lat="43.46404" lon="-6.123474">
        <ele>97.0</ele>
        <time>2012-03-02T16:25:31Z</time>
      </trkpt>
      <trkpt lat="43.463846" lon="-6.12365">
        <ele>97.0</ele>
        <time>2012-03-02T16:25:34Z</time>
      </trkpt>
      <trkpt lat="43.463521" lon="-6.123948">
        <ele>97.0</ele>
        <time>2012-03-02T16:25:39Z</time>
      </trkpt>
      <trkpt lat="43.463261" lon="-6.124184">
        <ele>97.0</ele>
        <time>2012-03-02T16:25:43Z</time>
      </trkpt>
      <trkpt lat="43.463001" lon="-6.124419">
        <ele>97.0</ele>
        <time>2012-03-02T16:25:47Z</time>
      </trkpt>
      <trkpt lat="43.462139" lon="-6.125095">
        <ele>96.0</ele>
        <time>2012-03-02T16:25:59Z</time>
      </trkpt>
      <trkpt lat="43.461871" lon="-6.125319">
        <ele>94.0</ele>
        <time>2012-03-02T16:26:03Z</time>
      </trkpt>
      <trkpt lat="43.461606" lon="-6.125524">
        <ele>93.0</ele>
        <time>2012-03-02T16:26:07Z</time>
      </trkpt>
      <trkpt lat="43.461344" lon="-6.125756">
        <ele>91.0</ele>
        <time>2012-03-02T16:26:11Z</time>
      </trkpt>
      <trkpt lat="43.4611" lon="-6.126046">
        <ele>91.0</ele>
        <time>2012-03-02T16:26:15Z</time>
      </trkpt>
      <trkpt lat="43.460888" lon="-6.126387">
        <ele>90.0</ele>
        <time>2012-03-02T16:26:19Z</time>
      </trkpt>
      <trkpt lat="43.460714" lon="-6.12677">
        <ele>88.0</ele>
        <time>2012-03-02T16:26:23Z</time>
      </trkpt>
      <trkpt lat="43.460565" lon="-6.127164">
        <ele>85.0</ele>
        <time>2012-03-02T16:26:27Z</time>
      </trkpt>
      <trkpt lat="43.46042" lon="-6.127541">
        <ele>84.0</ele>
        <time>2012-03-02T16:26:31Z</time>
      </trkpt>
      <trkpt lat="43.46027" lon="-6.127911">
        <ele>83.0</ele>
        <time>2012-03-02T16:26:35Z</time>
      </trkpt>
      <trkpt lat="43.460108" lon="-6.128264">
        <ele>82.0</ele>
        <time>2012-03-02T16:26:39Z</time>
      </trkpt>
      <trkpt lat="43.45993" lon="-6.1286">
        <ele>81.0</ele>
        <time>2012-03-02T16:26:43Z</time>
      </trkpt>
      <trkpt lat="43.459732" lon="-6.128915">
        <ele>81.0</ele>
        <time>2012-03-02T16:26:47Z</time>
      </trkpt>
      <trkpt lat="43.459514" lon="-6.12921">
        <ele>80.0</ele>
        <time>2012-03-02T16:26:51Z</time>
      </trkpt>
      <trkpt lat="43.459279" lon="-6.129493">
        <ele>80.0</ele>
        <time>2012-03-02T16:26:55Z</time>
      </trkpt>
      <trkpt lat="43.459042" lon="-6.129769">
        <ele>80.0</ele>
        <time>2012-03-02T16:26:59Z</time>
      </trkpt>
      <trkpt lat="43.458803" lon="-6.130037">
        <ele>80.0</ele>
        <time>2012-03-02T16:27:03Z</time>
      </trkpt>
      <trkpt lat="43.458567" lon="-6.13031">
        <ele>80.0</ele>
        <time>2012-03-02T16:27:07Z</time>
      </trkpt>
      <trkpt lat="43.458329" lon="-6.13058">
        <ele>80.0</ele>
        <time>2012-03-02T16:27:11Z</time>
      </trkpt>
      <trkpt lat="43.458088" lon="-6.130854">
        <ele>79.0</ele>
        <time>2012-03-02T16:27:15Z</time>
      </trkpt>
      <trkpt lat="43.457847" lon="-6.131129">
        <ele>79.0</ele>
        <time>2012-03-02T16:27:19Z</time>
      </trkpt>
      <trkpt lat="43.457604" lon="-6.131398">
        <ele>79.0</ele>
        <time>2012-03-02T16:27:23Z</time>
      </trkpt>
      <trkpt lat="43.457367" lon="-6.131668">
        <ele>79.0</ele>
        <time>2012-03-02T16:27:27Z</time>
      </trkpt>
      <trkpt lat="43.457135" lon="-6.131932">
        <ele>79.0</ele>
        <time>2012-03-02T16:27:31Z</time>
      </trkpt>
      <trkpt lat="43.456907" lon="-6.132194">
        <ele>79.0</ele>
        <time>2012-03-02T16:27:35Z</time>
      </trkpt>
      <trkpt lat="43.45668" lon="-6.132464">
        <ele>80.0</ele>
        <time>2012-03-02T16:27:39Z</time>
      </trkpt>
      <trkpt lat="43.45645" lon="-6.132737">
        <ele>80.0</ele>
        <time>2012-03-02T16:27:43Z</time>
      </trkpt>
      <trkpt lat="43.456219" lon="-6.133022">
        <ele>80.0</ele>
        <time>2012-03-02T16:27:47Z</time>
      </trkpt>
      <trkpt lat="43.455992" lon="-6.133313">
        <ele>81.0</ele>
        <time>2012-03-02T16:27:51Z</time>
      </trkpt>
      <trkpt lat="43.455763" lon="-6.133612">
        <ele>81.0</ele>
        <time>2012-03-02T16:27:55Z</time>
      </trkpt>
      <trkpt lat="43.455536" lon="-6.133909">
        <ele>82.0</ele>
        <time>2012-03-02T16:27:59Z</time>
      </trkpt>
      <trkpt lat="43.455312" lon="-6.134206">
        <ele>82.0</ele>
        <time>2012-03-02T16:28:03Z</time>
      </trkpt>
      <trkpt lat="43.455087" lon="-6.134497">
        <ele>83.0</ele>
        <time>2012-03-02T16:28:07Z</time>
      </trkpt>
      <trkpt lat="43.454844" lon="-6.134763">
        <ele>83.0</ele>
        <time>2012-03-02T16:28:11Z</time>
      </trkpt>
      <trkpt lat="43.454577" lon="-6.134987">
        <ele>83.0</ele>
        <time>2012-03-02T16:28:15Z</time>
      </trkpt>
      <trkpt lat="43.454299" lon="-6.135172">
        <ele>83.0</ele>
        <time>2012-03-02T16:28:19Z</time>
      </trkpt>
      <trkpt lat="43.454028" lon="-6.13534">
        <ele>83.0</ele>
        <time>2012-03-02T16:28:23Z</time>
      </trkpt>
      <trkpt lat="43.453754" lon="-6.135501">
        <ele>83.0</ele>
        <time>2012-03-02T16:28:27Z</time>
      </trkpt>
      <trkpt lat="43.453479" lon="-6.135661">
        <ele>84.0</ele>
        <time>2012-03-02T16:28:31Z</time>
      </trkpt>
      <trkpt lat="43.453188" lon="-6.135792">
        <ele>84.0</ele>
        <time>2012-03-02T16:28:35Z</time>
      </trkpt>
      <trkpt lat="43.452885" lon="-6.135871">
        <ele>85.0</ele>
        <time>2012-03-02T16:28:39Z</time>
      </trkpt>
      <trkpt lat="43.452574" lon="-6.135892">
        <ele>85.0</ele>
        <time>2012-03-02T16:28:43Z</time>
      </trkpt>
      <trkpt lat="43.452264" lon="-6.135853">
        <ele>86.0</ele>
        <time>2012-03-02T16:28:47Z</time>
      </trkpt>
      <trkpt lat="43.451959" lon="-6.135764">
        <ele>85.0</ele>
        <time>2012-03-02T16:28:51Z</time>
      </trkpt>
      <trkpt lat="43.45167" lon="-6.135611">
        <ele>86.0</ele>
        <time>2012-03-02T16:28:55Z</time>
      </trkpt>
      <trkpt lat="43.451405" lon="-6.135417">
        <ele>86.0</ele>
        <time>2012-03-02T16:28:59Z</time>
      </trkpt>
      <trkpt lat="43.451171" lon="-6.135198">
        <ele>86.0</ele>
        <time>2012-03-02T16:29:03Z</time>
      </trkpt>
      <trkpt lat="43.450964" lon="-6.13498">
        <ele>87.0</ele>
        <time>2012-03-02T16:29:07Z</time>
      </trkpt>
      <trkpt lat="43.450772" lon="-6.134776">
        <ele>87.0</ele>
        <time>2012-03-02T16:29:11Z</time>
      </trkpt>
      <trkpt lat="43.450578" lon="-6.134586">
        <ele>87.0</ele>
        <time>2012-03-02T16:29:15Z</time>
      </trkpt>
      <trkpt lat="43.450369" lon="-6.134408">
        <ele>88.0</ele>
        <time>2012-03-02T16:29:19Z</time>
      </trkpt>
      <trkpt lat="43.45014" lon="-6.134258">
        <ele>88.0</ele>
        <time>2012-03-02T16:29:23Z</time>
      </trkpt>
      <trkpt lat="43.449892" lon="-6.13413">
        <ele>88.0</ele>
        <time>2012-03-02T16:29:27Z</time>
      </trkpt>
      <trkpt lat="43.449629" lon="-6.134008">
        <ele>88.0</ele>
        <time>2012-03-02T16:29:31Z</time>
      </trkpt>
      <trkpt lat="43.449353" lon="-6.133881">
        <ele>88.0</ele>
        <time>2012-03-02T16:29:35Z</time>
      </trkpt>
      <trkpt lat="43.449062" lon="-6.133752">
        <ele>88.0</ele>
        <time>2012-03-02T16:29:39Z</time>
      </trkpt>
      <trkpt lat="43.448758" lon="-6.133632">
        <ele>88.0</ele>
        <time>2012-03-02T16:29:43Z</time>
      </trkpt>
      <trkpt lat="43.448441" lon="-6.133525">
        <ele>88.0</ele>
        <time>2012-03-02T16:29:47Z</time>
      </trkpt>
      <trkpt lat="43.448127" lon="-6.133456">
        <ele>88.0</ele>
        <time>2012-03-02T16:29:51Z</time>
      </trkpt>
      <trkpt lat="43.447806" lon="-6.133423">
        <ele>88.0</ele>
        <time>2012-03-02T16:29:55Z</time>
      </trkpt>
      <trkpt lat="43.447484" lon="-6.133425">
        <ele>89.0</ele>
        <time>2012-03-02T16:29:59Z</time>
      </trkpt>
      <trkpt lat="43.447164" lon="-6.13346">
        <ele>89.0</ele>
        <time>2012-03-02T16:30:03Z</time>
      </trkpt>
      <trkpt lat="43.446851" lon="-6.133527">
        <ele>89.0</ele>
        <time>2012-03-02T16:30:07Z</time>
      </trkpt>
      <trkpt lat="43.446542" lon="-6.133631">
        <ele>89.0</ele>
        <time>2012-03-02T16:30:11Z</time>
      </trkpt>
      <trkpt lat="43.446235" lon="-6.133743">
        <ele>89.0</ele>
        <time>2012-03-02T16:30:15Z</time>
      </trkpt>
      <trkpt lat="43.445928" lon="-6.133874">
        <ele>89.0</ele>
        <time>2012-03-02T16:30:19Z</time>
      </trkpt>
      <trkpt lat="43.445622" lon="-6.134029">
        <ele>89.0</ele>
        <time>2012-03-02T16:30:23Z</time>
      </trkpt>
      <trkpt lat="43.445322" lon="-6.134205">
        <ele>89.0</ele>
        <time>2012-03-02T16:30:27Z</time>
      </trkpt>
      <trkpt lat="43.445026" lon="-6.13441">
        <ele>89.0</ele>
        <time>2012-03-02T16:30:31Z</time>
      </trkpt>
      <trkpt lat="43.444746" lon="-6.134672">
        <ele>89.0</ele>
        <time>2012-03-02T16:30:35Z</time>
      </trkpt>
      <trkpt lat="43.444488" lon="-6.134978">
        <ele>89.0</ele>
        <time>2012-03-02T16:30:39Z</time>
      </trkpt>
      <trkpt lat="43.444239" lon="-6.135289">
        <ele>89.0</ele>
        <time>2012-03-02T16:30:43Z</time>
      </trkpt>
      <trkpt lat="43.443978" lon="-6.135568">
        <ele>89.0</ele>
        <time>2012-03-02T16:30:47Z</time>
      </trkpt>
      <trkpt lat="43.443714" lon="-6.135839">
        <ele>88.0</ele>
        <time>2012-03-02T16:30:51Z</time>
      </trkpt>
      <trkpt lat="43.44344" lon="-6.136073">
        <ele>88.0</ele>
        <time>2012-03-02T16:30:55Z</time>
      </trkpt>
      <trkpt lat="43.443144" lon="-6.13625">
        <ele>88.0</ele>
        <time>2012-03-02T16:30:59Z</time>
      </trkpt>
      <trkpt lat="43.442827" lon="-6.136369">
        <ele>87.0</ele>
        <time>2012-03-02T16:31:03Z</time>
      </trkpt>
      <trkpt lat="43.442501" lon="-6.136434">
        <ele>87.0</ele>
        <time>2012-03-02T16:31:07Z</time>
      </trkpt>
      <trkpt lat="43.442176" lon="-6.136465">
        <ele>87.0</ele>
        <time>2012-03-02T16:31:11Z</time>
      </trkpt>
      <trkpt lat="43.44185" lon="-6.136492">
        <ele>87.0</ele>
        <time>2012-03-02T16:31:15Z</time>
      </trkpt>
      <trkpt lat="43.441526" lon="-6.13656">
        <ele>87.0</ele>
        <time>2012-03-02T16:31:19Z</time>
      </trkpt>
      <trkpt lat="43.44121" lon="-6.136689">
        <ele>87.0</ele>
        <time>2012-03-02T16:31:23Z</time>
      </trkpt>
      <trkpt lat="43.440916" lon="-6.13688">
        <ele>87.0</ele>
        <time>2012-03-02T16:31:27Z</time>
      </trkpt>
      <trkpt lat="43.440651" lon="-6.137126">
        <ele>87.0</ele>
        <time>2012-03-02T16:31:31Z</time>
      </trkpt>
      <trkpt lat="43.440415" lon="-6.137419">
        <ele>88.0</ele>
        <time>2012-03-02T16:31:35Z</time>
      </trkpt>
      <trkpt lat="43.440209" lon="-6.137754">
        <ele>88.0</ele>
        <time>2012-03-02T16:31:39Z</time>
      </trkpt>
      <trkpt lat="43.440028" lon="-6.138101">
        <ele>88.0</ele>
        <time>2012-03-02T16:31:43Z</time>
      </trkpt>
      <trkpt lat="43.439847" lon="-6.138446">
        <ele>88.0</ele>
        <time>2012-03-02T16:31:47Z</time>
      </trkpt>
      <trkpt lat="43.439651" lon="-6.138774">
        <ele>88.0</ele>
        <time>2012-03-02T16:31:51Z</time>
      </trkpt>
      <trkpt lat="43.439442" lon="-6.139091">
        <ele>88.0</ele>
        <time>2012-03-02T16:31:55Z</time>
      </trkpt>
      <trkpt lat="43.439233" lon="-6.139406">
        <ele>88.0</ele>
        <time>2012-03-02T16:31:59Z</time>
      </trkpt>
      <trkpt lat="43.439026" lon="-6.139719">
        <ele>89.0</ele>
        <time>2012-03-02T16:32:03Z</time>
      </trkpt>
      <trkpt lat="43.438822" lon="-6.140024">
        <ele>89.0</ele>
        <time>2012-03-02T16:32:07Z</time>
      </trkpt>
      <trkpt lat="43.438619" lon="-6.140327">
        <ele>89.0</ele>
        <time>2012-03-02T16:32:11Z</time>
      </trkpt>
      <trkpt lat="43.438404" lon="-6.140611">
        <ele>89.0</ele>
        <time>2012-03-02T16:32:15Z</time>
      </trkpt>
      <trkpt lat="43.438179" lon="-6.140885">
        <ele>89.0</ele>
        <time>2012-03-02T16:32:19Z</time>
      </trkpt>
      <trkpt lat="43.438004" lon="-6.141075">
        <ele>90.0</ele>
        <time>2012-03-02T16:32:22Z</time>
      </trkpt>
      <trkpt lat="43.43771" lon="-6.141366">
        <ele>90.0</ele>
        <time>2012-03-02T16:32:27Z</time>
      </trkpt>
      <trkpt lat="43.437461" lon="-6.141567">
        <ele>90.0</ele>
        <time>2012-03-02T16:32:31Z</time>
      </trkpt>
      <trkpt lat="43.437203" lon="-6.141748">
        <ele>90.0</ele>
        <time>2012-03-02T16:32:35Z</time>
      </trkpt>
      <trkpt lat="43.436935" lon="-6.141905">
        <ele>90.0</ele>
        <time>2012-03-02T16:32:39Z</time>
      </trkpt>
      <trkpt lat="43.436663" lon="-6.142055">
        <ele>90.0</ele>
        <time>2012-03-02T16:32:43Z</time>
      </trkpt>
      <trkpt lat="43.436394" lon="-6.142199">
        <ele>90.0</ele>
        <time>2012-03-02T16:32:47Z</time>
      </trkpt>
      <trkpt lat="43.436192" lon="-6.142304">
        <ele>90.0</ele>
        <time>2012-03-02T16:32:50Z</time>
      </trkpt>
      <trkpt lat="43.435845" lon="-6.142487">
        <ele>90.0</ele>
        <time>2012-03-02T16:32:55Z</time>
      </trkpt>
      <trkpt lat="43.435558" lon="-6.142649">
        <ele>91.0</ele>
        <time>2012-03-02T16:32:59Z</time>
      </trkpt>
      <trkpt lat="43.435267" lon="-6.142806">
        <ele>91.0</ele>
        <time>2012-03-02T16:33:03Z</time>
      </trkpt>
      <trkpt lat="43.434974" lon="-6.142955">
        <ele>92.0</ele>
        <time>2012-03-02T16:33:07Z</time>
      </trkpt>
      <trkpt lat="43.434667" lon="-6.14306">
        <ele>92.0</ele>
        <time>2012-03-02T16:33:11Z</time>
      </trkpt>
      <trkpt lat="43.434353" lon="-6.143116">
        <ele>92.0</ele>
        <time>2012-03-02T16:33:15Z</time>
      </trkpt>
      <trkpt lat="43.434028" lon="-6.143119">
        <ele>92.0</ele>
        <time>2012-03-02T16:33:19Z</time>
      </trkpt>
      <trkpt lat="43.433693" lon="-6.143081">
        <ele>92.0</ele>
        <time>2012-03-02T16:33:23Z</time>
      </trkpt>
      <trkpt lat="43.433355" lon="-6.143027">
        <ele>92.0</ele>
        <time>2012-03-02T16:33:27Z</time>
      </trkpt>
      <trkpt lat="43.433008" lon="-6.14299">
        <ele>92.0</ele>
        <time>2012-03-02T16:33:31Z</time>
      </trkpt>
      <trkpt lat="43.432633" lon="-6.142993">
        <ele>92.0</ele>
        <time>2012-03-02T16:33:35Z</time>
      </trkpt>
      <trkpt lat="43.432248" lon="-6.143074">
        <ele>92.0</ele>
        <time>2012-03-02T16:33:39Z</time>
      </trkpt>
      <trkpt lat="43.431872" lon="-6.143225">
        <ele>92.0</ele>
        <time>2012-03-02T16:33:43Z</time>
      </trkpt>
      <trkpt lat="43.431507" lon="-6.143403">
        <ele>92.0</ele>
        <time>2012-03-02T16:33:47Z</time>
      </trkpt>
      <trkpt lat="43.431146" lon="-6.143573">
        <ele>93.0</ele>
        <time>2012-03-02T16:33:51Z</time>
      </trkpt>
      <trkpt lat="43.430797" lon="-6.143743">
        <ele>93.0</ele>
        <time>2012-03-02T16:33:55Z</time>
      </trkpt>
      <trkpt lat="43.430463" lon="-6.143899">
        <ele>93.0</ele>
        <time>2012-03-02T16:33:59Z</time>
      </trkpt>
      <trkpt lat="43.430143" lon="-6.144056">
        <ele>93.0</ele>
        <time>2012-03-02T16:34:03Z</time>
      </trkpt>
      <trkpt lat="43.429838" lon="-6.144217">
        <ele>92.0</ele>
        <time>2012-03-02T16:34:07Z</time>
      </trkpt>
      <trkpt lat="43.429545" lon="-6.144401">
        <ele>92.0</ele>
        <time>2012-03-02T16:34:11Z</time>
      </trkpt>
      <trkpt lat="43.429264" lon="-6.144605">
        <ele>92.0</ele>
        <time>2012-03-02T16:34:15Z</time>
      </trkpt>
      <trkpt lat="43.428987" lon="-6.144814">
        <ele>92.0</ele>
        <time>2012-03-02T16:34:19Z</time>
      </trkpt>
      <trkpt lat="43.428705" lon="-6.145021">
        <ele>92.0</ele>
        <time>2012-03-02T16:34:23Z</time>
      </trkpt>
      <trkpt lat="43.428421" lon="-6.145227">
        <ele>92.0</ele>
        <time>2012-03-02T16:34:27Z</time>
      </trkpt>
      <trkpt lat="43.428142" lon="-6.145434">
        <ele>92.0</ele>
        <time>2012-03-02T16:34:31Z</time>
      </trkpt>
      <trkpt lat="43.42786" lon="-6.145642">
        <ele>92.0</ele>
        <time>2012-03-02T16:34:35Z</time>
      </trkpt>
      <trkpt lat="43.427573" lon="-6.145847">
        <ele>92.0</ele>
        <time>2012-03-02T16:34:39Z</time>
      </trkpt>
      <trkpt lat="43.427277" lon="-6.146037">
        <ele>93.0</ele>
        <time>2012-03-02T16:34:43Z</time>
      </trkpt>
      <trkpt lat="43.426965" lon="-6.146186">
        <ele>93.0</ele>
        <time>2012-03-02T16:34:47Z</time>
      </trkpt>
      <trkpt lat="43.426645" lon="-6.146288">
        <ele>93.0</ele>
        <time>2012-03-02T16:34:51Z</time>
      </trkpt>
      <trkpt lat="43.426324" lon="-6.146363">
        <ele>93.0</ele>
        <time>2012-03-02T16:34:55Z</time>
      </trkpt>
      <trkpt lat="43.426004" lon="-6.146428">
        <ele>93.0</ele>
        <time>2012-03-02T16:34:59Z</time>
      </trkpt>
      <trkpt lat="43.425686" lon="-6.146499">
        <ele>93.0</ele>
        <time>2012-03-02T16:35:03Z</time>
      </trkpt>
      <trkpt lat="43.425368" lon="-6.146589">
        <ele>94.0</ele>
        <time>2012-03-02T16:35:07Z</time>
      </trkpt>
      <trkpt lat="43.425053" lon="-6.146722">
        <ele>94.0</ele>
        <time>2012-03-02T16:35:11Z</time>
      </trkpt>
      <trkpt lat="43.424751" lon="-6.146912">
        <ele>94.0</ele>
        <time>2012-03-02T16:35:15Z</time>
      </trkpt>
      <trkpt lat="43.424471" lon="-6.14716">
        <ele>94.0</ele>
        <time>2012-03-02T16:35:19Z</time>
      </trkpt>
      <trkpt lat="43.424215" lon="-6.147449">
        <ele>94.0</ele>
        <time>2012-03-02T16:35:23Z</time>
      </trkpt>
      <trkpt lat="43.423987" lon="-6.147787">
        <ele>94.0</ele>
        <time>2012-03-02T16:35:27Z</time>
      </trkpt>
      <trkpt lat="43.423784" lon="-6.14815">
        <ele>94.0</ele>
        <time>2012-03-02T16:35:31Z</time>
      </trkpt>
      <trkpt lat="43.423594" lon="-6.148523">
        <ele>95.0</ele>
        <time>2012-03-02T16:35:35Z</time>
      </trkpt>
      <trkpt lat="43.423411" lon="-6.148879">
        <ele>95.0</ele>
        <time>2012-03-02T16:35:39Z</time>
      </trkpt>
      <trkpt lat="43.423216" lon="-6.149207">
        <ele>95.0</ele>
        <time>2012-03-02T16:35:43Z</time>
      </trkpt>
      <trkpt lat="43.422988" lon="-6.149495">
        <ele>96.0</ele>
        <time>2012-03-02T16:35:47Z</time>
      </trkpt>
      <trkpt lat="43.422719" lon="-6.149719">
        <ele>96.0</ele>
        <time>2012-03-02T16:35:51Z</time>
      </trkpt>
      <trkpt lat="43.422439" lon="-6.149915">
        <ele>97.0</ele>
        <time>2012-03-02T16:35:55Z</time>
      </trkpt>
      <trkpt lat="43.422141" lon="-6.150055">
        <ele>97.0</ele>
        <time>2012-03-02T16:35:59Z</time>
      </trkpt>
      <trkpt lat="43.421827" lon="-6.150125">
        <ele>98.0</ele>
        <time>2012-03-02T16:36:03Z</time>
      </trkpt>
      <trkpt lat="43.421511" lon="-6.150153">
        <ele>98.0</ele>
        <time>2012-03-02T16:36:07Z</time>
      </trkpt>
      <trkpt lat="43.421192" lon="-6.150125">
        <ele>98.0</ele>
        <time>2012-03-02T16:36:11Z</time>
      </trkpt>
      <trkpt lat="43.420877" lon="-6.150067">
        <ele>98.0</ele>
        <time>2012-03-02T16:36:15Z</time>
      </trkpt>
      <trkpt lat="43.420554" lon="-6.150017">
        <ele>98.0</ele>
        <time>2012-03-02T16:36:19Z</time>
      </trkpt>
      <trkpt lat="43.420231" lon="-6.149961">
        <ele>98.0</ele>
        <time>2012-03-02T16:36:23Z</time>
      </trkpt>
      <trkpt lat="43.419912" lon="-6.149921">
        <ele>98.0</ele>
        <time>2012-03-02T16:36:27Z</time>
      </trkpt>
      <trkpt lat="43.419601" lon="-6.14988">
        <ele>99.0</ele>
        <time>2012-03-02T16:36:31Z</time>
      </trkpt>
      <trkpt lat="43.419292" lon="-6.14983">
        <ele>99.0</ele>
        <time>2012-03-02T16:36:35Z</time>
      </trkpt>
      <trkpt lat="43.418981" lon="-6.149785">
        <ele>99.0</ele>
        <time>2012-03-02T16:36:39Z</time>
      </trkpt>
      <trkpt lat="43.41867" lon="-6.149744">
        <ele>99.0</ele>
        <time>2012-03-02T16:36:43Z</time>
      </trkpt>
      <trkpt lat="43.418358" lon="-6.149699">
        <ele>98.0</ele>
        <time>2012-03-02T16:36:47Z</time>
      </trkpt>
      <trkpt lat="43.418047" lon="-6.14965">
        <ele>98.0</ele>
        <time>2012-03-02T16:36:51Z</time>
      </trkpt>
      <trkpt lat="43.417729" lon="-6.149605">
        <ele>98.0</ele>
        <time>2012-03-02T16:36:55Z</time>
      </trkpt>
      <trkpt lat="43.417413" lon="-6.149556">
        <ele>98.0</ele>
        <time>2012-03-02T16:36:59Z</time>
      </trkpt>
      <trkpt lat="43.417095" lon="-6.14951">
        <ele>98.0</ele>
        <time>2012-03-02T16:37:03Z</time>
      </trkpt>
      <trkpt lat="43.416774" lon="-6.149464">
        <ele>98.0</ele>
        <time>2012-03-02T16:37:07Z</time>
      </trkpt>
      <trkpt lat="43.416452" lon="-6.149418">
        <ele>99.0</ele>
        <time>2012-03-02T16:37:11Z</time>
      </trkpt>
      <trkpt lat="43.416126" lon="-6.14937">
        <ele>99.0</ele>
        <time>2012-03-02T16:37:15Z</time>
      </trkpt>
      <trkpt lat="43.415801" lon="-6.149323">
        <ele>99.0</ele>
        <time>2012-03-02T16:37:19Z</time>
      </trkpt>
      <trkpt lat="43.415474" lon="-6.149277">
        <ele>99.0</ele>
        <time>2012-03-02T16:37:23Z</time>
      </trkpt>
      <trkpt lat="43.415147" lon="-6.149229">
        <ele>99.0</ele>
        <time>2012-03-02T16:37:27Z</time>
      </trkpt>
      <trkpt lat="43.414818" lon="-6.149179">
        <ele>99.0</ele>
        <time>2012-03-02T16:37:31Z</time>
      </trkpt>
      <trkpt lat="43.414489" lon="-6.149131">
        <ele>99.0</ele>
        <time>2012-03-02T16:37:35Z</time>
      </trkpt>
      <trkpt lat="43.414162" lon="-6.149078">
        <ele>99.0</ele>
        <time>2012-03-02T16:37:39Z</time>
      </trkpt>
      <trkpt lat="43.413841" lon="-6.149036">
        <ele>99.0</ele>
        <time>2012-03-02T16:37:43Z</time>
      </trkpt>
      <trkpt lat="43.413524" lon="-6.148991">
        <ele>99.0</ele>
        <time>2012-03-02T16:37:47Z</time>
      </trkpt>
      <trkpt lat="43.413209" lon="-6.148948">
        <ele>99.0</ele>
        <time>2012-03-02T16:37:51Z</time>
      </trkpt>
      <trkpt lat="43.412898" lon="-6.148919">
        <ele>98.0</ele>
        <time>2012-03-02T16:37:55Z</time>
      </trkpt>
      <trkpt lat="43.41259" lon="-6.148923">
        <ele>99.0</ele>
        <time>2012-03-02T16:37:59Z</time>
      </trkpt>
      <trkpt lat="43.412292" lon="-6.148949">
        <ele>99.0</ele>
        <time>2012-03-02T16:38:03Z</time>
      </trkpt>
      <trkpt lat="43.41201" lon="-6.148981">
        <ele>99.0</ele>
        <time>2012-03-02T16:38:07Z</time>
      </trkpt>
      <trkpt lat="43.411769" lon="-6.149038">
        <ele>99.0</ele>
        <time>2012-03-02T16:38:11Z</time>
      </trkpt>
      <trkpt lat="43.41163" lon="-6.149163">
        <ele>99.0</ele>
        <time>2012-03-02T16:38:15Z</time>
      </trkpt>
      <trkpt lat="43.411577" lon="-6.149243">
        <ele>99.0</ele>
        <time>2012-03-02T16:38:18Z</time>
      </trkpt>
      <trkpt lat="43.41145" lon="-6.149358">
        <ele>99.0</ele>
        <time>2012-03-02T16:38:23Z</time>
      </trkpt>
      <trkpt lat="43.411255" lon="-6.149337">
        <ele>99.0</ele>
        <time>2012-03-02T16:38:27Z</time>
      </trkpt>
      <trkpt lat="43.411013" lon="-6.149278">
        <ele>99.0</ele>
        <time>2012-03-02T16:38:31Z</time>
      </trkpt>
      <trkpt lat="43.41075" lon="-6.149285">
        <ele>99.0</ele>
        <time>2012-03-02T16:38:35Z</time>
      </trkpt>
      <trkpt lat="43.410479" lon="-6.149349">
        <ele>99.0</ele>
        <time>2012-03-02T16:38:39Z</time>
      </trkpt>
      <trkpt lat="43.410208" lon="-6.149415">
        <ele>99.0</ele>
        <time>2012-03-02T16:38:43Z</time>
      </trkpt>
      <trkpt lat="43.409937" lon="-6.149481">
        <ele>99.0</ele>
        <time>2012-03-02T16:38:47Z</time>
      </trkpt>
      <trkpt lat="43.40967" lon="-6.149545">
        <ele>100.0</ele>
        <time>2012-03-02T16:38:51Z</time>
      </trkpt>
      <trkpt lat="43.409408" lon="-6.149606">
        <ele>100.0</ele>
        <time>2012-03-02T16:38:55Z</time>
      </trkpt>
      <trkpt lat="43.40916" lon="-6.149659">
        <ele>100.0</ele>
        <time>2012-03-02T16:38:59Z</time>
      </trkpt>
      <trkpt lat="43.408905" lon="-6.149689">
        <ele>100.0</ele>
        <time>2012-03-02T16:39:03Z</time>
      </trkpt>
      <trkpt lat="43.408637" lon="-6.14968">
        <ele>101.0</ele>
        <time>2012-03-02T16:39:07Z</time>
      </trkpt>
      <trkpt lat="43.408346" lon="-6.149668">
        <ele>101.0</ele>
        <time>2012-03-02T16:39:11Z</time>
      </trkpt>
      <trkpt lat="43.408041" lon="-6.149711">
        <ele>101.0</ele>
        <time>2012-03-02T16:39:15Z</time>
      </trkpt>
      <trkpt lat="43.407732" lon="-6.1498">
        <ele>101.0</ele>
        <time>2012-03-02T16:39:19Z</time>
      </trkpt>
      <trkpt lat="43.407571" lon="-6.149849">
        <ele>101.0</ele>
        <time>2012-03-02T16:39:21Z</time>
      </trkpt>
      <trkpt lat="43.407073" lon="-6.150011">
        <ele>101.0</ele>
        <time>2012-03-02T16:39:27Z</time>
      </trkpt>
      <trkpt lat="43.406741" lon="-6.150148">
        <ele>102.0</ele>
        <time>2012-03-02T16:39:31Z</time>
      </trkpt>
      <trkpt lat="43.406422" lon="-6.150324">
        <ele>102.0</ele>
        <time>2012-03-02T16:39:35Z</time>
      </trkpt>
      <trkpt lat="43.406121" lon="-6.150524">
        <ele>102.0</ele>
        <time>2012-03-02T16:39:39Z</time>
      </trkpt>
      <trkpt lat="43.405837" lon="-6.150726">
        <ele>102.0</ele>
        <time>2012-03-02T16:39:43Z</time>
      </trkpt>
      <trkpt lat="43.405561" lon="-6.150891">
        <ele>102.0</ele>
        <time>2012-03-02T16:39:47Z</time>
      </trkpt>
      <trkpt lat="43.40528" lon="-6.150984">
        <ele>103.0</ele>
        <time>2012-03-02T16:39:51Z</time>
      </trkpt>
      <trkpt lat="43.404998" lon="-6.151009">
        <ele>103.0</ele>
        <time>2012-03-02T16:39:55Z</time>
      </trkpt>
      <trkpt lat="43.404731" lon="-6.150985">
        <ele>104.0</ele>
        <time>2012-03-02T16:39:59Z</time>
      </trkpt>
      <trkpt lat="43.404539" lon="-6.150959">
        <ele>104.0</ele>
        <time>2012-03-02T16:40:02Z</time>
      </trkpt>
      <trkpt lat="43.404293" lon="-6.150924">
        <ele>104.0</ele>
        <time>2012-03-02T16:40:06Z</time>
      </trkpt>
      <trkpt lat="43.404059" lon="-6.150882">
        <ele>104.0</ele>
        <time>2012-03-02T16:40:10Z</time>
      </trkpt>
      <trkpt lat="43.403831" lon="-6.150834">
        <ele>105.0</ele>
        <time>2012-03-02T16:40:14Z</time>
      </trkpt>
      <trkpt lat="43.403608" lon="-6.150769">
        <ele>105.0</ele>
        <time>2012-03-02T16:40:18Z</time>
      </trkpt>
      <trkpt lat="43.403384" lon="-6.150686">
        <ele>105.0</ele>
        <time>2012-03-02T16:40:22Z</time>
      </trkpt>
      <trkpt lat="43.403159" lon="-6.150588">
        <ele>106.0</ele>
        <time>2012-03-02T16:40:26Z</time>
      </trkpt>
      <trkpt lat="43.402867" lon="-6.150446">
        <ele>107.0</ele>
        <time>2012-03-02T16:40:31Z</time>
      </trkpt>
      <trkpt lat="43.402623" lon="-6.150328">
        <ele>107.0</ele>
        <time>2012-03-02T16:40:35Z</time>
      </trkpt>
      <trkpt lat="43.40235" lon="-6.150223">
        <ele>107.0</ele>
        <time>2012-03-02T16:40:39Z</time>
      </trkpt>
      <trkpt lat="43.402056" lon="-6.150174">
        <ele>108.0</ele>
        <time>2012-03-02T16:40:43Z</time>
      </trkpt>
      <trkpt lat="43.401748" lon="-6.150209">
        <ele>108.0</ele>
        <time>2012-03-02T16:40:47Z</time>
      </trkpt>
      <trkpt lat="43.40144" lon="-6.150329">
        <ele>108.0</ele>
        <time>2012-03-02T16:40:51Z</time>
      </trkpt>
      <trkpt lat="43.401215" lon="-6.150479">
        <ele>108.0</ele>
        <time>2012-03-02T16:40:54Z</time>
      </trkpt>
      <trkpt lat="43.40087" lon="-6.150801">
        <ele>109.0</ele>
        <time>2012-03-02T16:40:59Z</time>
      </trkpt>
      <trkpt lat="43.400594" lon="-6.151062">
        <ele>110.0</ele>
        <time>2012-03-02T16:41:03Z</time>
      </trkpt>
      <trkpt lat="43.400289" lon="-6.151247">
        <ele>111.0</ele>
        <time>2012-03-02T16:41:07Z</time>
      </trkpt>
      <trkpt lat="43.399961" lon="-6.151341">
        <ele>112.0</ele>
        <time>2012-03-02T16:41:11Z</time>
      </trkpt>
      <trkpt lat="43.399627" lon="-6.151338">
        <ele>112.0</ele>
        <time>2012-03-02T16:41:15Z</time>
      </trkpt>
      <trkpt lat="43.399308" lon="-6.151285">
        <ele>112.0</ele>
        <time>2012-03-02T16:41:19Z</time>
      </trkpt>
      <trkpt lat="43.399003" lon="-6.151221">
        <ele>112.0</ele>
        <time>2012-03-02T16:41:23Z</time>
      </trkpt>
      <trkpt lat="43.398688" lon="-6.151188">
        <ele>112.0</ele>
        <time>2012-03-02T16:41:27Z</time>
      </trkpt>
      <trkpt lat="43.398376" lon="-6.151193">
        <ele>112.0</ele>
        <time>2012-03-02T16:41:31Z</time>
      </trkpt>
      <trkpt lat="43.398067" lon="-6.151243">
        <ele>111.0</ele>
        <time>2012-03-02T16:41:35Z</time>
      </trkpt>
      <trkpt lat="43.397758" lon="-6.151326">
        <ele>111.0</ele>
        <time>2012-03-02T16:41:39Z</time>
      </trkpt>
      <trkpt lat="43.397449" lon="-6.151439">
        <ele>111.0</ele>
        <time>2012-03-02T16:41:43Z</time>
      </trkpt>
      <trkpt lat="43.39714" lon="-6.151556">
        <ele>111.0</ele>
        <time>2012-03-02T16:41:47Z</time>
      </trkpt>
      <trkpt lat="43.39683" lon="-6.151662">
        <ele>111.0</ele>
        <time>2012-03-02T16:41:51Z</time>
      </trkpt>
      <trkpt lat="43.396514" lon="-6.151706">
        <ele>111.0</ele>
        <time>2012-03-02T16:41:55Z</time>
      </trkpt>
      <trkpt lat="43.396193" lon="-6.151674">
        <ele>111.0</ele>
        <time>2012-03-02T16:41:59Z</time>
      </trkpt>
      <trkpt lat="43.395871" lon="-6.151639">
        <ele>112.0</ele>
        <time>2012-03-02T16:42:03Z</time>
      </trkpt>
      <trkpt lat="43.395556" lon="-6.151678">
        <ele>112.0</ele>
        <time>2012-03-02T16:42:07Z</time>
      </trkpt>
      <trkpt lat="43.395269" lon="-6.151804">
        <ele>113.0</ele>
        <time>2012-03-02T16:42:11Z</time>
      </trkpt>
      <trkpt lat="43.395012" lon="-6.152013">
        <ele>113.0</ele>
        <time>2012-03-02T16:42:15Z</time>
      </trkpt>
      <trkpt lat="43.394794" lon="-6.152283">
        <ele>113.0</ele>
        <time>2012-03-02T16:42:19Z</time>
      </trkpt>
      <trkpt lat="43.394606" lon="-6.152597">
        <ele>113.0</ele>
        <time>2012-03-02T16:42:23Z</time>
      </trkpt>
      <trkpt lat="43.394434" lon="-6.152927">
        <ele>114.0</ele>
        <time>2012-03-02T16:42:27Z</time>
      </trkpt>
      <trkpt lat="43.394267" lon="-6.153265">
        <ele>114.0</ele>
        <time>2012-03-02T16:42:31Z</time>
      </trkpt>
      <trkpt lat="43.394094" lon="-6.153608">
        <ele>115.0</ele>
        <time>2012-03-02T16:42:35Z</time>
      </trkpt>
      <trkpt lat="43.393914" lon="-6.153951">
        <ele>115.0</ele>
        <time>2012-03-02T16:42:39Z</time>
      </trkpt>
      <trkpt lat="43.3937" lon="-6.154277">
        <ele>115.0</ele>
        <time>2012-03-02T16:42:43Z</time>
      </trkpt>
      <trkpt lat="43.393441" lon="-6.15454">
        <ele>114.0</ele>
        <time>2012-03-02T16:42:47Z</time>
      </trkpt>
      <trkpt lat="43.393145" lon="-6.154724">
        <ele>114.0</ele>
        <time>2012-03-02T16:42:51Z</time>
      </trkpt>
      <trkpt lat="43.392829" lon="-6.154821">
        <ele>114.0</ele>
        <time>2012-03-02T16:42:55Z</time>
      </trkpt>
      <trkpt lat="43.392501" lon="-6.154839">
        <ele>115.0</ele>
        <time>2012-03-02T16:42:59Z</time>
      </trkpt>
      <trkpt lat="43.392195" lon="-6.154906">
        <ele>115.0</ele>
        <time>2012-03-02T16:43:03Z</time>
      </trkpt>
      <trkpt lat="43.391903" lon="-6.154975">
        <ele>115.0</ele>
        <time>2012-03-02T16:43:07Z</time>
      </trkpt>
      <trkpt lat="43.391734" lon="-6.154669">
        <ele>115.0</ele>
        <time>2012-03-02T16:43:11Z</time>
      </trkpt>
      <trkpt lat="43.391866" lon="-6.154322">
        <ele>115.0</ele>
        <time>2012-03-02T16:43:15Z</time>
      </trkpt>
      <trkpt lat="43.392144" lon="-6.15435">
        <ele>115.0</ele>
        <time>2012-03-02T16:43:19Z</time>
      </trkpt>
      <trkpt lat="43.392345" lon="-6.154656">
        <ele>115.0</ele>
        <time>2012-03-02T16:43:23Z</time>
      </trkpt>
      <trkpt lat="43.392639" lon="-6.15475">
        <ele>114.0</ele>
        <time>2012-03-02T16:43:27Z</time>
      </trkpt>
      <trkpt lat="43.392947" lon="-6.154709">
        <ele>114.0</ele>
        <time>2012-03-02T16:43:31Z</time>
      </trkpt>
      <trkpt lat="43.393244" lon="-6.154584">
        <ele>114.0</ele>
        <time>2012-03-02T16:43:35Z</time>
      </trkpt>
      <trkpt lat="43.39352" lon="-6.154378">
        <ele>114.0</ele>
        <time>2012-03-02T16:43:39Z</time>
      </trkpt>
      <trkpt lat="43.393765" lon="-6.15409">
        <ele>114.0</ele>
        <time>2012-03-02T16:43:43Z</time>
      </trkpt>
      <trkpt lat="43.39397" lon="-6.153745">
        <ele>113.0</ele>
        <time>2012-03-02T16:43:47Z</time>
      </trkpt>
      <trkpt lat="43.394147" lon="-6.153382">
        <ele>113.0</ele>
        <time>2012-03-02T16:43:51Z</time>
      </trkpt>
      <trkpt lat="43.394329" lon="-6.153013">
        <ele>112.0</ele>
        <time>2012-03-02T16:43:55Z</time>
      </trkpt>
      <trkpt lat="43.394516" lon="-6.152651">
        <ele>111.0</ele>
        <time>2012-03-02T16:43:59Z</time>
      </trkpt>
      <trkpt lat="43.394723" lon="-6.152302">
        <ele>111.0</ele>
        <time>2012-03-02T16:44:03Z</time>
      </trkpt>
      <trkpt lat="43.394962" lon="-6.151988">
        <ele>110.0</ele>
        <time>2012-03-02T16:44:07Z</time>
      </trkpt>
      <trkpt lat="43.395246" lon="-6.151746">
        <ele>109.0</ele>
        <time>2012-03-02T16:44:11Z</time>
      </trkpt>
      <trkpt lat="43.39557" lon="-6.151603">
        <ele>109.0</ele>
        <time>2012-03-02T16:44:15Z</time>
      </trkpt>
      <trkpt lat="43.395922" lon="-6.15156">
        <ele>109.0</ele>
        <time>2012-03-02T16:44:19Z</time>
      </trkpt>
      <trkpt lat="43.396273" lon="-6.151596">
        <ele>108.0</ele>
        <time>2012-03-02T16:44:23Z</time>
      </trkpt>
      <trkpt lat="43.396616" lon="-6.151617">
        <ele>107.0</ele>
        <time>2012-03-02T16:44:27Z</time>
      </trkpt>
      <trkpt lat="43.39695" lon="-6.151564">
        <ele>106.0</ele>
        <time>2012-03-02T16:44:31Z</time>
      </trkpt>
      <trkpt lat="43.397266" lon="-6.151451">
        <ele>106.0</ele>
        <time>2012-03-02T16:44:35Z</time>
      </trkpt>
      <trkpt lat="43.397565" lon="-6.151324">
        <ele>105.0</ele>
        <time>2012-03-02T16:44:39Z</time>
      </trkpt>
      <trkpt lat="43.397863" lon="-6.151214">
        <ele>104.0</ele>
        <time>2012-03-02T16:44:43Z</time>
      </trkpt>
      <trkpt lat="43.398158" lon="-6.15114">
        <ele>103.0</ele>
        <time>2012-03-02T16:44:47Z</time>
      </trkpt>
      <trkpt lat="43.398459" lon="-6.151106">
        <ele>103.0</ele>
        <time>2012-03-02T16:44:51Z</time>
      </trkpt>
      <trkpt lat="43.398768" lon="-6.151109">
        <ele>102.0</ele>
        <time>2012-03-02T16:44:55Z</time>
      </trkpt>
      <trkpt lat="43.399077" lon="-6.151145">
        <ele>102.0</ele>
        <time>2012-03-02T16:44:59Z</time>
      </trkpt>
      <trkpt lat="43.399385" lon="-6.151207">
        <ele>102.0</ele>
        <time>2012-03-02T16:45:03Z</time>
      </trkpt>
      <trkpt lat="43.39969" lon="-6.151246">
        <ele>101.0</ele>
        <time>2012-03-02T16:45:07Z</time>
      </trkpt>
      <trkpt lat="43.399991" lon="-6.15124">
        <ele>101.0</ele>
        <time>2012-03-02T16:45:11Z</time>
      </trkpt>
      <trkpt lat="43.400283" lon="-6.151185">
        <ele>100.0</ele>
        <time>2012-03-02T16:45:15Z</time>
      </trkpt>
      <trkpt lat="43.400551" lon="-6.151046">
        <ele>100.0</ele>
        <time>2012-03-02T16:45:19Z</time>
      </trkpt>
      <trkpt lat="43.400772" lon="-6.150821">
        <ele>99.0</ele>
        <time>2012-03-02T16:45:23Z</time>
      </trkpt>
      <trkpt lat="43.40098" lon="-6.150591">
        <ele>99.0</ele>
        <time>2012-03-02T16:45:27Z</time>
      </trkpt>
      <trkpt lat="43.40118" lon="-6.150382">
        <ele>99.0</ele>
        <time>2012-03-02T16:45:31Z</time>
      </trkpt>
      <trkpt lat="43.401392" lon="-6.150225">
        <ele>100.0</ele>
        <time>2012-03-02T16:45:35Z</time>
      </trkpt>
      <trkpt lat="43.401622" lon="-6.150121">
        <ele>100.0</ele>
        <time>2012-03-02T16:45:39Z</time>
      </trkpt>
      <trkpt lat="43.40187" lon="-6.150076">
        <ele>100.0</ele>
        <time>2012-03-02T16:45:43Z</time>
      </trkpt>
      <trkpt lat="43.402058" lon="-6.150061">
        <ele>100.0</ele>
        <time>2012-03-02T16:45:46Z</time>
      </trkpt>
      <trkpt lat="43.402372" lon="-6.150104">
        <ele>100.0</ele>
        <time>2012-03-02T16:45:51Z</time>
      </trkpt>
      <trkpt lat="43.402625" lon="-6.150208">
        <ele>100.0</ele>
        <time>2012-03-02T16:45:55Z</time>
      </trkpt>
      <trkpt lat="43.402891" lon="-6.150358">
        <ele>100.0</ele>
        <time>2012-03-02T16:45:59Z</time>
      </trkpt>
      <trkpt lat="43.403179" lon="-6.150514">
        <ele>100.0</ele>
        <time>2012-03-02T16:46:03Z</time>
      </trkpt>
      <trkpt lat="43.403491" lon="-6.15066">
        <ele>100.0</ele>
        <time>2012-03-02T16:46:07Z</time>
      </trkpt>
      <trkpt lat="43.40383" lon="-6.15077">
        <ele>100.0</ele>
        <time>2012-03-02T16:46:11Z</time>
      </trkpt>
      <trkpt lat="43.404092" lon="-6.150829">
        <ele>99.0</ele>
        <time>2012-03-02T16:46:14Z</time>
      </trkpt>
      <trkpt lat="43.404444" lon="-6.150885">
        <ele>98.0</ele>
        <time>2012-03-02T16:46:18Z</time>
      </trkpt>
      <trkpt lat="43.404803" lon="-6.150929">
        <ele>97.0</ele>
        <time>2012-03-02T16:46:22Z</time>
      </trkpt>
      <trkpt lat="43.405172" lon="-6.15094">
        <ele>97.0</ele>
        <time>2012-03-02T16:46:26Z</time>
      </trkpt>
      <trkpt lat="43.405524" lon="-6.150852">
        <ele>96.0</ele>
        <time>2012-03-02T16:46:30Z</time>
      </trkpt>
      <trkpt lat="43.405839" lon="-6.150681">
        <ele>95.0</ele>
        <time>2012-03-02T16:46:34Z</time>
      </trkpt>
      <trkpt lat="43.40613" lon="-6.150479">
        <ele>94.0</ele>
        <time>2012-03-02T16:46:38Z</time>
      </trkpt>
      <trkpt lat="43.406409" lon="-6.150277">
        <ele>93.0</ele>
        <time>2012-03-02T16:46:42Z</time>
      </trkpt>
      <trkpt lat="43.406681" lon="-6.15011">
        <ele>92.0</ele>
        <time>2012-03-02T16:46:46Z</time>
      </trkpt>
      <trkpt lat="43.406953" lon="-6.149979">
        <ele>92.0</ele>
        <time>2012-03-02T16:46:50Z</time>
      </trkpt>
      <trkpt lat="43.407295" lon="-6.149855">
        <ele>91.0</ele>
        <time>2012-03-02T16:46:55Z</time>
      </trkpt>
      <trkpt lat="43.407558" lon="-6.149778">
        <ele>91.0</ele>
        <time>2012-03-02T16:46:59Z</time>
      </trkpt>
      <trkpt lat="43.407748" lon="-6.149723">
        <ele>91.0</ele>
        <time>2012-03-02T16:47:02Z</time>
      </trkpt>
      <trkpt lat="43.407994" lon="-6.149647">
        <ele>90.0</ele>
        <time>2012-03-02T16:47:06Z</time>
      </trkpt>
      <trkpt lat="43.40824" lon="-6.149593">
        <ele>90.0</ele>
        <time>2012-03-02T16:47:10Z</time>
      </trkpt>
      <trkpt lat="43.408429" lon="-6.149576">
        <ele>90.0</ele>
        <time>2012-03-02T16:47:13Z</time>
      </trkpt>
      <trkpt lat="43.40882" lon="-6.1496">
        <ele>89.0</ele>
        <time>2012-03-02T16:47:19Z</time>
      </trkpt>
      <trkpt lat="43.409034" lon="-6.149596">
        <ele>89.0</ele>
        <time>2012-03-02T16:47:22Z</time>
      </trkpt>
      <trkpt lat="43.40932" lon="-6.149551">
        <ele>88.0</ele>
        <time>2012-03-02T16:47:26Z</time>
      </trkpt>
      <trkpt lat="43.409615" lon="-6.149479">
        <ele>87.0</ele>
        <time>2012-03-02T16:47:30Z</time>
      </trkpt>
      <trkpt lat="43.409908" lon="-6.149405">
        <ele>87.0</ele>
        <time>2012-03-02T16:47:34Z</time>
      </trkpt>
      <trkpt lat="43.410286" lon="-6.149311">
        <ele>86.0</ele>
        <time>2012-03-02T16:47:39Z</time>
      </trkpt>
      <trkpt lat="43.410582" lon="-6.149241">
        <ele>86.0</ele>
        <time>2012-03-02T16:47:43Z</time>
      </trkpt>
      <trkpt lat="43.410876" lon="-6.149174">
        <ele>85.0</ele>
        <time>2012-03-02T16:47:47Z</time>
      </trkpt>
      <trkpt lat="43.411148" lon="-6.149033">
        <ele>85.0</ele>
        <time>2012-03-02T16:47:51Z</time>
      </trkpt>
      <trkpt lat="43.411349" lon="-6.148755">
        <ele>85.0</ele>
        <time>2012-03-02T16:47:55Z</time>
      </trkpt>
      <trkpt lat="43.4115" lon="-6.148431">
        <ele>85.0</ele>
        <time>2012-03-02T16:47:59Z</time>
      </trkpt>
      <trkpt lat="43.411619" lon="-6.148239">
        <ele>86.0</ele>
        <time>2012-03-02T16:48:02Z</time>
      </trkpt>
      <trkpt lat="43.411775" lon="-6.148039">
        <ele>86.0</ele>
        <time>2012-03-02T16:48:06Z</time>
      </trkpt>
      <trkpt lat="43.411914" lon="-6.147866">
        <ele>86.0</ele>
        <time>2012-03-02T16:48:10Z</time>
      </trkpt>
      <trkpt lat="43.412043" lon="-6.147698">
        <ele>86.0</ele>
        <time>2012-03-02T16:48:14Z</time>
      </trkpt>
      <trkpt lat="43.412168" lon="-6.14753">
        <ele>86.0</ele>
        <time>2012-03-02T16:48:18Z</time>
      </trkpt>
      <trkpt lat="43.412296" lon="-6.147362">
        <ele>85.0</ele>
        <time>2012-03-02T16:48:22Z</time>
      </trkpt>
      <trkpt lat="43.412422" lon="-6.147188">
        <ele>85.0</ele>
        <time>2012-03-02T16:48:26Z</time>
      </trkpt>
      <trkpt lat="43.412545" lon="-6.147011">
        <ele>85.0</ele>
        <time>2012-03-02T16:48:30Z</time>
      </trkpt>
      <trkpt lat="43.412664" lon="-6.146827">
        <ele>85.0</ele>
        <time>2012-03-02T16:48:34Z</time>
      </trkpt>
      <trkpt lat="43.412774" lon="-6.146633">
        <ele>84.0</ele>
        <time>2012-03-02T16:48:38Z</time>
      </trkpt>
      <trkpt lat="43.412884" lon="-6.146456">
        <ele>85.0</ele>
        <time>2012-03-02T16:48:42Z</time>
      </trkpt>
      <trkpt lat="43.413006" lon="-6.146288">
        <ele>85.0</ele>
        <time>2012-03-02T16:48:46Z</time>
      </trkpt>
      <trkpt lat="43.413132" lon="-6.146121">
        <ele>85.0</ele>
        <time>2012-03-02T16:48:50Z</time>
      </trkpt>
      <trkpt lat="43.413268" lon="-6.145965">
        <ele>85.0</ele>
        <time>2012-03-02T16:48:54Z</time>
      </trkpt>
      <trkpt lat="43.413422" lon="-6.145829">
        <ele>85.0</ele>
        <time>2012-03-02T16:48:58Z</time>
      </trkpt>
      <trkpt lat="43.413585" lon="-6.145702">
        <ele>85.0</ele>
        <time>2012-03-02T16:49:02Z</time>
      </trkpt>
      <trkpt lat="43.413747" lon="-6.145573">
        <ele>86.0</ele>
        <time>2012-03-02T16:49:06Z</time>
      </trkpt>
      <trkpt lat="43.4139" lon="-6.145457">
        <ele>86.0</ele>
        <time>2012-03-02T16:49:10Z</time>
      </trkpt>
      <trkpt lat="43.414048" lon="-6.145341">
        <ele>87.0</ele>
        <time>2012-03-02T16:49:14Z</time>
      </trkpt>
      <trkpt lat="43.414179" lon="-6.145212">
        <ele>88.0</ele>
        <time>2012-03-02T16:49:18Z</time>
      </trkpt>
      <trkpt lat="43.414304" lon="-6.145093">
        <ele>88.0</ele>
        <time>2012-03-02T16:49:22Z</time>
      </trkpt>
      <trkpt lat="43.414422" lon="-6.144978">
        <ele>88.0</ele>
        <time>2012-03-02T16:49:26Z</time>
      </trkpt>
      <trkpt lat="43.414538" lon="-6.14486">
        <ele>88.0</ele>
        <time>2012-03-02T16:49:30Z</time>
      </trkpt>
      <trkpt lat="43.414658" lon="-6.144741">
        <ele>88.0</ele>
        <time>2012-03-02T16:49:34Z</time>
      </trkpt>
      <trkpt lat="43.414775" lon="-6.144625">
        <ele>88.0</ele>
        <time>2012-03-02T16:49:38Z</time>
      </trkpt>
      <trkpt lat="43.41489" lon="-6.144511">
        <ele>89.0</ele>
        <time>2012-03-02T16:49:42Z</time>
      </trkpt>
      <trkpt lat="43.415004" lon="-6.144373">
        <ele>89.0</ele>
        <time>2012-03-02T16:49:46Z</time>
      </trkpt>
      <trkpt lat="43.415101" lon="-6.144215">
        <ele>89.0</ele>
        <time>2012-03-02T16:49:50Z</time>
      </trkpt>
      <trkpt lat="43.41519" lon="-6.144043">
        <ele>90.0</ele>
        <time>2012-03-02T16:49:54Z</time>
      </trkpt>
      <trkpt lat="43.415264" lon="-6.143858">
        <ele>92.0</ele>
        <time>2012-03-02T16:49:58Z</time>
      </trkpt>
      <trkpt lat="43.415316" lon="-6.143679">
        <ele>93.0</ele>
        <time>2012-03-02T16:50:02Z</time>
      </trkpt>
      <trkpt lat="43.415337" lon="-6.143588">
        <ele>93.0</ele>
        <time>2012-03-02T16:50:04Z</time>
      </trkpt>
      <trkpt lat="43.415379" lon="-6.14329">
        <ele>94.0</ele>
        <time>2012-03-02T16:50:11Z</time>
      </trkpt>
      <trkpt lat="43.415379" lon="-6.143098">
        <ele>95.0</ele>
        <time>2012-03-02T16:50:15Z</time>
      </trkpt>
      <trkpt lat="43.415336" lon="-6.142903">
        <ele>96.0</ele>
        <time>2012-03-02T16:50:19Z</time>
      </trkpt>
      <trkpt lat="43.415259" lon="-6.142724">
        <ele>99.0</ele>
        <time>2012-03-02T16:50:23Z</time>
      </trkpt>
      <trkpt lat="43.415139" lon="-6.142576">
        <ele>107.0</ele>
        <time>2012-03-02T16:50:27Z</time>
      </trkpt>
      <trkpt lat="43.414997" lon="-6.142456">
        <ele>112.0</ele>
        <time>2012-03-02T16:50:31Z</time>
      </trkpt>
      <trkpt lat="43.414844" lon="-6.142392">
        <ele>115.0</ele>
        <time>2012-03-02T16:50:35Z</time>
      </trkpt>
      <trkpt lat="43.414768" lon="-6.14238">
        <ele>116.0</ele>
        <time>2012-03-02T16:50:37Z</time>
      </trkpt>
      <trkpt lat="43.414548" lon="-6.142399">
        <ele>117.0</ele>
        <time>2012-03-02T16:50:43Z</time>
      </trkpt>
      <trkpt lat="43.414406" lon="-6.142461">
        <ele>118.0</ele>
        <time>2012-03-02T16:50:47Z</time>
      </trkpt>
      <trkpt lat="43.414268" lon="-6.14257">
        <ele>119.0</ele>
        <time>2012-03-02T16:50:51Z</time>
      </trkpt>
      <trkpt lat="43.414149" lon="-6.142732">
        <ele>126.0</ele>
        <time>2012-03-02T16:50:55Z</time>
      </trkpt>
      <trkpt lat="43.414045" lon="-6.142906">
        <ele>131.0</ele>
        <time>2012-03-02T16:50:59Z</time>
      </trkpt>
      <trkpt lat="43.413947" lon="-6.143087">
        <ele>133.0</ele>
        <time>2012-03-02T16:51:03Z</time>
      </trkpt>
      <trkpt lat="43.413896" lon="-6.143176">
        <ele>134.0</ele>
        <time>2012-03-02T16:51:05Z</time>
      </trkpt>
      <trkpt lat="43.413796" lon="-6.143344">
        <ele>135.0</ele>
        <time>2012-03-02T16:51:09Z</time>
      </trkpt>
      <trkpt lat="43.413614" lon="-6.143515">
        <ele>135.0</ele>
        <time>2012-03-02T16:51:15Z</time>
      </trkpt>
      <trkpt lat="43.413468" lon="-6.143553">
        <ele>137.0</ele>
        <time>2012-03-02T16:51:19Z</time>
      </trkpt>
      <trkpt lat="43.413322" lon="-6.143514">
        <ele>139.0</ele>
        <time>2012-03-02T16:51:23Z</time>
      </trkpt>
      <trkpt lat="43.413202" lon="-6.143395">
        <ele>140.0</ele>
        <time>2012-03-02T16:51:27Z</time>
      </trkpt>
      <trkpt lat="43.413129" lon="-6.143227">
        <ele>140.0</ele>
        <time>2012-03-02T16:51:31Z</time>
      </trkpt>
      <trkpt lat="43.413115" lon="-6.143021">
        <ele>141.0</ele>
        <time>2012-03-02T16:51:35Z</time>
      </trkpt>
      <trkpt lat="43.41319" lon="-6.142825">
        <ele>144.0</ele>
        <time>2012-03-02T16:51:39Z</time>
      </trkpt>
      <trkpt lat="43.413293" lon="-6.142671">
        <ele>145.0</ele>
        <time>2012-03-02T16:51:43Z</time>
      </trkpt>
      <trkpt lat="43.413404" lon="-6.142528">
        <ele>145.0</ele>
        <time>2012-03-02T16:51:47Z</time>
      </trkpt>
      <trkpt lat="43.413554" lon="-6.142419">
        <ele>145.0</ele>
        <time>2012-03-02T16:51:51Z</time>
      </trkpt>
      <trkpt lat="43.413705" lon="-6.14228">
        <ele>145.0</ele>
        <time>2012-03-02T16:51:55Z</time>
      </trkpt>
      <trkpt lat="43.413836" lon="-6.142103">
        <ele>145.0</ele>
        <time>2012-03-02T16:51:59Z</time>
      </trkpt>
      <trkpt lat="43.413923" lon="-6.141893">
        <ele>145.0</ele>
        <time>2012-03-02T16:52:03Z</time>
      </trkpt>
      <trkpt lat="43.413972" lon="-6.141693">
        <ele>145.0</ele>
        <time>2012-03-02T16:52:07Z</time>
      </trkpt>
      <trkpt lat="43.413989" lon="-6.141501">
        <ele>145.0</ele>
        <time>2012-03-02T16:52:11Z</time>
      </trkpt>
      <trkpt lat="43.413974" lon="-6.141314">
        <ele>145.0</ele>
        <time>2012-03-02T16:52:15Z</time>
      </trkpt>
      <trkpt lat="43.413955" lon="-6.141223">
        <ele>146.0</ele>
        <time>2012-03-02T16:52:17Z</time>
      </trkpt>
      <trkpt lat="43.413867" lon="-6.14097">
        <ele>146.0</ele>
        <time>2012-03-02T16:52:23Z</time>
      </trkpt>
      <trkpt lat="43.413787" lon="-6.140814">
        <ele>147.0</ele>
        <time>2012-03-02T16:52:27Z</time>
      </trkpt>
      <trkpt lat="43.413706" lon="-6.140665">
        <ele>148.0</ele>
        <time>2012-03-02T16:52:31Z</time>
      </trkpt>
      <trkpt lat="43.413624" lon="-6.140512">
        <ele>149.0</ele>
        <time>2012-03-02T16:52:35Z</time>
      </trkpt>
      <trkpt lat="43.413541" lon="-6.140346">
        <ele>150.0</ele>
        <time>2012-03-02T16:52:39Z</time>
      </trkpt>
      <trkpt lat="43.413465" lon="-6.140181">
        <ele>151.0</ele>
        <time>2012-03-02T16:52:43Z</time>
      </trkpt>
      <trkpt lat="43.413396" lon="-6.140027">
        <ele>152.0</ele>
        <time>2012-03-02T16:52:47Z</time>
      </trkpt>
      <trkpt lat="43.41334" lon="-6.139856">
        <ele>153.0</ele>
        <time>2012-03-02T16:52:51Z</time>
      </trkpt>
      <trkpt lat="43.413304" lon="-6.139668">
        <ele>154.0</ele>
        <time>2012-03-02T16:52:55Z</time>
      </trkpt>
      <trkpt lat="43.413282" lon="-6.139483">
        <ele>155.0</ele>
        <time>2012-03-02T16:52:59Z</time>
      </trkpt>
      <trkpt lat="43.413274" lon="-6.139299">
        <ele>156.0</ele>
        <time>2012-03-02T16:53:03Z</time>
      </trkpt>
      <trkpt lat="43.413269" lon="-6.139108">
        <ele>157.0</ele>
        <time>2012-03-02T16:53:07Z</time>
      </trkpt>
      <trkpt lat="43.413258" lon="-6.138924">
        <ele>158.0</ele>
        <time>2012-03-02T16:53:11Z</time>
      </trkpt>
      <trkpt lat="43.413245" lon="-6.138741">
        <ele>159.0</ele>
        <time>2012-03-02T16:53:15Z</time>
      </trkpt>
      <trkpt lat="43.413228" lon="-6.138553">
        <ele>161.0</ele>
        <time>2012-03-02T16:53:19Z</time>
      </trkpt>
      <trkpt lat="43.413204" lon="-6.138362">
        <ele>162.0</ele>
        <time>2012-03-02T16:53:23Z</time>
      </trkpt>
      <trkpt lat="43.413175" lon="-6.138171">
        <ele>163.0</ele>
        <time>2012-03-02T16:53:27Z</time>
      </trkpt>
      <trkpt lat="43.413128" lon="-6.137991">
        <ele>164.0</ele>
        <time>2012-03-02T16:53:31Z</time>
      </trkpt>
      <trkpt lat="43.413055" lon="-6.13782">
        <ele>165.0</ele>
        <time>2012-03-02T16:53:35Z</time>
      </trkpt>
      <trkpt lat="43.412957" lon="-6.137664">
        <ele>168.0</ele>
        <time>2012-03-02T16:53:39Z</time>
      </trkpt>
      <trkpt lat="43.412842" lon="-6.137531">
        <ele>173.0</ele>
        <time>2012-03-02T16:53:43Z</time>
      </trkpt>
      <trkpt lat="43.412718" lon="-6.137412">
        <ele>176.0</ele>
        <time>2012-03-02T16:53:47Z</time>
      </trkpt>
      <trkpt lat="43.412584" lon="-6.1373">
        <ele>178.0</ele>
        <time>2012-03-02T16:53:51Z</time>
      </trkpt>
      <trkpt lat="43.412451" lon="-6.137176">
        <ele>180.0</ele>
        <time>2012-03-02T16:53:55Z</time>
      </trkpt>
      <trkpt lat="43.412321" lon="-6.137065">
        <ele>182.0</ele>
        <time>2012-03-02T16:53:59Z</time>
      </trkpt>
      <trkpt lat="43.412204" lon="-6.136967">
        <ele>182.0</ele>
        <time>2012-03-02T16:54:03Z</time>
      </trkpt>
      <trkpt lat="43.412085" lon="-6.136861">
        <ele>182.0</ele>
        <time>2012-03-02T16:54:07Z</time>
      </trkpt>
      <trkpt lat="43.411969" lon="-6.13675">
        <ele>183.0</ele>
        <time>2012-03-02T16:54:11Z</time>
      </trkpt>
      <trkpt lat="43.411854" lon="-6.136641">
        <ele>183.0</ele>
        <time>2012-03-02T16:54:15Z</time>
      </trkpt>
      <trkpt lat="43.411739" lon="-6.136535">
        <ele>184.0</ele>
        <time>2012-03-02T16:54:19Z</time>
      </trkpt>
      <trkpt lat="43.411624" lon="-6.136428">
        <ele>184.0</ele>
        <time>2012-03-02T16:54:23Z</time>
      </trkpt>
      <trkpt lat="43.411505" lon="-6.136321">
        <ele>185.0</ele>
        <time>2012-03-02T16:54:27Z</time>
      </trkpt>
      <trkpt lat="43.411386" lon="-6.136214">
        <ele>186.0</ele>
        <time>2012-03-02T16:54:31Z</time>
      </trkpt>
      <trkpt lat="43.411263" lon="-6.136104">
        <ele>186.0</ele>
        <time>2012-03-02T16:54:35Z</time>
      </trkpt>
      <trkpt lat="43.411137" lon="-6.135995">
        <ele>187.0</ele>
        <time>2012-03-02T16:54:39Z</time>
      </trkpt>
      <trkpt lat="43.411007" lon="-6.135891">
        <ele>192.0</ele>
        <time>2012-03-02T16:54:43Z</time>
      </trkpt>
      <trkpt lat="43.410875" lon="-6.135801">
        <ele>194.0</ele>
        <time>2012-03-02T16:54:47Z</time>
      </trkpt>
      <trkpt lat="43.410747" lon="-6.135736">
        <ele>194.0</ele>
        <time>2012-03-02T16:54:51Z</time>
      </trkpt>
      <trkpt lat="43.410603" lon="-6.1357">
        <ele>195.0</ele>
        <time>2012-03-02T16:54:55Z</time>
      </trkpt>
      <trkpt lat="43.410457" lon="-6.135704">
        <ele>195.0</ele>
        <time>2012-03-02T16:54:59Z</time>
      </trkpt>
      <trkpt lat="43.410315" lon="-6.135745">
        <ele>196.0</ele>
        <time>2012-03-02T16:55:03Z</time>
      </trkpt>
      <trkpt lat="43.410175" lon="-6.135815">
        <ele>197.0</ele>
        <time>2012-03-02T16:55:07Z</time>
      </trkpt>
      <trkpt lat="43.410037" lon="-6.135893">
        <ele>197.0</ele>
        <time>2012-03-02T16:55:11Z</time>
      </trkpt>
      <trkpt lat="43.4099" lon="-6.135978">
        <ele>202.0</ele>
        <time>2012-03-02T16:55:15Z</time>
      </trkpt>
      <trkpt lat="43.409762" lon="-6.136048">
        <ele>206.0</ele>
        <time>2012-03-02T16:55:19Z</time>
      </trkpt>
      <trkpt lat="43.40963" lon="-6.136117">
        <ele>206.0</ele>
        <time>2012-03-02T16:55:23Z</time>
      </trkpt>
      <trkpt lat="43.409571" lon="-6.136152">
        <ele>206.0</ele>
        <time>2012-03-02T16:55:25Z</time>
      </trkpt>
      <trkpt lat="43.409426" lon="-6.13624">
        <ele>207.0</ele>
        <time>2012-03-02T16:55:30Z</time>
      </trkpt>
      <trkpt lat="43.409307" lon="-6.136309">
        <ele>207.0</ele>
        <time>2012-03-02T16:55:34Z</time>
      </trkpt>
      <trkpt lat="43.40918" lon="-6.136376">
        <ele>208.0</ele>
        <time>2012-03-02T16:55:38Z</time>
      </trkpt>
      <trkpt lat="43.409053" lon="-6.136451">
        <ele>209.0</ele>
        <time>2012-03-02T16:55:42Z</time>
      </trkpt>
      <trkpt lat="43.40893" lon="-6.136527">
        <ele>210.0</ele>
        <time>2012-03-02T16:55:46Z</time>
      </trkpt>
      <trkpt lat="43.408798" lon="-6.1366">
        <ele>211.0</ele>
        <time>2012-03-02T16:55:50Z</time>
      </trkpt>
      <trkpt lat="43.408665" lon="-6.136678">
        <ele>211.0</ele>
        <time>2012-03-02T16:55:54Z</time>
      </trkpt>
      <trkpt lat="43.408534" lon="-6.136756">
        <ele>212.0</ele>
        <time>2012-03-02T16:55:58Z</time>
      </trkpt>
      <trkpt lat="43.408404" lon="-6.136848">
        <ele>213.0</ele>
        <time>2012-03-02T16:56:02Z</time>
      </trkpt>
      <trkpt lat="43.408273" lon="-6.136945">
        <ele>214.0</ele>
        <time>2012-03-02T16:56:06Z</time>
      </trkpt>
      <trkpt lat="43.408147" lon="-6.137049">
        <ele>215.0</ele>
        <time>2012-03-02T16:56:10Z</time>
      </trkpt>
      <trkpt lat="43.408028" lon="-6.137158">
        <ele>215.0</ele>
        <time>2012-03-02T16:56:14Z</time>
      </trkpt>
      <trkpt lat="43.407913" lon="-6.137279">
        <ele>216.0</ele>
        <time>2012-03-02T16:56:18Z</time>
      </trkpt>
      <trkpt lat="43.4078" lon="-6.137416">
        <ele>222.0</ele>
        <time>2012-03-02T16:56:22Z</time>
      </trkpt>
      <trkpt lat="43.407687" lon="-6.137562">
        <ele>227.0</ele>
        <time>2012-03-02T16:56:26Z</time>
      </trkpt>
      <trkpt lat="43.407568" lon="-6.13771">
        <ele>230.0</ele>
        <time>2012-03-02T16:56:30Z</time>
      </trkpt>
      <trkpt lat="43.40744" lon="-6.137862">
        <ele>232.0</ele>
        <time>2012-03-02T16:56:34Z</time>
      </trkpt>
      <trkpt lat="43.407314" lon="-6.138021">
        <ele>233.0</ele>
        <time>2012-03-02T16:56:38Z</time>
      </trkpt>
      <trkpt lat="43.407194" lon="-6.138167">
        <ele>235.0</ele>
        <time>2012-03-02T16:56:42Z</time>
      </trkpt>
      <trkpt lat="43.407083" lon="-6.138298">
        <ele>236.0</ele>
        <time>2012-03-02T16:56:46Z</time>
      </trkpt>
      <trkpt lat="43.406979" lon="-6.138427">
        <ele>236.0</ele>
        <time>2012-03-02T16:56:50Z</time>
      </trkpt>
      <trkpt lat="43.40687" lon="-6.138559">
        <ele>236.0</ele>
        <time>2012-03-02T16:56:54Z</time>
      </trkpt>
      <trkpt lat="43.406764" lon="-6.138693">
        <ele>237.0</ele>
        <time>2012-03-02T16:56:58Z</time>
      </trkpt>
      <trkpt lat="43.40666" lon="-6.138822">
        <ele>237.0</ele>
        <time>2012-03-02T16:57:02Z</time>
      </trkpt>
      <trkpt lat="43.406549" lon="-6.13892">
        <ele>238.0</ele>
        <time>2012-03-02T16:57:06Z</time>
      </trkpt>
      <trkpt lat="43.406462" lon="-6.139056">
        <ele>239.0</ele>
        <time>2012-03-02T16:57:10Z</time>
      </trkpt>
      <trkpt lat="43.406371" lon="-6.139193">
        <ele>240.0</ele>
        <time>2012-03-02T16:57:14Z</time>
      </trkpt>
      <trkpt lat="43.406257" lon="-6.139313">
        <ele>240.0</ele>
        <time>2012-03-02T16:57:18Z</time>
      </trkpt>
      <trkpt lat="43.40614" lon="-6.139437">
        <ele>243.0</ele>
        <time>2012-03-02T16:57:22Z</time>
      </trkpt>
      <trkpt lat="43.406017" lon="-6.139554">
        <ele>249.0</ele>
        <time>2012-03-02T16:57:26Z</time>
      </trkpt>
      <trkpt lat="43.405887" lon="-6.139652">
        <ele>252.0</ele>
        <time>2012-03-02T16:57:30Z</time>
      </trkpt>
      <trkpt lat="43.405745" lon="-6.139724">
        <ele>255.0</ele>
        <time>2012-03-02T16:57:34Z</time>
      </trkpt>
      <trkpt lat="43.405597" lon="-6.139773">
        <ele>257.0</ele>
        <time>2012-03-02T16:57:38Z</time>
      </trkpt>
      <trkpt lat="43.405449" lon="-6.139814">
        <ele>258.0</ele>
        <time>2012-03-02T16:57:42Z</time>
      </trkpt>
      <trkpt lat="43.405302" lon="-6.139848">
        <ele>259.0</ele>
        <time>2012-03-02T16:57:46Z</time>
      </trkpt>
      <trkpt lat="43.405158" lon="-6.139881">
        <ele>260.0</ele>
        <time>2012-03-02T16:57:50Z</time>
      </trkpt>
      <trkpt lat="43.405013" lon="-6.139917">
        <ele>261.0</ele>
        <time>2012-03-02T16:57:54Z</time>
      </trkpt>
      <trkpt lat="43.404851" lon="-6.139977">
        <ele>262.0</ele>
        <time>2012-03-02T16:57:58Z</time>
      </trkpt>
      <trkpt lat="43.404682" lon="-6.140047">
        <ele>263.0</ele>
        <time>2012-03-02T16:58:02Z</time>
      </trkpt>
      <trkpt lat="43.404507" lon="-6.140115">
        <ele>264.0</ele>
        <time>2012-03-02T16:58:06Z</time>
      </trkpt>
      <trkpt lat="43.40433" lon="-6.140186">
        <ele>265.0</ele>
        <time>2012-03-02T16:58:10Z</time>
      </trkpt>
      <trkpt lat="43.404149" lon="-6.140252">
        <ele>266.0</ele>
        <time>2012-03-02T16:58:14Z</time>
      </trkpt>
      <trkpt lat="43.403972" lon="-6.140318">
        <ele>267.0</ele>
        <time>2012-03-02T16:58:18Z</time>
      </trkpt>
      <trkpt lat="43.403805" lon="-6.140366">
        <ele>268.0</ele>
        <time>2012-03-02T16:58:22Z</time>
      </trkpt>
      <trkpt lat="43.403657" lon="-6.140345">
        <ele>268.0</ele>
        <time>2012-03-02T16:58:26Z</time>
      </trkpt>
      <trkpt lat="43.403545" lon="-6.140234">
        <ele>268.0</ele>
        <time>2012-03-02T16:58:30Z</time>
      </trkpt>
      <trkpt lat="43.403464" lon="-6.140075">
        <ele>269.0</ele>
        <time>2012-03-02T16:58:34Z</time>
      </trkpt>
      <trkpt lat="43.403457" lon="-6.139875">
        <ele>269.0</ele>
        <time>2012-03-02T16:58:38Z</time>
      </trkpt>
      <trkpt lat="43.403515" lon="-6.139678">
        <ele>270.0</ele>
        <time>2012-03-02T16:58:42Z</time>
      </trkpt>
      <trkpt lat="43.403586" lon="-6.139486">
        <ele>275.0</ele>
        <time>2012-03-02T16:58:46Z</time>
      </trkpt>
      <trkpt lat="43.403662" lon="-6.139302">
        <ele>278.0</ele>
        <time>2012-03-02T16:58:50Z</time>
      </trkpt>
      <trkpt lat="43.403744" lon="-6.139119">
        <ele>280.0</ele>
        <time>2012-03-02T16:58:54Z</time>
      </trkpt>
      <trkpt lat="43.403822" lon="-6.138935">
        <ele>281.0</ele>
        <time>2012-03-02T16:58:58Z</time>
      </trkpt>
      <trkpt lat="43.403889" lon="-6.138745">
        <ele>282.0</ele>
        <time>2012-03-02T16:59:02Z</time>
      </trkpt>
      <trkpt lat="43.403942" lon="-6.138556">
        <ele>282.0</ele>
        <time>2012-03-02T16:59:06Z</time>
      </trkpt>
      <trkpt lat="43.403976" lon="-6.138351">
        <ele>284.0</ele>
        <time>2012-03-02T16:59:10Z</time>
      </trkpt>
      <trkpt lat="43.40399" lon="-6.138133">
        <ele>286.0</ele>
        <time>2012-03-02T16:59:14Z</time>
      </trkpt>
      <trkpt lat="43.403991" lon="-6.137925">
        <ele>287.0</ele>
        <time>2012-03-02T16:59:18Z</time>
      </trkpt>
      <trkpt lat="43.403981" lon="-6.13773">
        <ele>287.0</ele>
        <time>2012-03-02T16:59:22Z</time>
      </trkpt>
      <trkpt lat="43.403976" lon="-6.137546">
        <ele>287.0</ele>
        <time>2012-03-02T16:59:26Z</time>
      </trkpt>
      <trkpt lat="43.403993" lon="-6.137356">
        <ele>287.0</ele>
        <time>2012-03-02T16:59:30Z</time>
      </trkpt>
      <trkpt lat="43.404018" lon="-6.137156">
        <ele>288.0</ele>
        <time>2012-03-02T16:59:34Z</time>
      </trkpt>
      <trkpt lat="43.404063" lon="-6.136956">
        <ele>289.0</ele>
        <time>2012-03-02T16:59:38Z</time>
      </trkpt>
      <trkpt lat="43.404128" lon="-6.136762">
        <ele>292.0</ele>
        <time>2012-03-02T16:59:42Z</time>
      </trkpt>
      <trkpt lat="43.404196" lon="-6.136581">
        <ele>293.0</ele>
        <time>2012-03-02T16:59:46Z</time>
      </trkpt>
      <trkpt lat="43.404278" lon="-6.136417">
        <ele>293.0</ele>
        <time>2012-03-02T16:59:50Z</time>
      </trkpt>
      <trkpt lat="43.404369" lon="-6.136257">
        <ele>293.0</ele>
        <time>2012-03-02T16:59:54Z</time>
      </trkpt>
      <trkpt lat="43.404453" lon="-6.136098">
        <ele>294.0</ele>
        <time>2012-03-02T16:59:58Z</time>
      </trkpt>
      <trkpt lat="43.40453" lon="-6.135939">
        <ele>294.0</ele>
        <time>2012-03-02T17:00:02Z</time>
      </trkpt>
      <trkpt lat="43.404618" lon="-6.135773">
        <ele>296.0</ele>
        <time>2012-03-02T17:00:06Z</time>
      </trkpt>
      <trkpt lat="43.404714" lon="-6.135593">
        <ele>299.0</ele>
        <time>2012-03-02T17:00:10Z</time>
      </trkpt>
      <trkpt lat="43.404814" lon="-6.135399">
        <ele>301.0</ele>
        <time>2012-03-02T17:00:14Z</time>
      </trkpt>
      <trkpt lat="43.404912" lon="-6.135198">
        <ele>303.0</ele>
        <time>2012-03-02T17:00:18Z</time>
      </trkpt>
      <trkpt lat="43.404988" lon="-6.134988">
        <ele>304.0</ele>
        <time>2012-03-02T17:00:22Z</time>
      </trkpt>
      <trkpt lat="43.405039" lon="-6.134771">
        <ele>305.0</ele>
        <time>2012-03-02T17:00:26Z</time>
      </trkpt>
      <trkpt lat="43.405062" lon="-6.134561">
        <ele>306.0</ele>
        <time>2012-03-02T17:00:30Z</time>
      </trkpt>
      <trkpt lat="43.405068" lon="-6.13437">
        <ele>306.0</ele>
        <time>2012-03-02T17:00:34Z</time>
      </trkpt>
      <trkpt lat="43.405066" lon="-6.134181">
        <ele>307.0</ele>
        <time>2012-03-02T17:00:38Z</time>
      </trkpt>
      <trkpt lat="43.405073" lon="-6.133983">
        <ele>307.0</ele>
        <time>2012-03-02T17:00:42Z</time>
      </trkpt>
      <trkpt lat="43.405081" lon="-6.133798">
        <ele>307.0</ele>
        <time>2012-03-02T17:00:46Z</time>
      </trkpt>
      <trkpt lat="43.405096" lon="-6.133583">
        <ele>308.0</ele>
        <time>2012-03-02T17:00:51Z</time>
      </trkpt>
      <trkpt lat="43.405166" lon="-6.133284">
        <ele>309.0</ele>
        <time>2012-03-02T17:00:58Z</time>
      </trkpt>
      <trkpt lat="43.405227" lon="-6.133108">
        <ele>310.0</ele>
        <time>2012-03-02T17:01:02Z</time>
      </trkpt>
      <trkpt lat="43.405303" lon="-6.132942">
        <ele>310.0</ele>
        <time>2012-03-02T17:01:06Z</time>
      </trkpt>
      <trkpt lat="43.405399" lon="-6.132787">
        <ele>311.0</ele>
        <time>2012-03-02T17:01:10Z</time>
      </trkpt>
      <trkpt lat="43.405503" lon="-6.132649">
        <ele>312.0</ele>
        <time>2012-03-02T17:01:14Z</time>
      </trkpt>
      <trkpt lat="43.405605" lon="-6.132523">
        <ele>313.0</ele>
        <time>2012-03-02T17:01:18Z</time>
      </trkpt>
      <trkpt lat="43.405701" lon="-6.132391">
        <ele>313.0</ele>
        <time>2012-03-02T17:01:22Z</time>
      </trkpt>
      <trkpt lat="43.405794" lon="-6.132241">
        <ele>314.0</ele>
        <time>2012-03-02T17:01:26Z</time>
      </trkpt>
      <trkpt lat="43.405875" lon="-6.132071">
        <ele>317.0</ele>
        <time>2012-03-02T17:01:30Z</time>
      </trkpt>
      <trkpt lat="43.405934" lon="-6.131888">
        <ele>317.0</ele>
        <time>2012-03-02T17:01:34Z</time>
      </trkpt>
      <trkpt lat="43.405967" lon="-6.131697">
        <ele>318.0</ele>
        <time>2012-03-02T17:01:38Z</time>
      </trkpt>
      <trkpt lat="43.405984" lon="-6.131511">
        <ele>318.0</ele>
        <time>2012-03-02T17:01:42Z</time>
      </trkpt>
      <trkpt lat="43.405992" lon="-6.131317">
        <ele>319.0</ele>
        <time>2012-03-02T17:01:46Z</time>
      </trkpt>
      <trkpt lat="43.405993" lon="-6.131118">
        <ele>320.0</ele>
        <time>2012-03-02T17:01:50Z</time>
      </trkpt>
      <trkpt lat="43.405981" lon="-6.130925">
        <ele>321.0</ele>
        <time>2012-03-02T17:01:54Z</time>
      </trkpt>
      <trkpt lat="43.405947" lon="-6.130728">
        <ele>322.0</ele>
        <time>2012-03-02T17:01:58Z</time>
      </trkpt>
      <trkpt lat="43.405882" lon="-6.130545">
        <ele>328.0</ele>
        <time>2012-03-02T17:02:02Z</time>
      </trkpt>
      <trkpt lat="43.405787" lon="-6.130387">
        <ele>334.0</ele>
        <time>2012-03-02T17:02:06Z</time>
      </trkpt>
      <trkpt lat="43.40568" lon="-6.130249">
        <ele>336.0</ele>
        <time>2012-03-02T17:02:10Z</time>
      </trkpt>
      <trkpt lat="43.405558" lon="-6.130135">
        <ele>337.0</ele>
        <time>2012-03-02T17:02:14Z</time>
      </trkpt>
      <trkpt lat="43.405419" lon="-6.130046">
        <ele>340.0</ele>
        <time>2012-03-02T17:02:18Z</time>
      </trkpt>
      <trkpt lat="43.405282" lon="-6.129965">
        <ele>340.0</ele>
        <time>2012-03-02T17:02:22Z</time>
      </trkpt>
      <trkpt lat="43.405144" lon="-6.129897">
        <ele>340.0</ele>
        <time>2012-03-02T17:02:26Z</time>
      </trkpt>
      <trkpt lat="43.404996" lon="-6.129831">
        <ele>343.0</ele>
        <time>2012-03-02T17:02:30Z</time>
      </trkpt>
      <trkpt lat="43.40485" lon="-6.129768">
        <ele>345.0</ele>
        <time>2012-03-02T17:02:34Z</time>
      </trkpt>
      <trkpt lat="43.404706" lon="-6.129691">
        <ele>346.0</ele>
        <time>2012-03-02T17:02:38Z</time>
      </trkpt>
      <trkpt lat="43.404576" lon="-6.1296">
        <ele>346.0</ele>
        <time>2012-03-02T17:02:42Z</time>
      </trkpt>
      <trkpt lat="43.404441" lon="-6.129502">
        <ele>347.0</ele>
        <time>2012-03-02T17:02:46Z</time>
      </trkpt>
      <trkpt lat="43.404308" lon="-6.129387">
        <ele>348.0</ele>
        <time>2012-03-02T17:02:50Z</time>
      </trkpt>
      <trkpt lat="43.404175" lon="-6.129258">
        <ele>349.0</ele>
        <time>2012-03-02T17:02:54Z</time>
      </trkpt>
      <trkpt lat="43.404047" lon="-6.129126">
        <ele>351.0</ele>
        <time>2012-03-02T17:02:58Z</time>
      </trkpt>
      <trkpt lat="43.403918" lon="-6.128983">
        <ele>352.0</ele>
        <time>2012-03-02T17:03:02Z</time>
      </trkpt>
      <trkpt lat="43.403784" lon="-6.128837">
        <ele>352.0</ele>
        <time>2012-03-02T17:03:06Z</time>
      </trkpt>
      <trkpt lat="43.403657" lon="-6.128672">
        <ele>353.0</ele>
        <time>2012-03-02T17:03:10Z</time>
      </trkpt>
      <trkpt lat="43.40354" lon="-6.128492">
        <ele>354.0</ele>
        <time>2012-03-02T17:03:14Z</time>
      </trkpt>
      <trkpt lat="43.403429" lon="-6.128305">
        <ele>355.0</ele>
        <time>2012-03-02T17:03:18Z</time>
      </trkpt>
      <trkpt lat="43.403317" lon="-6.128135">
        <ele>356.0</ele>
        <time>2012-03-02T17:03:22Z</time>
      </trkpt>
      <trkpt lat="43.403209" lon="-6.127959">
        <ele>357.0</ele>
        <time>2012-03-02T17:03:26Z</time>
      </trkpt>
      <trkpt lat="43.403087" lon="-6.127797">
        <ele>358.0</ele>
        <time>2012-03-02T17:03:30Z</time>
      </trkpt>
      <trkpt lat="43.402959" lon="-6.127641">
        <ele>359.0</ele>
        <time>2012-03-02T17:03:34Z</time>
      </trkpt>
      <trkpt lat="43.402806" lon="-6.127525">
        <ele>360.0</ele>
        <time>2012-03-02T17:03:38Z</time>
      </trkpt>
      <trkpt lat="43.402637" lon="-6.127452">
        <ele>361.0</ele>
        <time>2012-03-02T17:03:42Z</time>
      </trkpt>
      <trkpt lat="43.402467" lon="-6.127394">
        <ele>363.0</ele>
        <time>2012-03-02T17:03:46Z</time>
      </trkpt>
      <trkpt lat="43.402295" lon="-6.127342">
        <ele>364.0</ele>
        <time>2012-03-02T17:03:50Z</time>
      </trkpt>
      <trkpt lat="43.402128" lon="-6.127287">
        <ele>366.0</ele>
        <time>2012-03-02T17:03:54Z</time>
      </trkpt>
      <trkpt lat="43.401976" lon="-6.127197">
        <ele>367.0</ele>
        <time>2012-03-02T17:03:58Z</time>
      </trkpt>
      <trkpt lat="43.401844" lon="-6.127057">
        <ele>369.0</ele>
        <time>2012-03-02T17:04:02Z</time>
      </trkpt>
      <trkpt lat="43.401734" lon="-6.126866">
        <ele>371.0</ele>
        <time>2012-03-02T17:04:06Z</time>
      </trkpt>
      <trkpt lat="43.401659" lon="-6.126655">
        <ele>373.0</ele>
        <time>2012-03-02T17:04:10Z</time>
      </trkpt>
      <trkpt lat="43.40162" lon="-6.126433">
        <ele>375.0</ele>
        <time>2012-03-02T17:04:14Z</time>
      </trkpt>
      <trkpt lat="43.401607" lon="-6.126202">
        <ele>376.0</ele>
        <time>2012-03-02T17:04:18Z</time>
      </trkpt>
      <trkpt lat="43.401627" lon="-6.125966">
        <ele>378.0</ele>
        <time>2012-03-02T17:04:22Z</time>
      </trkpt>
      <trkpt lat="43.401652" lon="-6.125731">
        <ele>380.0</ele>
        <time>2012-03-02T17:04:26Z</time>
      </trkpt>
      <trkpt lat="43.401668" lon="-6.125502">
        <ele>381.0</ele>
        <time>2012-03-02T17:04:30Z</time>
      </trkpt>
      <trkpt lat="43.401681" lon="-6.12527">
        <ele>382.0</ele>
        <time>2012-03-02T17:04:34Z</time>
      </trkpt>
      <trkpt lat="43.401699" lon="-6.125038">
        <ele>383.0</ele>
        <time>2012-03-02T17:04:38Z</time>
      </trkpt>
      <trkpt lat="43.401714" lon="-6.124813">
        <ele>384.0</ele>
        <time>2012-03-02T17:04:42Z</time>
      </trkpt>
      <trkpt lat="43.401702" lon="-6.124582">
        <ele>385.0</ele>
        <time>2012-03-02T17:04:46Z</time>
      </trkpt>
      <trkpt lat="43.40166" lon="-6.124359">
        <ele>386.0</ele>
        <time>2012-03-02T17:04:50Z</time>
      </trkpt>
      <trkpt lat="43.401588" lon="-6.124142">
        <ele>387.0</ele>
        <time>2012-03-02T17:04:54Z</time>
      </trkpt>
      <trkpt lat="43.401481" lon="-6.12395">
        <ele>387.0</ele>
        <time>2012-03-02T17:04:58Z</time>
      </trkpt>
      <trkpt lat="43.401344" lon="-6.12379">
        <ele>388.0</ele>
        <time>2012-03-02T17:05:02Z</time>
      </trkpt>
      <trkpt lat="43.401182" lon="-6.123653">
        <ele>389.0</ele>
        <time>2012-03-02T17:05:06Z</time>
      </trkpt>
      <trkpt lat="43.401027" lon="-6.123534">
        <ele>390.0</ele>
        <time>2012-03-02T17:05:10Z</time>
      </trkpt>
      <trkpt lat="43.400878" lon="-6.123402">
        <ele>391.0</ele>
        <time>2012-03-02T17:05:14Z</time>
      </trkpt>
      <trkpt lat="43.400728" lon="-6.123276">
        <ele>392.0</ele>
        <time>2012-03-02T17:05:18Z</time>
      </trkpt>
      <trkpt lat="43.400575" lon="-6.123149">
        <ele>393.0</ele>
        <time>2012-03-02T17:05:22Z</time>
      </trkpt>
      <trkpt lat="43.400427" lon="-6.123019">
        <ele>394.0</ele>
        <time>2012-03-02T17:05:26Z</time>
      </trkpt>
      <trkpt lat="43.400281" lon="-6.122908">
        <ele>396.0</ele>
        <time>2012-03-02T17:05:30Z</time>
      </trkpt>
      <trkpt lat="43.400133" lon="-6.122783">
        <ele>398.0</ele>
        <time>2012-03-02T17:05:34Z</time>
      </trkpt>
      <trkpt lat="43.399987" lon="-6.122652">
        <ele>400.0</ele>
        <time>2012-03-02T17:05:38Z</time>
      </trkpt>
      <trkpt lat="43.399827" lon="-6.122516">
        <ele>401.0</ele>
        <time>2012-03-02T17:05:42Z</time>
      </trkpt>
      <trkpt lat="43.399645" lon="-6.122389">
        <ele>402.0</ele>
        <time>2012-03-02T17:05:46Z</time>
      </trkpt>
      <trkpt lat="43.399448" lon="-6.122272">
        <ele>403.0</ele>
        <time>2012-03-02T17:05:50Z</time>
      </trkpt>
      <trkpt lat="43.399242" lon="-6.12219">
        <ele>404.0</ele>
        <time>2012-03-02T17:05:54Z</time>
      </trkpt>
      <trkpt lat="43.399033" lon="-6.12214">
        <ele>405.0</ele>
        <time>2012-03-02T17:05:58Z</time>
      </trkpt>
      <trkpt lat="43.398811" lon="-6.122114">
        <ele>407.0</ele>
        <time>2012-03-02T17:06:02Z</time>
      </trkpt>
      <trkpt lat="43.398581" lon="-6.122091">
        <ele>408.0</ele>
        <time>2012-03-02T17:06:06Z</time>
      </trkpt>
      <trkpt lat="43.398356" lon="-6.122077">
        <ele>409.0</ele>
        <time>2012-03-02T17:06:10Z</time>
      </trkpt>
      <trkpt lat="43.398128" lon="-6.122071">
        <ele>410.0</ele>
        <time>2012-03-02T17:06:14Z</time>
      </trkpt>
      <trkpt lat="43.397903" lon="-6.122064">
        <ele>410.0</ele>
        <time>2012-03-02T17:06:18Z</time>
      </trkpt>
      <trkpt lat="43.397669" lon="-6.122048">
        <ele>411.0</ele>
        <time>2012-03-02T17:06:22Z</time>
      </trkpt>
      <trkpt lat="43.397343" lon="-6.122032">
        <ele>411.0</ele>
        <time>2012-03-02T17:06:27Z</time>
      </trkpt>
      <trkpt lat="43.397067" lon="-6.122007">
        <ele>411.0</ele>
        <time>2012-03-02T17:06:31Z</time>
      </trkpt>
      <trkpt lat="43.396794" lon="-6.121942">
        <ele>412.0</ele>
        <time>2012-03-02T17:06:35Z</time>
      </trkpt>
      <trkpt lat="43.396549" lon="-6.12178">
        <ele>412.0</ele>
        <time>2012-03-02T17:06:39Z</time>
      </trkpt>
      <trkpt lat="43.396365" lon="-6.121501">
        <ele>412.0</ele>
        <time>2012-03-02T17:06:43Z</time>
      </trkpt>
      <trkpt lat="43.396225" lon="-6.121171">
        <ele>412.0</ele>
        <time>2012-03-02T17:06:47Z</time>
      </trkpt>
      <trkpt lat="43.396087" lon="-6.12083">
        <ele>412.0</ele>
        <time>2012-03-02T17:06:51Z</time>
      </trkpt>
      <trkpt lat="43.395936" lon="-6.12048">
        <ele>412.0</ele>
        <time>2012-03-02T17:06:55Z</time>
      </trkpt>
      <trkpt lat="43.395746" lon="-6.120098">
        <ele>412.0</ele>
        <time>2012-03-02T17:06:59Z</time>
      </trkpt>
      <trkpt lat="43.395585" lon="-6.119667">
        <ele>411.0</ele>
        <time>2012-03-02T17:07:03Z</time>
      </trkpt>
      <trkpt lat="43.395634" lon="-6.119191">
        <ele>410.0</ele>
        <time>2012-03-02T17:07:07Z</time>
      </trkpt>
      <trkpt lat="43.395839" lon="-6.118743">
        <ele>410.0</ele>
        <time>2012-03-02T17:07:11Z</time>
      </trkpt>
      <trkpt lat="43.39609" lon="-6.118287">
        <ele>411.0</ele>
        <time>2012-03-02T17:07:15Z</time>
      </trkpt>
      <trkpt lat="43.396232" lon="-6.118058">
        <ele>411.0</ele>
        <time>2012-03-02T17:07:17Z</time>
      </trkpt>
      <trkpt lat="43.396494" lon="-6.117223">
        <ele>409.0</ele>
        <time>2012-03-02T17:07:23Z</time>
      </trkpt>
      <trkpt lat="43.396356" lon="-6.116542">
        <ele>407.0</ele>
        <time>2012-03-02T17:07:27Z</time>
      </trkpt>
      <trkpt lat="43.396272" lon="-6.115821">
        <ele>402.0</ele>
        <time>2012-03-02T17:07:31Z</time>
      </trkpt>
      <trkpt lat="43.396229" lon="-6.11511">
        <ele>398.0</ele>
        <time>2012-03-02T17:07:35Z</time>
      </trkpt>
      <trkpt lat="43.396213" lon="-6.114386">
        <ele>395.0</ele>
        <time>2012-03-02T17:07:39Z</time>
      </trkpt>
      <trkpt lat="43.396187" lon="-6.113666">
        <ele>392.0</ele>
        <time>2012-03-02T17:07:43Z</time>
      </trkpt>
      <trkpt lat="43.396067" lon="-6.112978">
        <ele>389.0</ele>
        <time>2012-03-02T17:07:47Z</time>
      </trkpt>
      <trkpt lat="43.395922" lon="-6.112495">
        <ele>386.0</ele>
        <time>2012-03-02T17:07:50Z</time>
      </trkpt>
      <trkpt lat="43.395714" lon="-6.111702">
        <ele>381.0</ele>
        <time>2012-03-02T17:07:55Z</time>
      </trkpt>
      <trkpt lat="43.395649" lon="-6.111215">
        <ele>378.0</ele>
        <time>2012-03-02T17:07:58Z</time>
      </trkpt>
      <trkpt lat="43.395544" lon="-6.110424">
        <ele>376.0</ele>
        <time>2012-03-02T17:08:03Z</time>
      </trkpt>
      <trkpt lat="43.395609" lon="-6.109789">
        <ele>374.0</ele>
        <time>2012-03-02T17:08:07Z</time>
      </trkpt>
      <trkpt lat="43.395649" lon="-6.109467">
        <ele>373.0</ele>
        <time>2012-03-02T17:08:09Z</time>
      </trkpt>
      <trkpt lat="43.395772" lon="-6.108487">
        <ele>370.0</ele>
        <time>2012-03-02T17:08:15Z</time>
      </trkpt>
      <trkpt lat="43.395844" lon="-6.107832">
        <ele>367.0</ele>
        <time>2012-03-02T17:08:19Z</time>
      </trkpt>
      <trkpt lat="43.3959" lon="-6.107163">
        <ele>364.0</ele>
        <time>2012-03-02T17:08:23Z</time>
      </trkpt>
      <trkpt lat="43.396071" lon="-6.106532">
        <ele>362.0</ele>
        <time>2012-03-02T17:08:27Z</time>
      </trkpt>
      <trkpt lat="43.396263" lon="-6.106097">
        <ele>360.0</ele>
        <time>2012-03-02T17:08:30Z</time>
      </trkpt>
      <trkpt lat="43.396604" lon="-6.105361">
        <ele>356.0</ele>
        <time>2012-03-02T17:08:35Z</time>
      </trkpt>
      <trkpt lat="43.396705" lon="-6.105036">
        <ele>355.0</ele>
        <time>2012-03-02T17:08:37Z</time>
      </trkpt>
      <trkpt lat="43.396555" lon="-6.103978">
        <ele>349.0</ele>
        <time>2012-03-02T17:08:43Z</time>
      </trkpt>
      <trkpt lat="43.396179" lon="-6.103441">
        <ele>344.0</ele>
        <time>2012-03-02T17:08:47Z</time>
      </trkpt>
      <trkpt lat="43.395895" lon="-6.102814">
        <ele>338.0</ele>
        <time>2012-03-02T17:08:51Z</time>
      </trkpt>
      <trkpt lat="43.395645" lon="-6.102167">
        <ele>332.0</ele>
        <time>2012-03-02T17:08:55Z</time>
      </trkpt>
      <trkpt lat="43.3953" lon="-6.101616">
        <ele>328.0</ele>
        <time>2012-03-02T17:08:59Z</time>
      </trkpt>
      <trkpt lat="43.395069" lon="-6.10143">
        <ele>326.0</ele>
        <time>2012-03-02T17:09:01Z</time>
      </trkpt>
      <trkpt lat="43.394434" lon="-6.100807">
        <ele>321.0</ele>
        <time>2012-03-02T17:09:07Z</time>
      </trkpt>
      <trkpt lat="43.394173" lon="-6.100182">
        <ele>318.0</ele>
        <time>2012-03-02T17:09:11Z</time>
      </trkpt>
      <trkpt lat="43.394074" lon="-6.099473">
        <ele>315.0</ele>
        <time>2012-03-02T17:09:15Z</time>
      </trkpt>
      <trkpt lat="43.393962" lon="-6.098775">
        <ele>311.0</ele>
        <time>2012-03-02T17:09:19Z</time>
      </trkpt>
      <trkpt lat="43.393661" lon="-6.098182">
        <ele>306.0</ele>
        <time>2012-03-02T17:09:23Z</time>
      </trkpt>
      <trkpt lat="43.393305" lon="-6.097691">
        <ele>301.0</ele>
        <time>2012-03-02T17:09:27Z</time>
      </trkpt>
      <trkpt lat="43.392947" lon="-6.097184">
        <ele>297.0</ele>
        <time>2012-03-02T17:09:31Z</time>
      </trkpt>
      <trkpt lat="43.392551" lon="-6.096744">
        <ele>294.0</ele>
        <time>2012-03-02T17:09:35Z</time>
      </trkpt>
      <trkpt lat="43.392116" lon="-6.096366">
        <ele>290.0</ele>
        <time>2012-03-02T17:09:39Z</time>
      </trkpt>
      <trkpt lat="43.391619" lon="-6.096201">
        <ele>287.0</ele>
        <time>2012-03-02T17:09:43Z</time>
      </trkpt>
      <trkpt lat="43.391231" lon="-6.096179">
        <ele>285.0</ele>
        <time>2012-03-02T17:09:46Z</time>
      </trkpt>
      <trkpt lat="43.390601" lon="-6.096463">
        <ele>280.0</ele>
        <time>2012-03-02T17:09:51Z</time>
      </trkpt>
      <trkpt lat="43.390272" lon="-6.097043">
        <ele>277.0</ele>
        <time>2012-03-02T17:09:55Z</time>
      </trkpt>
      <trkpt lat="43.38999" lon="-6.097666">
        <ele>273.0</ele>
        <time>2012-03-02T17:09:59Z</time>
      </trkpt>
      <trkpt lat="43.389861" lon="-6.097987">
        <ele>272.0</ele>
        <time>2012-03-02T17:10:01Z</time>
      </trkpt>
      <trkpt lat="43.389644" lon="-6.099037">
        <ele>267.0</ele>
        <time>2012-03-02T17:10:07Z</time>
      </trkpt>
      <trkpt lat="43.389412" lon="-6.099658">
        <ele>265.0</ele>
        <time>2012-03-02T17:10:11Z</time>
      </trkpt>
      <trkpt lat="43.389222" lon="-6.100102">
        <ele>263.0</ele>
        <time>2012-03-02T17:10:14Z</time>
      </trkpt>
      <trkpt lat="43.388888" lon="-6.100786">
        <ele>261.0</ele>
        <time>2012-03-02T17:10:19Z</time>
      </trkpt>
      <trkpt lat="43.388559" lon="-6.100776">
        <ele>258.0</ele>
        <time>2012-03-02T17:10:23Z</time>
      </trkpt>
      <trkpt lat="43.388505" lon="-6.100422">
        <ele>257.0</ele>
        <time>2012-03-02T17:10:26Z</time>
      </trkpt>
      <trkpt lat="43.388497" lon="-6.099662">
        <ele>256.0</ele>
        <time>2012-03-02T17:10:31Z</time>
      </trkpt>
      <trkpt lat="43.388451" lon="-6.098985">
        <ele>254.0</ele>
        <time>2012-03-02T17:10:35Z</time>
      </trkpt>
      <trkpt lat="43.388359" lon="-6.098289">
        <ele>250.0</ele>
        <time>2012-03-02T17:10:39Z</time>
      </trkpt>
      <trkpt lat="43.388316" lon="-6.097581">
        <ele>246.0</ele>
        <time>2012-03-02T17:10:43Z</time>
      </trkpt>
      <trkpt lat="43.388226" lon="-6.09687">
        <ele>243.0</ele>
        <time>2012-03-02T17:10:47Z</time>
      </trkpt>
      <trkpt lat="43.388066" lon="-6.096183">
        <ele>241.0</ele>
        <time>2012-03-02T17:10:51Z</time>
      </trkpt>
      <trkpt lat="43.387982" lon="-6.09547">
        <ele>239.0</ele>
        <time>2012-03-02T17:10:55Z</time>
      </trkpt>
      <trkpt lat="43.388013" lon="-6.094761">
        <ele>236.0</ele>
        <time>2012-03-02T17:10:59Z</time>
      </trkpt>
      <trkpt lat="43.388103" lon="-6.094057">
        <ele>233.0</ele>
        <time>2012-03-02T17:11:03Z</time>
      </trkpt>
      <trkpt lat="43.388057" lon="-6.093352">
        <ele>226.0</ele>
        <time>2012-03-02T17:11:07Z</time>
      </trkpt>
      <trkpt lat="43.387782" lon="-6.092774">
        <ele>220.0</ele>
        <time>2012-03-02T17:11:11Z</time>
      </trkpt>
      <trkpt lat="43.387336" lon="-6.092482">
        <ele>215.0</ele>
        <time>2012-03-02T17:11:15Z</time>
      </trkpt>
      <trkpt lat="43.386823" lon="-6.092386">
        <ele>211.0</ele>
        <time>2012-03-02T17:11:19Z</time>
      </trkpt>
      <trkpt lat="43.386348" lon="-6.092081">
        <ele>207.0</ele>
        <time>2012-03-02T17:11:23Z</time>
      </trkpt>
      <trkpt lat="43.38609" lon="-6.091474">
        <ele>202.0</ele>
        <time>2012-03-02T17:11:27Z</time>
      </trkpt>
      <trkpt lat="43.385991" lon="-6.0908">
        <ele>198.0</ele>
        <time>2012-03-02T17:11:31Z</time>
      </trkpt>
      <trkpt lat="43.385942" lon="-6.090121">
        <ele>196.0</ele>
        <time>2012-03-02T17:11:35Z</time>
      </trkpt>
      <trkpt lat="43.385937" lon="-6.089442">
        <ele>193.0</ele>
        <time>2012-03-02T17:11:39Z</time>
      </trkpt>
      <trkpt lat="43.385984" lon="-6.088794">
        <ele>190.0</ele>
        <time>2012-03-02T17:11:43Z</time>
      </trkpt>
      <trkpt lat="43.386024" lon="-6.08819">
        <ele>186.0</ele>
        <time>2012-03-02T17:11:47Z</time>
      </trkpt>
      <trkpt lat="43.385899" lon="-6.087658">
        <ele>181.0</ele>
        <time>2012-03-02T17:11:51Z</time>
      </trkpt>
      <trkpt lat="43.386032" lon="-6.087136">
        <ele>178.0</ele>
        <time>2012-03-02T17:11:55Z</time>
      </trkpt>
      <trkpt lat="43.386059" lon="-6.086558">
        <ele>176.0</ele>
        <time>2012-03-02T17:11:59Z</time>
      </trkpt>
      <trkpt lat="43.386041" lon="-6.085964">
        <ele>174.0</ele>
        <time>2012-03-02T17:12:03Z</time>
      </trkpt>
      <trkpt lat="43.386034" lon="-6.085357">
        <ele>172.0</ele>
        <time>2012-03-02T17:12:07Z</time>
      </trkpt>
      <trkpt lat="43.386032" lon="-6.08474">
        <ele>171.0</ele>
        <time>2012-03-02T17:12:11Z</time>
      </trkpt>
      <trkpt lat="43.386034" lon="-6.084112">
        <ele>169.0</ele>
        <time>2012-03-02T17:12:15Z</time>
      </trkpt>
      <trkpt lat="43.386037" lon="-6.083478">
        <ele>168.0</ele>
        <time>2012-03-02T17:12:19Z</time>
      </trkpt>
      <trkpt lat="43.386029" lon="-6.082846">
        <ele>167.0</ele>
        <time>2012-03-02T17:12:23Z</time>
      </trkpt>
      <trkpt lat="43.38603" lon="-6.08222">
        <ele>166.0</ele>
        <time>2012-03-02T17:12:27Z</time>
      </trkpt>
      <trkpt lat="43.386032" lon="-6.081606">
        <ele>164.0</ele>
        <time>2012-03-02T17:12:31Z</time>
      </trkpt>
      <trkpt lat="43.385996" lon="-6.081025">
        <ele>163.0</ele>
        <time>2012-03-02T17:12:35Z</time>
      </trkpt>
      <trkpt lat="43.38591" lon="-6.080469">
        <ele>160.0</ele>
        <time>2012-03-02T17:12:39Z</time>
      </trkpt>
      <trkpt lat="43.385798" lon="-6.079921">
        <ele>157.0</ele>
        <time>2012-03-02T17:12:43Z</time>
      </trkpt>
      <trkpt lat="43.385704" lon="-6.079376">
        <ele>155.0</ele>
        <time>2012-03-02T17:12:47Z</time>
      </trkpt>
      <trkpt lat="43.385621" lon="-6.078843">
        <ele>152.0</ele>
        <time>2012-03-02T17:12:51Z</time>
      </trkpt>
      <trkpt lat="43.385535" lon="-6.078336">
        <ele>151.0</ele>
        <time>2012-03-02T17:12:55Z</time>
      </trkpt>
      <trkpt lat="43.385455" lon="-6.077815">
        <ele>150.0</ele>
        <time>2012-03-02T17:12:59Z</time>
      </trkpt>
      <trkpt lat="43.385401" lon="-6.077268">
        <ele>148.0</ele>
        <time>2012-03-02T17:13:03Z</time>
      </trkpt>
      <trkpt lat="43.385428" lon="-6.076715">
        <ele>145.0</ele>
        <time>2012-03-02T17:13:07Z</time>
      </trkpt>
      <trkpt lat="43.385614" lon="-6.076222">
        <ele>144.0</ele>
        <time>2012-03-02T17:13:11Z</time>
      </trkpt>
      <trkpt lat="43.385885" lon="-6.075839">
        <ele>143.0</ele>
        <time>2012-03-02T17:13:15Z</time>
      </trkpt>
      <trkpt lat="43.386165" lon="-6.075499">
        <ele>143.0</ele>
        <time>2012-03-02T17:13:19Z</time>
      </trkpt>
      <trkpt lat="43.386419" lon="-6.075187">
        <ele>142.0</ele>
        <time>2012-03-02T17:13:23Z</time>
      </trkpt>
      <trkpt lat="43.386657" lon="-6.074888">
        <ele>142.0</ele>
        <time>2012-03-02T17:13:27Z</time>
      </trkpt>
      <trkpt lat="43.386875" lon="-6.074611">
        <ele>142.0</ele>
        <time>2012-03-02T17:13:31Z</time>
      </trkpt>
      <trkpt lat="43.386913" lon="-6.074529">
        <ele>142.0</ele>
        <time>2012-03-02T17:13:32Z</time>
      </trkpt>
      <trkpt lat="43.387165" lon="-6.074271">
        <ele>142.0</ele>
        <time>2012-03-02T17:13:38Z</time>
      </trkpt>
      <trkpt lat="43.387264" lon="-6.074217">
        <ele>143.0</ele>
        <time>2012-03-02T17:13:40Z</time>
      </trkpt>
      <trkpt lat="43.387511" lon="-6.07394">
        <ele>143.0</ele>
        <time>2012-03-02T17:13:46Z</time>
      </trkpt>
      <trkpt lat="43.38774" lon="-6.073679">
        <ele>142.0</ele>
        <time>2012-03-02T17:13:51Z</time>
      </trkpt>
      <trkpt lat="43.387953" lon="-6.073452">
        <ele>142.0</ele>
        <time>2012-03-02T17:13:55Z</time>
      </trkpt>
      <trkpt lat="43.388176" lon="-6.073221">
        <ele>142.0</ele>
        <time>2012-03-02T17:13:59Z</time>
      </trkpt>
      <trkpt lat="43.38839" lon="-6.072987">
        <ele>140.0</ele>
        <time>2012-03-02T17:14:03Z</time>
      </trkpt>
      <trkpt lat="43.388551" lon="-6.072701">
        <ele>138.0</ele>
        <time>2012-03-02T17:14:07Z</time>
      </trkpt>
      <trkpt lat="43.38865" lon="-6.072365">
        <ele>137.0</ele>
        <time>2012-03-02T17:14:11Z</time>
      </trkpt>
      <trkpt lat="43.388713" lon="-6.071987">
        <ele>136.0</ele>
        <time>2012-03-02T17:14:15Z</time>
      </trkpt>
      <trkpt lat="43.388785" lon="-6.071597">
        <ele>135.0</ele>
        <time>2012-03-02T17:14:19Z</time>
      </trkpt>
      <trkpt lat="43.38893" lon="-6.071213">
        <ele>135.0</ele>
        <time>2012-03-02T17:14:23Z</time>
      </trkpt>
      <trkpt lat="43.389149" lon="-6.070869">
        <ele>135.0</ele>
        <time>2012-03-02T17:14:27Z</time>
      </trkpt>
      <trkpt lat="43.389382" lon="-6.070539">
        <ele>135.0</ele>
        <time>2012-03-02T17:14:31Z</time>
      </trkpt>
      <trkpt lat="43.389631" lon="-6.070201">
        <ele>135.0</ele>
        <time>2012-03-02T17:14:35Z</time>
      </trkpt>
      <trkpt lat="43.38983" lon="-6.069944">
        <ele>135.0</ele>
        <time>2012-03-02T17:14:38Z</time>
      </trkpt>
      <trkpt lat="43.390025" lon="-6.069679">
        <ele>135.0</ele>
        <time>2012-03-02T17:14:41Z</time>
      </trkpt>
      <trkpt lat="43.390437" lon="-6.069136">
        <ele>135.0</ele>
        <time>2012-03-02T17:14:47Z</time>
      </trkpt>
      <trkpt lat="43.390651" lon="-6.068862">
        <ele>135.0</ele>
        <time>2012-03-02T17:14:50Z</time>
      </trkpt>
      <trkpt lat="43.391001" lon="-6.068424">
        <ele>135.0</ele>
        <time>2012-03-02T17:14:55Z</time>
      </trkpt>
      <trkpt lat="43.391173" lon="-6.068022">
        <ele>133.0</ele>
        <time>2012-03-02T17:14:59Z</time>
      </trkpt>
      <trkpt lat="43.391449" lon="-6.06781">
        <ele>131.0</ele>
        <time>2012-03-02T17:15:03Z</time>
      </trkpt>
      <trkpt lat="43.391593" lon="-6.067727">
        <ele>130.0</ele>
        <time>2012-03-02T17:15:05Z</time>
      </trkpt>
      <trkpt lat="43.392025" lon="-6.067462">
        <ele>129.0</ele>
        <time>2012-03-02T17:15:11Z</time>
      </trkpt>
      <trkpt lat="43.39234" lon="-6.067305">
        <ele>128.0</ele>
        <time>2012-03-02T17:15:15Z</time>
      </trkpt>
      <trkpt lat="43.392584" lon="-6.067195">
        <ele>128.0</ele>
        <time>2012-03-02T17:15:18Z</time>
      </trkpt>
      <trkpt lat="43.392894" lon="-6.06701">
        <ele>128.0</ele>
        <time>2012-03-02T17:15:22Z</time>
      </trkpt>
      <trkpt lat="43.393179" lon="-6.066774">
        <ele>126.0</ele>
        <time>2012-03-02T17:15:26Z</time>
      </trkpt>
      <trkpt lat="43.3933" lon="-6.066351">
        <ele>125.0</ele>
        <time>2012-03-02T17:15:30Z</time>
      </trkpt>
      <trkpt lat="43.393303" lon="-6.065896">
        <ele>123.0</ele>
        <time>2012-03-02T17:15:34Z</time>
      </trkpt>
      <trkpt lat="43.393308" lon="-6.065442">
        <ele>118.0</ele>
        <time>2012-03-02T17:15:38Z</time>
      </trkpt>
      <trkpt lat="43.393299" lon="-6.064992">
        <ele>113.0</ele>
        <time>2012-03-02T17:15:42Z</time>
      </trkpt>
      <trkpt lat="43.393273" lon="-6.06454">
        <ele>111.0</ele>
        <time>2012-03-02T17:15:46Z</time>
      </trkpt>
      <trkpt lat="43.393273" lon="-6.064075">
        <ele>110.0</ele>
        <time>2012-03-02T17:15:50Z</time>
      </trkpt>
      <trkpt lat="43.393278" lon="-6.063605">
        <ele>109.0</ele>
        <time>2012-03-02T17:15:54Z</time>
      </trkpt>
      <trkpt lat="43.393282" lon="-6.063136">
        <ele>107.0</ele>
        <time>2012-03-02T17:15:58Z</time>
      </trkpt>
      <trkpt lat="43.393282" lon="-6.062675">
        <ele>106.0</ele>
        <time>2012-03-02T17:16:02Z</time>
      </trkpt>
      <trkpt lat="43.393285" lon="-6.06223">
        <ele>105.0</ele>
        <time>2012-03-02T17:16:06Z</time>
      </trkpt>
      <trkpt lat="43.393293" lon="-6.061797">
        <ele>105.0</ele>
        <time>2012-03-02T17:16:10Z</time>
      </trkpt>
      <trkpt lat="43.393324" lon="-6.061376">
        <ele>105.0</ele>
        <time>2012-03-02T17:16:14Z</time>
      </trkpt>
      <trkpt lat="43.39338" lon="-6.06097">
        <ele>105.0</ele>
        <time>2012-03-02T17:16:18Z</time>
      </trkpt>
      <trkpt lat="43.393473" lon="-6.060585">
        <ele>104.0</ele>
        <time>2012-03-02T17:16:22Z</time>
      </trkpt>
      <trkpt lat="43.393604" lon="-6.060237">
        <ele>104.0</ele>
        <time>2012-03-02T17:16:26Z</time>
      </trkpt>
      <trkpt lat="43.39376" lon="-6.059908">
        <ele>104.0</ele>
        <time>2012-03-02T17:16:30Z</time>
      </trkpt>
      <trkpt lat="43.393923" lon="-6.059589">
        <ele>103.0</ele>
        <time>2012-03-02T17:16:34Z</time>
      </trkpt>
      <trkpt lat="43.394087" lon="-6.059269">
        <ele>104.0</ele>
        <time>2012-03-02T17:16:38Z</time>
      </trkpt>
      <trkpt lat="43.394244" lon="-6.058946">
        <ele>104.0</ele>
        <time>2012-03-02T17:16:42Z</time>
      </trkpt>
      <trkpt lat="43.394401" lon="-6.058625">
        <ele>104.0</ele>
        <time>2012-03-02T17:16:46Z</time>
      </trkpt>
      <trkpt lat="43.394505" lon="-6.058282">
        <ele>103.0</ele>
        <time>2012-03-02T17:16:50Z</time>
      </trkpt>
      <trkpt lat="43.394692" lon="-6.057925">
        <ele>103.0</ele>
        <time>2012-03-02T17:16:55Z</time>
      </trkpt>
      <trkpt lat="43.394846" lon="-6.057724">
        <ele>102.0</ele>
        <time>2012-03-02T17:16:58Z</time>
      </trkpt>
      <trkpt lat="43.395009" lon="-6.057382">
        <ele>101.0</ele>
        <time>2012-03-02T17:17:02Z</time>
      </trkpt>
      <trkpt lat="43.395138" lon="-6.057009">
        <ele>100.0</ele>
        <time>2012-03-02T17:17:06Z</time>
      </trkpt>
      <trkpt lat="43.395275" lon="-6.056694">
        <ele>100.0</ele>
        <time>2012-03-02T17:17:10Z</time>
      </trkpt>
      <trkpt lat="43.39542" lon="-6.056407">
        <ele>99.0</ele>
        <time>2012-03-02T17:17:14Z</time>
      </trkpt>
      <trkpt lat="43.395567" lon="-6.056107">
        <ele>99.0</ele>
        <time>2012-03-02T17:17:18Z</time>
      </trkpt>
      <trkpt lat="43.395715" lon="-6.055806">
        <ele>99.0</ele>
        <time>2012-03-02T17:17:22Z</time>
      </trkpt>
      <trkpt lat="43.395868" lon="-6.0555">
        <ele>99.0</ele>
        <time>2012-03-02T17:17:26Z</time>
      </trkpt>
      <trkpt lat="43.396022" lon="-6.055189">
        <ele>99.0</ele>
        <time>2012-03-02T17:17:30Z</time>
      </trkpt>
      <trkpt lat="43.396209" lon="-6.0548">
        <ele>99.0</ele>
        <time>2012-03-02T17:17:35Z</time>
      </trkpt>
      <trkpt lat="43.396363" lon="-6.054487">
        <ele>100.0</ele>
        <time>2012-03-02T17:17:39Z</time>
      </trkpt>
      <trkpt lat="43.396522" lon="-6.054182">
        <ele>100.0</ele>
        <time>2012-03-02T17:17:43Z</time>
      </trkpt>
      <trkpt lat="43.396673" lon="-6.053871">
        <ele>100.0</ele>
        <time>2012-03-02T17:17:47Z</time>
      </trkpt>
      <trkpt lat="43.396824" lon="-6.053567">
        <ele>99.0</ele>
        <time>2012-03-02T17:17:51Z</time>
      </trkpt>
      <trkpt lat="43.396974" lon="-6.053267">
        <ele>99.0</ele>
        <time>2012-03-02T17:17:55Z</time>
      </trkpt>
      <trkpt lat="43.397124" lon="-6.052966">
        <ele>99.0</ele>
        <time>2012-03-02T17:17:59Z</time>
      </trkpt>
      <trkpt lat="43.397273" lon="-6.052665">
        <ele>100.0</ele>
        <time>2012-03-02T17:18:03Z</time>
      </trkpt>
      <trkpt lat="43.397429" lon="-6.05236">
        <ele>100.0</ele>
        <time>2012-03-02T17:18:07Z</time>
      </trkpt>
      <trkpt lat="43.397606" lon="-6.052051">
        <ele>100.0</ele>
        <time>2012-03-02T17:18:11Z</time>
      </trkpt>
      <trkpt lat="43.397782" lon="-6.05174">
        <ele>100.0</ele>
        <time>2012-03-02T17:18:15Z</time>
      </trkpt>
      <trkpt lat="43.397917" lon="-6.051413">
        <ele>100.0</ele>
        <time>2012-03-02T17:18:19Z</time>
      </trkpt>
      <trkpt lat="43.397936" lon="-6.051169">
        <ele>100.0</ele>
        <time>2012-03-02T17:18:22Z</time>
      </trkpt>
      <trkpt lat="43.397854" lon="-6.050903">
        <ele>100.0</ele>
        <time>2012-03-02T17:18:26Z</time>
      </trkpt>
      <trkpt lat="43.397892" lon="-6.050602">
        <ele>100.0</ele>
        <time>2012-03-02T17:18:30Z</time>
      </trkpt>
      <trkpt lat="43.39811" lon="-6.050476">
        <ele>100.0</ele>
        <time>2012-03-02T17:18:34Z</time>
      </trkpt>
      <trkpt lat="43.398433" lon="-6.05037">
        <ele>100.0</ele>
        <time>2012-03-02T17:18:39Z</time>
      </trkpt>
      <trkpt lat="43.398621" lon="-6.050083">
        <ele>102.0</ele>
        <time>2012-03-02T17:18:43Z</time>
      </trkpt>
      <trkpt lat="43.398784" lon="-6.049765">
        <ele>102.0</ele>
        <time>2012-03-02T17:18:47Z</time>
      </trkpt>
      <trkpt lat="43.398946" lon="-6.049437">
        <ele>101.0</ele>
        <time>2012-03-02T17:18:51Z</time>
      </trkpt>
      <trkpt lat="43.399106" lon="-6.049111">
        <ele>100.0</ele>
        <time>2012-03-02T17:18:55Z</time>
      </trkpt>
      <trkpt lat="43.399271" lon="-6.048799">
        <ele>99.0</ele>
        <time>2012-03-02T17:18:59Z</time>
      </trkpt>
      <trkpt lat="43.399442" lon="-6.04849">
        <ele>99.0</ele>
        <time>2012-03-02T17:19:03Z</time>
      </trkpt>
      <trkpt lat="43.399626" lon="-6.048198">
        <ele>99.0</ele>
        <time>2012-03-02T17:19:07Z</time>
      </trkpt>
      <trkpt lat="43.399826" lon="-6.047923">
        <ele>99.0</ele>
        <time>2012-03-02T17:19:11Z</time>
      </trkpt>
      <trkpt lat="43.400047" lon="-6.047668">
        <ele>99.0</ele>
        <time>2012-03-02T17:19:15Z</time>
      </trkpt>
      <trkpt lat="43.400279" lon="-6.047423">
        <ele>98.0</ele>
        <time>2012-03-02T17:19:19Z</time>
      </trkpt>
      <trkpt lat="43.400527" lon="-6.047192">
        <ele>98.0</ele>
        <time>2012-03-02T17:19:23Z</time>
      </trkpt>
      <trkpt lat="43.400789" lon="-6.046948">
        <ele>98.0</ele>
        <time>2012-03-02T17:19:27Z</time>
      </trkpt>
      <trkpt lat="43.401045" lon="-6.046698">
        <ele>98.0</ele>
        <time>2012-03-02T17:19:31Z</time>
      </trkpt>
      <trkpt lat="43.401306" lon="-6.046444">
        <ele>98.0</ele>
        <time>2012-03-02T17:19:35Z</time>
      </trkpt>
      <trkpt lat="43.401567" lon="-6.046183">
        <ele>98.0</ele>
        <time>2012-03-02T17:19:39Z</time>
      </trkpt>
      <trkpt lat="43.401764" lon="-6.045996">
        <ele>98.0</ele>
        <time>2012-03-02T17:19:42Z</time>
      </trkpt>
      <trkpt lat="43.402073" lon="-6.045681">
        <ele>99.0</ele>
        <time>2012-03-02T17:19:47Z</time>
      </trkpt>
      <trkpt lat="43.402269" lon="-6.045376">
        <ele>99.0</ele>
        <time>2012-03-02T17:19:51Z</time>
      </trkpt>
      <trkpt lat="43.402403" lon="-6.045015">
        <ele>98.0</ele>
        <time>2012-03-02T17:19:55Z</time>
      </trkpt>
      <trkpt lat="43.402555" lon="-6.044645">
        <ele>98.0</ele>
        <time>2012-03-02T17:19:59Z</time>
      </trkpt>
      <trkpt lat="43.402773" lon="-6.044322">
        <ele>99.0</ele>
        <time>2012-03-02T17:20:03Z</time>
      </trkpt>
      <trkpt lat="43.402971" lon="-6.043947">
        <ele>99.0</ele>
        <time>2012-03-02T17:20:07Z</time>
      </trkpt>
      <trkpt lat="43.403075" lon="-6.043516">
        <ele>98.0</ele>
        <time>2012-03-02T17:20:11Z</time>
      </trkpt>
      <trkpt lat="43.403133" lon="-6.043104">
        <ele>98.0</ele>
        <time>2012-03-02T17:20:15Z</time>
      </trkpt>
      <trkpt lat="43.403167" lon="-6.042722">
        <ele>98.0</ele>
        <time>2012-03-02T17:20:19Z</time>
      </trkpt>
      <trkpt lat="43.40317" lon="-6.042375">
        <ele>98.0</ele>
        <time>2012-03-02T17:20:23Z</time>
      </trkpt>
      <trkpt lat="43.403143" lon="-6.042067">
        <ele>98.0</ele>
        <time>2012-03-02T17:20:27Z</time>
      </trkpt>
      <trkpt lat="43.403102" lon="-6.041784">
        <ele>99.0</ele>
        <time>2012-03-02T17:20:31Z</time>
      </trkpt>
      <trkpt lat="43.403068" lon="-6.041518">
        <ele>99.0</ele>
        <time>2012-03-02T17:20:35Z</time>
      </trkpt>
      <trkpt lat="43.403037" lon="-6.041266">
        <ele>99.0</ele>
        <time>2012-03-02T17:20:39Z</time>
      </trkpt>
      <trkpt lat="43.403049" lon="-6.041022">
        <ele>100.0</ele>
        <time>2012-03-02T17:20:43Z</time>
      </trkpt>
      <trkpt lat="43.4032" lon="-6.040909">
        <ele>101.0</ele>
        <time>2012-03-02T17:20:47Z</time>
      </trkpt>
      <trkpt lat="43.403371" lon="-6.040881">
        <ele>102.0</ele>
        <time>2012-03-02T17:20:51Z</time>
      </trkpt>
      <trkpt lat="43.403578" lon="-6.040879">
        <ele>103.0</ele>
        <time>2012-03-02T17:20:55Z</time>
      </trkpt>
      <trkpt lat="43.403835" lon="-6.040897">
        <ele>104.0</ele>
        <time>2012-03-02T17:20:59Z</time>
      </trkpt>
      <trkpt lat="43.403998" lon="-6.040762">
        <ele>104.0</ele>
        <time>2012-03-02T17:21:02Z</time>
      </trkpt>
      <trkpt lat="43.404043" lon="-6.040338">
        <ele>104.0</ele>
        <time>2012-03-02T17:21:07Z</time>
      </trkpt>
      <trkpt lat="43.404038" lon="-6.039982">
        <ele>105.0</ele>
        <time>2012-03-02T17:21:11Z</time>
      </trkpt>
      <trkpt lat="43.404041" lon="-6.039724">
        <ele>105.0</ele>
        <time>2012-03-02T17:21:14Z</time>
      </trkpt>
      <trkpt lat="43.404061" lon="-6.03929">
        <ele>104.0</ele>
        <time>2012-03-02T17:21:19Z</time>
      </trkpt>
      <trkpt lat="43.404073" lon="-6.038931">
        <ele>104.0</ele>
        <time>2012-03-02T17:21:23Z</time>
      </trkpt>
      <trkpt lat="43.40408" lon="-6.038559">
        <ele>104.0</ele>
        <time>2012-03-02T17:21:27Z</time>
      </trkpt>
      <trkpt lat="43.404107" lon="-6.038184">
        <ele>105.0</ele>
        <time>2012-03-02T17:21:31Z</time>
      </trkpt>
      <trkpt lat="43.404157" lon="-6.037808">
        <ele>105.0</ele>
        <time>2012-03-02T17:21:35Z</time>
      </trkpt>
      <trkpt lat="43.404176" lon="-6.03742">
        <ele>105.0</ele>
        <time>2012-03-02T17:21:39Z</time>
      </trkpt>
      <trkpt lat="43.404081" lon="-6.037056">
        <ele>106.0</ele>
        <time>2012-03-02T17:21:43Z</time>
      </trkpt>
      <trkpt lat="43.403954" lon="-6.036723">
        <ele>106.0</ele>
        <time>2012-03-02T17:21:47Z</time>
      </trkpt>
      <trkpt lat="43.403883" lon="-6.036353">
        <ele>108.0</ele>
        <time>2012-03-02T17:21:51Z</time>
      </trkpt>
      <trkpt lat="43.403859" lon="-6.035959">
        <ele>109.0</ele>
        <time>2012-03-02T17:21:55Z</time>
      </trkpt>
      <trkpt lat="43.40384" lon="-6.035563">
        <ele>110.0</ele>
        <time>2012-03-02T17:21:59Z</time>
      </trkpt>
      <trkpt lat="43.403821" lon="-6.035185">
        <ele>110.0</ele>
        <time>2012-03-02T17:22:03Z</time>
      </trkpt>
      <trkpt lat="43.403825" lon="-6.034816">
        <ele>110.0</ele>
        <time>2012-03-02T17:22:07Z</time>
      </trkpt>
      <trkpt lat="43.403857" lon="-6.034449">
        <ele>110.0</ele>
        <time>2012-03-02T17:22:11Z</time>
      </trkpt>
      <trkpt lat="43.403861" lon="-6.034078">
        <ele>112.0</ele>
        <time>2012-03-02T17:22:15Z</time>
      </trkpt>
      <trkpt lat="43.403795" lon="-6.033709">
        <ele>113.0</ele>
        <time>2012-03-02T17:22:19Z</time>
      </trkpt>
      <trkpt lat="43.403707" lon="-6.033336">
        <ele>114.0</ele>
        <time>2012-03-02T17:22:23Z</time>
      </trkpt>
      <trkpt lat="43.40364" lon="-6.03296">
        <ele>114.0</ele>
        <time>2012-03-02T17:22:27Z</time>
      </trkpt>
      <trkpt lat="43.403621" lon="-6.032574">
        <ele>115.0</ele>
        <time>2012-03-02T17:22:31Z</time>
      </trkpt>
      <trkpt lat="43.403659" lon="-6.032181">
        <ele>115.0</ele>
        <time>2012-03-02T17:22:35Z</time>
      </trkpt>
      <trkpt lat="43.403753" lon="-6.031809">
        <ele>116.0</ele>
        <time>2012-03-02T17:22:39Z</time>
      </trkpt>
      <trkpt lat="43.40388" lon="-6.031456">
        <ele>116.0</ele>
        <time>2012-03-02T17:22:43Z</time>
      </trkpt>
      <trkpt lat="43.403979" lon="-6.031196">
        <ele>117.0</ele>
        <time>2012-03-02T17:22:46Z</time>
      </trkpt>
      <trkpt lat="43.404139" lon="-6.030763">
        <ele>117.0</ele>
        <time>2012-03-02T17:22:51Z</time>
      </trkpt>
      <trkpt lat="43.404233" lon="-6.030503">
        <ele>117.0</ele>
        <time>2012-03-02T17:22:54Z</time>
      </trkpt>
      <trkpt lat="43.403847" lon="-6.02957">
        <ele>113.0</ele>
        <time>2012-03-02T17:23:03Z</time>
      </trkpt>
      <trkpt lat="43.403619" lon="-6.029102">
        <ele>110.0</ele>
        <time>2012-03-02T17:23:07Z</time>
      </trkpt>
      <trkpt lat="43.403438" lon="-6.028766">
        <ele>110.0</ele>
        <time>2012-03-02T17:23:11Z</time>
      </trkpt>
      <trkpt lat="43.40328" lon="-6.028448">
        <ele>112.0</ele>
        <time>2012-03-02T17:23:15Z</time>
      </trkpt>
      <trkpt lat="43.403173" lon="-6.028101">
        <ele>113.0</ele>
        <time>2012-03-02T17:23:19Z</time>
      </trkpt>
      <trkpt lat="43.403116" lon="-6.027736">
        <ele>115.0</ele>
        <time>2012-03-02T17:23:23Z</time>
      </trkpt>
      <trkpt lat="43.403064" lon="-6.027361">
        <ele>115.0</ele>
        <time>2012-03-02T17:23:27Z</time>
      </trkpt>
      <trkpt lat="43.402978" lon="-6.026995">
        <ele>116.0</ele>
        <time>2012-03-02T17:23:31Z</time>
      </trkpt>
      <trkpt lat="43.402846" lon="-6.026646">
        <ele>116.0</ele>
        <time>2012-03-02T17:23:35Z</time>
      </trkpt>
      <trkpt lat="43.402674" lon="-6.026327">
        <ele>116.0</ele>
        <time>2012-03-02T17:23:39Z</time>
      </trkpt>
      <trkpt lat="43.40247" lon="-6.026053">
        <ele>117.0</ele>
        <time>2012-03-02T17:23:43Z</time>
      </trkpt>
      <trkpt lat="43.402239" lon="-6.025824">
        <ele>118.0</ele>
        <time>2012-03-02T17:23:47Z</time>
      </trkpt>
      <trkpt lat="43.401992" lon="-6.025646">
        <ele>119.0</ele>
        <time>2012-03-02T17:23:51Z</time>
      </trkpt>
      <trkpt lat="43.40174" lon="-6.025513">
        <ele>119.0</ele>
        <time>2012-03-02T17:23:55Z</time>
      </trkpt>
      <trkpt lat="43.401482" lon="-6.025409">
        <ele>120.0</ele>
        <time>2012-03-02T17:23:59Z</time>
      </trkpt>
      <trkpt lat="43.40123" lon="-6.025308">
        <ele>120.0</ele>
        <time>2012-03-02T17:24:03Z</time>
      </trkpt>
      <trkpt lat="43.400978" lon="-6.025206">
        <ele>121.0</ele>
        <time>2012-03-02T17:24:07Z</time>
      </trkpt>
      <trkpt lat="43.400728" lon="-6.025105">
        <ele>121.0</ele>
        <time>2012-03-02T17:24:11Z</time>
      </trkpt>
      <trkpt lat="43.400548" lon="-6.025032">
        <ele>121.0</ele>
        <time>2012-03-02T17:24:14Z</time>
      </trkpt>
      <trkpt lat="43.400318" lon="-6.024937">
        <ele>121.0</ele>
        <time>2012-03-02T17:24:18Z</time>
      </trkpt>
      <trkpt lat="43.400092" lon="-6.024846">
        <ele>121.0</ele>
        <time>2012-03-02T17:24:22Z</time>
      </trkpt>
      <trkpt lat="43.399872" lon="-6.024753">
        <ele>122.0</ele>
        <time>2012-03-02T17:24:26Z</time>
      </trkpt>
      <trkpt lat="43.399666" lon="-6.024667">
        <ele>122.0</ele>
        <time>2012-03-02T17:24:30Z</time>
      </trkpt>
      <trkpt lat="43.399471" lon="-6.02459">
        <ele>123.0</ele>
        <time>2012-03-02T17:24:34Z</time>
      </trkpt>
      <trkpt lat="43.399284" lon="-6.024507">
        <ele>124.0</ele>
        <time>2012-03-02T17:24:38Z</time>
      </trkpt>
      <trkpt lat="43.399095" lon="-6.024426">
        <ele>124.0</ele>
        <time>2012-03-02T17:24:42Z</time>
      </trkpt>
      <trkpt lat="43.398913" lon="-6.024344">
        <ele>125.0</ele>
        <time>2012-03-02T17:24:46Z</time>
      </trkpt>
      <trkpt lat="43.398737" lon="-6.024247">
        <ele>125.0</ele>
        <time>2012-03-02T17:24:50Z</time>
      </trkpt>
      <trkpt lat="43.398566" lon="-6.024137">
        <ele>126.0</ele>
        <time>2012-03-02T17:24:54Z</time>
      </trkpt>
      <trkpt lat="43.398405" lon="-6.024002">
        <ele>126.0</ele>
        <time>2012-03-02T17:24:58Z</time>
      </trkpt>
      <trkpt lat="43.398251" lon="-6.023848">
        <ele>127.0</ele>
        <time>2012-03-02T17:25:02Z</time>
      </trkpt>
      <trkpt lat="43.398118" lon="-6.023655">
        <ele>127.0</ele>
        <time>2012-03-02T17:25:06Z</time>
      </trkpt>
      <trkpt lat="43.398011" lon="-6.023437">
        <ele>127.0</ele>
        <time>2012-03-02T17:25:10Z</time>
      </trkpt>
      <trkpt lat="43.397964" lon="-6.023189">
        <ele>127.0</ele>
        <time>2012-03-02T17:25:14Z</time>
      </trkpt>
      <trkpt lat="43.398015" lon="-6.022945">
        <ele>127.0</ele>
        <time>2012-03-02T17:25:18Z</time>
      </trkpt>
      <trkpt lat="43.398124" lon="-6.022736">
        <ele>127.0</ele>
        <time>2012-03-02T17:25:22Z</time>
      </trkpt>
      <trkpt lat="43.398249" lon="-6.022546">
        <ele>128.0</ele>
        <time>2012-03-02T17:25:26Z</time>
      </trkpt>
      <trkpt lat="43.398376" lon="-6.022362">
        <ele>128.0</ele>
        <time>2012-03-02T17:25:30Z</time>
      </trkpt>
      <trkpt lat="43.398499" lon="-6.022176">
        <ele>128.0</ele>
        <time>2012-03-02T17:25:34Z</time>
      </trkpt>
      <trkpt lat="43.398621" lon="-6.021992">
        <ele>128.0</ele>
        <time>2012-03-02T17:25:38Z</time>
      </trkpt>
      <trkpt lat="43.398743" lon="-6.021815">
        <ele>129.0</ele>
        <time>2012-03-02T17:25:42Z</time>
      </trkpt>
      <trkpt lat="43.398861" lon="-6.021635">
        <ele>129.0</ele>
        <time>2012-03-02T17:25:46Z</time>
      </trkpt>
      <trkpt lat="43.398974" lon="-6.021458">
        <ele>130.0</ele>
        <time>2012-03-02T17:25:50Z</time>
      </trkpt>
      <trkpt lat="43.399078" lon="-6.021282">
        <ele>130.0</ele>
        <time>2012-03-02T17:25:54Z</time>
      </trkpt>
      <trkpt lat="43.399166" lon="-6.021082">
        <ele>130.0</ele>
        <time>2012-03-02T17:25:58Z</time>
      </trkpt>
      <trkpt lat="43.399227" lon="-6.020862">
        <ele>131.0</ele>
        <time>2012-03-02T17:26:02Z</time>
      </trkpt>
      <trkpt lat="43.399245" lon="-6.020628">
        <ele>131.0</ele>
        <time>2012-03-02T17:26:06Z</time>
      </trkpt>
      <trkpt lat="43.399218" lon="-6.020387">
        <ele>133.0</ele>
        <time>2012-03-02T17:26:10Z</time>
      </trkpt>
      <trkpt lat="43.399159" lon="-6.020154">
        <ele>135.0</ele>
        <time>2012-03-02T17:26:14Z</time>
      </trkpt>
      <trkpt lat="43.39908" lon="-6.019939">
        <ele>137.0</ele>
        <time>2012-03-02T17:26:18Z</time>
      </trkpt>
      <trkpt lat="43.399009" lon="-6.019714">
        <ele>138.0</ele>
        <time>2012-03-02T17:26:22Z</time>
      </trkpt>
      <trkpt lat="43.398955" lon="-6.019464">
        <ele>139.0</ele>
        <time>2012-03-02T17:26:26Z</time>
      </trkpt>
      <trkpt lat="43.398946" lon="-6.019165">
        <ele>140.0</ele>
        <time>2012-03-02T17:26:30Z</time>
      </trkpt>
      <trkpt lat="43.398994" lon="-6.018746">
        <ele>141.0</ele>
        <time>2012-03-02T17:26:35Z</time>
      </trkpt>
      <trkpt lat="43.399111" lon="-6.018413">
        <ele>142.0</ele>
        <time>2012-03-02T17:26:39Z</time>
      </trkpt>
      <trkpt lat="43.399289" lon="-6.018105">
        <ele>142.0</ele>
        <time>2012-03-02T17:26:43Z</time>
      </trkpt>
      <trkpt lat="43.399497" lon="-6.017813">
        <ele>142.0</ele>
        <time>2012-03-02T17:26:47Z</time>
      </trkpt>
      <trkpt lat="43.399715" lon="-6.017505">
        <ele>142.0</ele>
        <time>2012-03-02T17:26:51Z</time>
      </trkpt>
      <trkpt lat="43.399936" lon="-6.017186">
        <ele>142.0</ele>
        <time>2012-03-02T17:26:55Z</time>
      </trkpt>
      <trkpt lat="43.400168" lon="-6.016867">
        <ele>142.0</ele>
        <time>2012-03-02T17:26:59Z</time>
      </trkpt>
      <trkpt lat="43.400396" lon="-6.016539">
        <ele>142.0</ele>
        <time>2012-03-02T17:27:03Z</time>
      </trkpt>
      <trkpt lat="43.400627" lon="-6.016213">
        <ele>142.0</ele>
        <time>2012-03-02T17:27:07Z</time>
      </trkpt>
      <trkpt lat="43.400863" lon="-6.015892">
        <ele>142.0</ele>
        <time>2012-03-02T17:27:11Z</time>
      </trkpt>
      <trkpt lat="43.401105" lon="-6.015584">
        <ele>142.0</ele>
        <time>2012-03-02T17:27:15Z</time>
      </trkpt>
      <trkpt lat="43.401347" lon="-6.0153">
        <ele>142.0</ele>
        <time>2012-03-02T17:27:19Z</time>
      </trkpt>
      <trkpt lat="43.401603" lon="-6.015025">
        <ele>141.0</ele>
        <time>2012-03-02T17:27:23Z</time>
      </trkpt>
      <trkpt lat="43.401863" lon="-6.014743">
        <ele>141.0</ele>
        <time>2012-03-02T17:27:27Z</time>
      </trkpt>
      <trkpt lat="43.402127" lon="-6.014457">
        <ele>140.0</ele>
        <time>2012-03-02T17:27:31Z</time>
      </trkpt>
      <trkpt lat="43.402395" lon="-6.014166">
        <ele>139.0</ele>
        <time>2012-03-02T17:27:35Z</time>
      </trkpt>
      <trkpt lat="43.402649" lon="-6.013885">
        <ele>138.0</ele>
        <time>2012-03-02T17:27:39Z</time>
      </trkpt>
      <trkpt lat="43.402897" lon="-6.01361">
        <ele>137.0</ele>
        <time>2012-03-02T17:27:43Z</time>
      </trkpt>
      <trkpt lat="43.403142" lon="-6.013346">
        <ele>136.0</ele>
        <time>2012-03-02T17:27:47Z</time>
      </trkpt>
      <trkpt lat="43.403377" lon="-6.013091">
        <ele>135.0</ele>
        <time>2012-03-02T17:27:51Z</time>
      </trkpt>
      <trkpt lat="43.403602" lon="-6.012844">
        <ele>134.0</ele>
        <time>2012-03-02T17:27:55Z</time>
      </trkpt>
      <trkpt lat="43.403812" lon="-6.012609">
        <ele>133.0</ele>
        <time>2012-03-02T17:27:59Z</time>
      </trkpt>
      <trkpt lat="43.403963" lon="-6.012442">
        <ele>133.0</ele>
        <time>2012-03-02T17:28:02Z</time>
      </trkpt>
      <trkpt lat="43.404162" lon="-6.012236">
        <ele>133.0</ele>
        <time>2012-03-02T17:28:06Z</time>
      </trkpt>
      <trkpt lat="43.404362" lon="-6.012053">
        <ele>133.0</ele>
        <time>2012-03-02T17:28:10Z</time>
      </trkpt>
      <trkpt lat="43.404569" lon="-6.011899">
        <ele>132.0</ele>
        <time>2012-03-02T17:28:14Z</time>
      </trkpt>
      <trkpt lat="43.40477" lon="-6.011755">
        <ele>132.0</ele>
        <time>2012-03-02T17:28:18Z</time>
      </trkpt>
      <trkpt lat="43.404964" lon="-6.011609">
        <ele>132.0</ele>
        <time>2012-03-02T17:28:22Z</time>
      </trkpt>
      <trkpt lat="43.405156" lon="-6.011458">
        <ele>132.0</ele>
        <time>2012-03-02T17:28:26Z</time>
      </trkpt>
      <trkpt lat="43.405351" lon="-6.011323">
        <ele>132.0</ele>
        <time>2012-03-02T17:28:30Z</time>
      </trkpt>
      <trkpt lat="43.405532" lon="-6.011189">
        <ele>132.0</ele>
        <time>2012-03-02T17:28:34Z</time>
      </trkpt>
      <trkpt lat="43.405696" lon="-6.01106">
        <ele>132.0</ele>
        <time>2012-03-02T17:28:38Z</time>
      </trkpt>
      <trkpt lat="43.40585" lon="-6.010927">
        <ele>133.0</ele>
        <time>2012-03-02T17:28:42Z</time>
      </trkpt>
      <trkpt lat="43.406005" lon="-6.010802">
        <ele>133.0</ele>
        <time>2012-03-02T17:28:46Z</time>
      </trkpt>
      <trkpt lat="43.40615" lon="-6.010656">
        <ele>134.0</ele>
        <time>2012-03-02T17:28:50Z</time>
      </trkpt>
      <trkpt lat="43.406294" lon="-6.010513">
        <ele>134.0</ele>
        <time>2012-03-02T17:28:54Z</time>
      </trkpt>
      <trkpt lat="43.406434" lon="-6.010373">
        <ele>134.0</ele>
        <time>2012-03-02T17:28:58Z</time>
      </trkpt>
      <trkpt lat="43.40657" lon="-6.010235">
        <ele>134.0</ele>
        <time>2012-03-02T17:29:02Z</time>
      </trkpt>
      <trkpt lat="43.406707" lon="-6.010089">
        <ele>135.0</ele>
        <time>2012-03-02T17:29:06Z</time>
      </trkpt>
      <trkpt lat="43.406852" lon="-6.009936">
        <ele>135.0</ele>
        <time>2012-03-02T17:29:10Z</time>
      </trkpt>
      <trkpt lat="43.406995" lon="-6.009779">
        <ele>136.0</ele>
        <time>2012-03-02T17:29:14Z</time>
      </trkpt>
      <trkpt lat="43.407149" lon="-6.009617">
        <ele>137.0</ele>
        <time>2012-03-02T17:29:18Z</time>
      </trkpt>
      <trkpt lat="43.407306" lon="-6.009446">
        <ele>137.0</ele>
        <time>2012-03-02T17:29:22Z</time>
      </trkpt>
      <trkpt lat="43.407463" lon="-6.009278">
        <ele>138.0</ele>
        <time>2012-03-02T17:29:26Z</time>
      </trkpt>
      <trkpt lat="43.407617" lon="-6.009112">
        <ele>139.0</ele>
        <time>2012-03-02T17:29:30Z</time>
      </trkpt>
      <trkpt lat="43.40777" lon="-6.008947">
        <ele>139.0</ele>
        <time>2012-03-02T17:29:34Z</time>
      </trkpt>
      <trkpt lat="43.407922" lon="-6.008781">
        <ele>140.0</ele>
        <time>2012-03-02T17:29:38Z</time>
      </trkpt>
      <trkpt lat="43.408068" lon="-6.008627">
        <ele>141.0</ele>
        <time>2012-03-02T17:29:42Z</time>
      </trkpt>
      <trkpt lat="43.408211" lon="-6.008473">
        <ele>142.0</ele>
        <time>2012-03-02T17:29:46Z</time>
      </trkpt>
      <trkpt lat="43.40835" lon="-6.00832">
        <ele>143.0</ele>
        <time>2012-03-02T17:29:50Z</time>
      </trkpt>
      <trkpt lat="43.408491" lon="-6.008174">
        <ele>143.0</ele>
        <time>2012-03-02T17:29:54Z</time>
      </trkpt>
      <trkpt lat="43.408631" lon="-6.00802">
        <ele>144.0</ele>
        <time>2012-03-02T17:29:58Z</time>
      </trkpt>
      <trkpt lat="43.408771" lon="-6.007866">
        <ele>145.0</ele>
        <time>2012-03-02T17:30:02Z</time>
      </trkpt>
      <trkpt lat="43.408926" lon="-6.007702">
        <ele>146.0</ele>
        <time>2012-03-02T17:30:06Z</time>
      </trkpt>
      <trkpt lat="43.409092" lon="-6.007519">
        <ele>147.0</ele>
        <time>2012-03-02T17:30:10Z</time>
      </trkpt>
      <trkpt lat="43.40927" lon="-6.007333">
        <ele>148.0</ele>
        <time>2012-03-02T17:30:14Z</time>
      </trkpt>
      <trkpt lat="43.409447" lon="-6.007145">
        <ele>148.0</ele>
        <time>2012-03-02T17:30:18Z</time>
      </trkpt>
      <trkpt lat="43.409624" lon="-6.006959">
        <ele>149.0</ele>
        <time>2012-03-02T17:30:22Z</time>
      </trkpt>
      <trkpt lat="43.409802" lon="-6.006771">
        <ele>149.0</ele>
        <time>2012-03-02T17:30:26Z</time>
      </trkpt>
      <trkpt lat="43.40998" lon="-6.006582">
        <ele>150.0</ele>
        <time>2012-03-02T17:30:30Z</time>
      </trkpt>
      <trkpt lat="43.410163" lon="-6.006393">
        <ele>150.0</ele>
        <time>2012-03-02T17:30:34Z</time>
      </trkpt>
      <trkpt lat="43.410344" lon="-6.0062">
        <ele>151.0</ele>
        <time>2012-03-02T17:30:38Z</time>
      </trkpt>
      <trkpt lat="43.410525" lon="-6.006003">
        <ele>151.0</ele>
        <time>2012-03-02T17:30:42Z</time>
      </trkpt>
      <trkpt lat="43.410706" lon="-6.005777">
        <ele>152.0</ele>
        <time>2012-03-02T17:30:46Z</time>
      </trkpt>
      <trkpt lat="43.410885" lon="-6.005546">
        <ele>152.0</ele>
        <time>2012-03-02T17:30:50Z</time>
      </trkpt>
      <trkpt lat="43.411055" lon="-6.005306">
        <ele>153.0</ele>
        <time>2012-03-02T17:30:54Z</time>
      </trkpt>
      <trkpt lat="43.411219" lon="-6.005065">
        <ele>153.0</ele>
        <time>2012-03-02T17:30:58Z</time>
      </trkpt>
      <trkpt lat="43.411387" lon="-6.004829">
        <ele>153.0</ele>
        <time>2012-03-02T17:31:02Z</time>
      </trkpt>
      <trkpt lat="43.411554" lon="-6.004595">
        <ele>154.0</ele>
        <time>2012-03-02T17:31:06Z</time>
      </trkpt>
      <trkpt lat="43.411721" lon="-6.004361">
        <ele>154.0</ele>
        <time>2012-03-02T17:31:10Z</time>
      </trkpt>
      <trkpt lat="43.411881" lon="-6.004124">
        <ele>154.0</ele>
        <time>2012-03-02T17:31:14Z</time>
      </trkpt>
      <trkpt lat="43.412039" lon="-6.003885">
        <ele>155.0</ele>
        <time>2012-03-02T17:31:18Z</time>
      </trkpt>
      <trkpt lat="43.412184" lon="-6.003628">
        <ele>155.0</ele>
        <time>2012-03-02T17:31:22Z</time>
      </trkpt>
      <trkpt lat="43.412309" lon="-6.003355">
        <ele>155.0</ele>
        <time>2012-03-02T17:31:26Z</time>
      </trkpt>
      <trkpt lat="43.412409" lon="-6.003064">
        <ele>156.0</ele>
        <time>2012-03-02T17:31:30Z</time>
      </trkpt>
      <trkpt lat="43.412479" lon="-6.002756">
        <ele>156.0</ele>
        <time>2012-03-02T17:31:34Z</time>
      </trkpt>
      <trkpt lat="43.412521" lon="-6.002441">
        <ele>157.0</ele>
        <time>2012-03-02T17:31:38Z</time>
      </trkpt>
      <trkpt lat="43.412534" lon="-6.002121">
        <ele>158.0</ele>
        <time>2012-03-02T17:31:42Z</time>
      </trkpt>
      <trkpt lat="43.41253" lon="-6.001803">
        <ele>159.0</ele>
        <time>2012-03-02T17:31:46Z</time>
      </trkpt>
      <trkpt lat="43.412518" lon="-6.001485">
        <ele>160.0</ele>
        <time>2012-03-02T17:31:50Z</time>
      </trkpt>
      <trkpt lat="43.412508" lon="-6.001163">
        <ele>160.0</ele>
        <time>2012-03-02T17:31:54Z</time>
      </trkpt>
      <trkpt lat="43.4125" lon="-6.00084">
        <ele>161.0</ele>
        <time>2012-03-02T17:31:58Z</time>
      </trkpt>
      <trkpt lat="43.412523" lon="-6.000516">
        <ele>161.0</ele>
        <time>2012-03-02T17:32:02Z</time>
      </trkpt>
      <trkpt lat="43.412577" lon="-6.0002">
        <ele>162.0</ele>
        <time>2012-03-02T17:32:06Z</time>
      </trkpt>
      <trkpt lat="43.412655" lon="-5.999894">
        <ele>163.0</ele>
        <time>2012-03-02T17:32:10Z</time>
      </trkpt>
      <trkpt lat="43.412763" lon="-5.999613">
        <ele>163.0</ele>
        <time>2012-03-02T17:32:14Z</time>
      </trkpt>
      <trkpt lat="43.412903" lon="-5.99936">
        <ele>163.0</ele>
        <time>2012-03-02T17:32:18Z</time>
      </trkpt>
      <trkpt lat="43.413069" lon="-5.999135">
        <ele>164.0</ele>
        <time>2012-03-02T17:32:22Z</time>
      </trkpt>
      <trkpt lat="43.413254" lon="-5.998935">
        <ele>164.0</ele>
        <time>2012-03-02T17:32:26Z</time>
      </trkpt>
      <trkpt lat="43.413452" lon="-5.998764">
        <ele>165.0</ele>
        <time>2012-03-02T17:32:30Z</time>
      </trkpt>
      <trkpt lat="43.413659" lon="-5.998633">
        <ele>165.0</ele>
        <time>2012-03-02T17:32:34Z</time>
      </trkpt>
      <trkpt lat="43.413872" lon="-5.998526">
        <ele>166.0</ele>
        <time>2012-03-02T17:32:38Z</time>
      </trkpt>
      <trkpt lat="43.414067" lon="-5.998359">
        <ele>166.0</ele>
        <time>2012-03-02T17:32:42Z</time>
      </trkpt>
      <trkpt lat="43.414234" lon="-5.998129">
        <ele>166.0</ele>
        <time>2012-03-02T17:32:46Z</time>
      </trkpt>
      <trkpt lat="43.414439" lon="-5.997969">
        <ele>166.0</ele>
        <time>2012-03-02T17:32:50Z</time>
      </trkpt>
      <trkpt lat="43.414674" lon="-5.997932">
        <ele>167.0</ele>
        <time>2012-03-02T17:32:54Z</time>
      </trkpt>
      <trkpt lat="43.414916" lon="-5.997915">
        <ele>167.0</ele>
        <time>2012-03-02T17:32:58Z</time>
      </trkpt>
      <trkpt lat="43.4152" lon="-5.997752">
        <ele>167.0</ele>
        <time>2012-03-02T17:33:03Z</time>
      </trkpt>
      <trkpt lat="43.415355" lon="-5.997488">
        <ele>167.0</ele>
        <time>2012-03-02T17:33:07Z</time>
      </trkpt>
      <trkpt lat="43.415425" lon="-5.99715">
        <ele>167.0</ele>
        <time>2012-03-02T17:33:11Z</time>
      </trkpt>
      <trkpt lat="43.41547" lon="-5.996797">
        <ele>168.0</ele>
        <time>2012-03-02T17:33:15Z</time>
      </trkpt>
      <trkpt lat="43.415512" lon="-5.996449">
        <ele>169.0</ele>
        <time>2012-03-02T17:33:19Z</time>
      </trkpt>
      <trkpt lat="43.415541" lon="-5.996096">
        <ele>170.0</ele>
        <time>2012-03-02T17:33:23Z</time>
      </trkpt>
      <trkpt lat="43.415564" lon="-5.995752">
        <ele>172.0</ele>
        <time>2012-03-02T17:33:27Z</time>
      </trkpt>
      <trkpt lat="43.415599" lon="-5.995415">
        <ele>172.0</ele>
        <time>2012-03-02T17:33:31Z</time>
      </trkpt>
      <trkpt lat="43.415678" lon="-5.995097">
        <ele>173.0</ele>
        <time>2012-03-02T17:33:35Z</time>
      </trkpt>
      <trkpt lat="43.415844" lon="-5.994839">
        <ele>174.0</ele>
        <time>2012-03-02T17:33:39Z</time>
      </trkpt>
      <trkpt lat="43.415993" lon="-5.994684">
        <ele>175.0</ele>
        <time>2012-03-02T17:33:42Z</time>
      </trkpt>
      <trkpt lat="43.41619" lon="-5.994486">
        <ele>175.0</ele>
        <time>2012-03-02T17:33:46Z</time>
      </trkpt>
      <trkpt lat="43.416342" lon="-5.99422">
        <ele>175.0</ele>
        <time>2012-03-02T17:33:50Z</time>
      </trkpt>
      <trkpt lat="43.416415" lon="-5.993795">
        <ele>176.0</ele>
        <time>2012-03-02T17:33:55Z</time>
      </trkpt>
      <trkpt lat="43.416433" lon="-5.993439">
        <ele>176.0</ele>
        <time>2012-03-02T17:33:59Z</time>
      </trkpt>
      <trkpt lat="43.416449" lon="-5.993091">
        <ele>176.0</ele>
        <time>2012-03-02T17:34:03Z</time>
      </trkpt>
      <trkpt lat="43.416464" lon="-5.99283">
        <ele>176.0</ele>
        <time>2012-03-02T17:34:06Z</time>
      </trkpt>
      <trkpt lat="43.416538" lon="-5.992415">
        <ele>176.0</ele>
        <time>2012-03-02T17:34:11Z</time>
      </trkpt>
      <trkpt lat="43.416678" lon="-5.992141">
        <ele>177.0</ele>
        <time>2012-03-02T17:34:15Z</time>
      </trkpt>
      <trkpt lat="43.416872" lon="-5.991935">
        <ele>177.0</ele>
        <time>2012-03-02T17:34:19Z</time>
      </trkpt>
      <trkpt lat="43.41708" lon="-5.991754">
        <ele>178.0</ele>
        <time>2012-03-02T17:34:23Z</time>
      </trkpt>
      <trkpt lat="43.417282" lon="-5.991566">
        <ele>178.0</ele>
        <time>2012-03-02T17:34:27Z</time>
      </trkpt>
      <trkpt lat="43.417482" lon="-5.991389">
        <ele>178.0</ele>
        <time>2012-03-02T17:34:31Z</time>
      </trkpt>
      <trkpt lat="43.417679" lon="-5.991218">
        <ele>179.0</ele>
        <time>2012-03-02T17:34:35Z</time>
      </trkpt>
      <trkpt lat="43.41789" lon="-5.991069">
        <ele>179.0</ele>
        <time>2012-03-02T17:34:39Z</time>
      </trkpt>
      <trkpt lat="43.418106" lon="-5.990919">
        <ele>179.0</ele>
        <time>2012-03-02T17:34:43Z</time>
      </trkpt>
      <trkpt lat="43.418319" lon="-5.990751">
        <ele>180.0</ele>
        <time>2012-03-02T17:34:47Z</time>
      </trkpt>
      <trkpt lat="43.418524" lon="-5.990571">
        <ele>180.0</ele>
        <time>2012-03-02T17:34:51Z</time>
      </trkpt>
      <trkpt lat="43.418726" lon="-5.990393">
        <ele>180.0</ele>
        <time>2012-03-02T17:34:55Z</time>
      </trkpt>
      <trkpt lat="43.418925" lon="-5.990224">
        <ele>181.0</ele>
        <time>2012-03-02T17:34:59Z</time>
      </trkpt>
      <trkpt lat="43.419128" lon="-5.990055">
        <ele>182.0</ele>
        <time>2012-03-02T17:35:03Z</time>
      </trkpt>
      <trkpt lat="43.419334" lon="-5.989879">
        <ele>182.0</ele>
        <time>2012-03-02T17:35:07Z</time>
      </trkpt>
      <trkpt lat="43.419539" lon="-5.989699">
        <ele>182.0</ele>
        <time>2012-03-02T17:35:11Z</time>
      </trkpt>
      <trkpt lat="43.419741" lon="-5.989519">
        <ele>183.0</ele>
        <time>2012-03-02T17:35:15Z</time>
      </trkpt>
      <trkpt lat="43.419935" lon="-5.989335">
        <ele>183.0</ele>
        <time>2012-03-02T17:35:19Z</time>
      </trkpt>
      <trkpt lat="43.420122" lon="-5.989126">
        <ele>183.0</ele>
        <time>2012-03-02T17:35:23Z</time>
      </trkpt>
      <trkpt lat="43.420297" lon="-5.988889">
        <ele>184.0</ele>
        <time>2012-03-02T17:35:27Z</time>
      </trkpt>
      <trkpt lat="43.42042" lon="-5.988688">
        <ele>184.0</ele>
        <time>2012-03-02T17:35:30Z</time>
      </trkpt>
      <trkpt lat="43.420567" lon="-5.98843">
        <ele>184.0</ele>
        <time>2012-03-02T17:35:34Z</time>
      </trkpt>
      <trkpt lat="43.420745" lon="-5.988098">
        <ele>185.0</ele>
        <time>2012-03-02T17:35:39Z</time>
      </trkpt>
      <trkpt lat="43.42086" lon="-5.987887">
        <ele>185.0</ele>
        <time>2012-03-02T17:35:42Z</time>
      </trkpt>
      <trkpt lat="43.42074" lon="-5.98754">
        <ele>186.0</ele>
        <time>2012-03-02T17:35:47Z</time>
      </trkpt>
      <trkpt lat="43.420429" lon="-5.987425">
        <ele>186.0</ele>
        <time>2012-03-02T17:35:51Z</time>
      </trkpt>
      <trkpt lat="43.420034" lon="-5.987334">
        <ele>185.0</ele>
        <time>2012-03-02T17:35:55Z</time>
      </trkpt>
      <trkpt lat="43.419652" lon="-5.987469">
        <ele>185.0</ele>
        <time>2012-03-02T17:35:59Z</time>
      </trkpt>
      <trkpt lat="43.419368" lon="-5.987732">
        <ele>184.0</ele>
        <time>2012-03-02T17:36:03Z</time>
      </trkpt>
      <trkpt lat="43.419177" lon="-5.988033">
        <ele>185.0</ele>
        <time>2012-03-02T17:36:07Z</time>
      </trkpt>
      <trkpt lat="43.419027" lon="-5.988315">
        <ele>186.0</ele>
        <time>2012-03-02T17:36:11Z</time>
      </trkpt>
      <trkpt lat="43.418916" lon="-5.988606">
        <ele>187.0</ele>
        <time>2012-03-02T17:36:15Z</time>
      </trkpt>
      <trkpt lat="43.418816" lon="-5.988884">
        <ele>187.0</ele>
        <time>2012-03-02T17:36:19Z</time>
      </trkpt>
      <trkpt lat="43.418705" lon="-5.989138">
        <ele>187.0</ele>
        <time>2012-03-02T17:36:23Z</time>
      </trkpt>
      <trkpt lat="43.418557" lon="-5.989348">
        <ele>187.0</ele>
        <time>2012-03-02T17:36:27Z</time>
      </trkpt>
      <trkpt lat="43.418385" lon="-5.989541">
        <ele>188.0</ele>
        <time>2012-03-02T17:36:31Z</time>
      </trkpt>
      <trkpt lat="43.418208" lon="-5.989694">
        <ele>188.0</ele>
        <time>2012-03-02T17:36:35Z</time>
      </trkpt>
      <trkpt lat="43.418004" lon="-5.98977">
        <ele>189.0</ele>
        <time>2012-03-02T17:36:39Z</time>
      </trkpt>
      <trkpt lat="43.417787" lon="-5.989822">
        <ele>189.0</ele>
        <time>2012-03-02T17:36:43Z</time>
      </trkpt>
      <trkpt lat="43.417577" lon="-5.989915">
        <ele>190.0</ele>
        <time>2012-03-02T17:36:47Z</time>
      </trkpt>
      <trkpt lat="43.417369" lon="-5.990031">
        <ele>190.0</ele>
        <time>2012-03-02T17:36:51Z</time>
      </trkpt>
      <trkpt lat="43.417157" lon="-5.990124">
        <ele>191.0</ele>
        <time>2012-03-02T17:36:55Z</time>
      </trkpt>
      <trkpt lat="43.416945" lon="-5.990094">
        <ele>191.0</ele>
        <time>2012-03-02T17:36:59Z</time>
      </trkpt>
      <trkpt lat="43.416836" lon="-5.989859">
        <ele>192.0</ele>
        <time>2012-03-02T17:37:03Z</time>
      </trkpt>
      <trkpt lat="43.416805" lon="-5.989541">
        <ele>193.0</ele>
        <time>2012-03-02T17:37:07Z</time>
      </trkpt>
      <trkpt lat="43.416796" lon="-5.989223">
        <ele>193.0</ele>
        <time>2012-03-02T17:37:11Z</time>
      </trkpt>
      <trkpt lat="43.416823" lon="-5.988909">
        <ele>193.0</ele>
        <time>2012-03-02T17:37:15Z</time>
      </trkpt>
      <trkpt lat="43.416866" lon="-5.988601">
        <ele>194.0</ele>
        <time>2012-03-02T17:37:19Z</time>
      </trkpt>
      <trkpt lat="43.416905" lon="-5.988293">
        <ele>194.0</ele>
        <time>2012-03-02T17:37:23Z</time>
      </trkpt>
      <trkpt lat="43.416899" lon="-5.987986">
        <ele>195.0</ele>
        <time>2012-03-02T17:37:27Z</time>
      </trkpt>
      <trkpt lat="43.416831" lon="-5.98769">
        <ele>195.0</ele>
        <time>2012-03-02T17:37:31Z</time>
      </trkpt>
      <trkpt lat="43.416746" lon="-5.987387">
        <ele>196.0</ele>
        <time>2012-03-02T17:37:35Z</time>
      </trkpt>
      <trkpt lat="43.416708" lon="-5.987064">
        <ele>196.0</ele>
        <time>2012-03-02T17:37:39Z</time>
      </trkpt>
      <trkpt lat="43.416658" lon="-5.986754">
        <ele>196.0</ele>
        <time>2012-03-02T17:37:43Z</time>
      </trkpt>
      <trkpt lat="43.416518" lon="-5.986514">
        <ele>197.0</ele>
        <time>2012-03-02T17:37:47Z</time>
      </trkpt>
      <trkpt lat="43.416417" lon="-5.986244">
        <ele>197.0</ele>
        <time>2012-03-02T17:37:51Z</time>
      </trkpt>
      <trkpt lat="43.4164" lon="-5.985941">
        <ele>197.0</ele>
        <time>2012-03-02T17:37:55Z</time>
      </trkpt>
      <trkpt lat="43.416409" lon="-5.98564">
        <ele>198.0</ele>
        <time>2012-03-02T17:37:59Z</time>
      </trkpt>
      <trkpt lat="43.416424" lon="-5.985342">
        <ele>198.0</ele>
        <time>2012-03-02T17:38:03Z</time>
      </trkpt>
      <trkpt lat="43.416434" lon="-5.985048">
        <ele>198.0</ele>
        <time>2012-03-02T17:38:07Z</time>
      </trkpt>
      <trkpt lat="43.416444" lon="-5.984762">
        <ele>199.0</ele>
        <time>2012-03-02T17:38:11Z</time>
      </trkpt>
      <trkpt lat="43.416452" lon="-5.984518">
        <ele>199.0</ele>
        <time>2012-03-02T17:38:15Z</time>
      </trkpt>
      <trkpt lat="43.416449" lon="-5.98429">
        <ele>200.0</ele>
        <time>2012-03-02T17:38:19Z</time>
      </trkpt>
      <trkpt lat="43.416423" lon="-5.984068">
        <ele>201.0</ele>
        <time>2012-03-02T17:38:23Z</time>
      </trkpt>
      <trkpt lat="43.416386" lon="-5.983853">
        <ele>202.0</ele>
        <time>2012-03-02T17:38:27Z</time>
      </trkpt>
      <trkpt lat="43.41636" lon="-5.983654">
        <ele>202.0</ele>
        <time>2012-03-02T17:38:31Z</time>
      </trkpt>
      <trkpt lat="43.416323" lon="-5.983469">
        <ele>203.0</ele>
        <time>2012-03-02T17:38:35Z</time>
      </trkpt>
      <trkpt lat="43.416286" lon="-5.983284">
        <ele>203.0</ele>
        <time>2012-03-02T17:38:39Z</time>
      </trkpt>
      <trkpt lat="43.416254" lon="-5.983093">
        <ele>203.0</ele>
        <time>2012-03-02T17:38:43Z</time>
      </trkpt>
      <trkpt lat="43.4162" lon="-5.982916">
        <ele>203.0</ele>
        <time>2012-03-02T17:38:47Z</time>
      </trkpt>
      <trkpt lat="43.416115" lon="-5.982758">
        <ele>204.0</ele>
        <time>2012-03-02T17:38:51Z</time>
      </trkpt>
      <trkpt lat="43.416029" lon="-5.982603">
        <ele>204.0</ele>
        <time>2012-03-02T17:38:55Z</time>
      </trkpt>
      <trkpt lat="43.415955" lon="-5.982442">
        <ele>205.0</ele>
        <time>2012-03-02T17:38:59Z</time>
      </trkpt>
      <trkpt lat="43.415905" lon="-5.982258">
        <ele>205.0</ele>
        <time>2012-03-02T17:39:03Z</time>
      </trkpt>
      <trkpt lat="43.415868" lon="-5.982075">
        <ele>206.0</ele>
        <time>2012-03-02T17:39:07Z</time>
      </trkpt>
      <trkpt lat="43.41584" lon="-5.981892">
        <ele>206.0</ele>
        <time>2012-03-02T17:39:11Z</time>
      </trkpt>
      <trkpt lat="43.415815" lon="-5.981703">
        <ele>207.0</ele>
        <time>2012-03-02T17:39:15Z</time>
      </trkpt>
      <trkpt lat="43.415815" lon="-5.981511">
        <ele>207.0</ele>
        <time>2012-03-02T17:39:19Z</time>
      </trkpt>
      <trkpt lat="43.415904" lon="-5.98134">
        <ele>210.0</ele>
        <time>2012-03-02T17:39:23Z</time>
      </trkpt>
      <trkpt lat="43.416014" lon="-5.98118">
        <ele>213.0</ele>
        <time>2012-03-02T17:39:27Z</time>
      </trkpt>
      <trkpt lat="43.416043" lon="-5.980988">
        <ele>213.0</ele>
        <time>2012-03-02T17:39:31Z</time>
      </trkpt>
      <trkpt lat="43.416007" lon="-5.980795">
        <ele>214.0</ele>
        <time>2012-03-02T17:39:35Z</time>
      </trkpt>
      <trkpt lat="43.415906" lon="-5.980641">
        <ele>216.0</ele>
        <time>2012-03-02T17:39:39Z</time>
      </trkpt>
      <trkpt lat="43.415752" lon="-5.980601">
        <ele>220.0</ele>
        <time>2012-03-02T17:39:43Z</time>
      </trkpt>
      <trkpt lat="43.415599" lon="-5.980654">
        <ele>222.0</ele>
        <time>2012-03-02T17:39:47Z</time>
      </trkpt>
      <trkpt lat="43.415454" lon="-5.980743">
        <ele>223.0</ele>
        <time>2012-03-02T17:39:51Z</time>
      </trkpt>
      <trkpt lat="43.415307" lon="-5.980808">
        <ele>224.0</ele>
        <time>2012-03-02T17:39:55Z</time>
      </trkpt>
      <trkpt lat="43.415174" lon="-5.980739">
        <ele>225.0</ele>
        <time>2012-03-02T17:39:59Z</time>
      </trkpt>
      <trkpt lat="43.415138" lon="-5.98056">
        <ele>225.0</ele>
        <time>2012-03-02T17:40:03Z</time>
      </trkpt>
      <trkpt lat="43.415171" lon="-5.980385">
        <ele>225.0</ele>
        <time>2012-03-02T17:40:07Z</time>
      </trkpt>
      <trkpt lat="43.415228" lon="-5.980224">
        <ele>226.0</ele>
        <time>2012-03-02T17:40:11Z</time>
      </trkpt>
      <trkpt lat="43.415295" lon="-5.980055">
        <ele>226.0</ele>
        <time>2012-03-02T17:40:15Z</time>
      </trkpt>
      <trkpt lat="43.415318" lon="-5.979866">
        <ele>227.0</ele>
        <time>2012-03-02T17:40:19Z</time>
      </trkpt>
      <trkpt lat="43.415281" lon="-5.979677">
        <ele>228.0</ele>
        <time>2012-03-02T17:40:23Z</time>
      </trkpt>
      <trkpt lat="43.41523" lon="-5.979477">
        <ele>231.0</ele>
        <time>2012-03-02T17:40:27Z</time>
      </trkpt>
      <trkpt lat="43.415199" lon="-5.97927">
        <ele>234.0</ele>
        <time>2012-03-02T17:40:31Z</time>
      </trkpt>
      <trkpt lat="43.415194" lon="-5.979064">
        <ele>235.0</ele>
        <time>2012-03-02T17:40:35Z</time>
      </trkpt>
      <trkpt lat="43.415221" lon="-5.978862">
        <ele>236.0</ele>
        <time>2012-03-02T17:40:39Z</time>
      </trkpt>
      <trkpt lat="43.415272" lon="-5.978671">
        <ele>237.0</ele>
        <time>2012-03-02T17:40:43Z</time>
      </trkpt>
      <trkpt lat="43.415328" lon="-5.978478">
        <ele>238.0</ele>
        <time>2012-03-02T17:40:47Z</time>
      </trkpt>
      <trkpt lat="43.415412" lon="-5.978301">
        <ele>240.0</ele>
        <time>2012-03-02T17:40:51Z</time>
      </trkpt>
      <trkpt lat="43.415454" lon="-5.978211">
        <ele>242.0</ele>
        <time>2012-03-02T17:40:53Z</time>
      </trkpt>
      <trkpt lat="43.415536" lon="-5.97791">
        <ele>245.0</ele>
        <time>2012-03-02T17:40:59Z</time>
      </trkpt>
      <trkpt lat="43.415524" lon="-5.977688">
        <ele>246.0</ele>
        <time>2012-03-02T17:41:03Z</time>
      </trkpt>
      <trkpt lat="43.415495" lon="-5.977481">
        <ele>247.0</ele>
        <time>2012-03-02T17:41:07Z</time>
      </trkpt>
      <trkpt lat="43.415465" lon="-5.977277">
        <ele>247.0</ele>
        <time>2012-03-02T17:41:11Z</time>
      </trkpt>
      <trkpt lat="43.415434" lon="-5.977066">
        <ele>249.0</ele>
        <time>2012-03-02T17:41:15Z</time>
      </trkpt>
      <trkpt lat="43.415376" lon="-5.976872">
        <ele>250.0</ele>
        <time>2012-03-02T17:41:19Z</time>
      </trkpt>
      <trkpt lat="43.41529" lon="-5.976673">
        <ele>250.0</ele>
        <time>2012-03-02T17:41:23Z</time>
      </trkpt>
      <trkpt lat="43.415187" lon="-5.976426">
        <ele>251.0</ele>
        <time>2012-03-02T17:41:27Z</time>
      </trkpt>
      <trkpt lat="43.415065" lon="-5.976145">
        <ele>252.0</ele>
        <time>2012-03-02T17:41:31Z</time>
      </trkpt>
      <trkpt lat="43.414932" lon="-5.975819">
        <ele>252.0</ele>
        <time>2012-03-02T17:41:35Z</time>
      </trkpt>
      <trkpt lat="43.41484" lon="-5.975461">
        <ele>252.0</ele>
        <time>2012-03-02T17:41:39Z</time>
      </trkpt>
      <trkpt lat="43.414835" lon="-5.975079">
        <ele>253.0</ele>
        <time>2012-03-02T17:41:43Z</time>
      </trkpt>
      <trkpt lat="43.41485" lon="-5.974688">
        <ele>253.0</ele>
        <time>2012-03-02T17:41:47Z</time>
      </trkpt>
      <trkpt lat="43.414869" lon="-5.974281">
        <ele>254.0</ele>
        <time>2012-03-02T17:41:51Z</time>
      </trkpt>
      <trkpt lat="43.414878" lon="-5.973979">
        <ele>254.0</ele>
        <time>2012-03-02T17:41:54Z</time>
      </trkpt>
      <trkpt lat="43.41489" lon="-5.973477">
        <ele>251.0</ele>
        <time>2012-03-02T17:41:59Z</time>
      </trkpt>
      <trkpt lat="43.414906" lon="-5.97307">
        <ele>250.0</ele>
        <time>2012-03-02T17:42:03Z</time>
      </trkpt>
      <trkpt lat="43.414975" lon="-5.972649">
        <ele>250.0</ele>
        <time>2012-03-02T17:42:07Z</time>
      </trkpt>
      <trkpt lat="43.415001" lon="-5.972189">
        <ele>249.0</ele>
        <time>2012-03-02T17:42:11Z</time>
      </trkpt>
      <trkpt lat="43.414841" lon="-5.971759">
        <ele>247.0</ele>
        <time>2012-03-02T17:42:15Z</time>
      </trkpt>
      <trkpt lat="43.414703" lon="-5.971302">
        <ele>246.0</ele>
        <time>2012-03-02T17:42:19Z</time>
      </trkpt>
      <trkpt lat="43.414637" lon="-5.970783">
        <ele>245.0</ele>
        <time>2012-03-02T17:42:23Z</time>
      </trkpt>
      <trkpt lat="43.414528" lon="-5.970279">
        <ele>244.0</ele>
        <time>2012-03-02T17:42:27Z</time>
      </trkpt>
      <trkpt lat="43.414339" lon="-5.969821">
        <ele>243.0</ele>
        <time>2012-03-02T17:42:31Z</time>
      </trkpt>
      <trkpt lat="43.414263" lon="-5.96942">
        <ele>243.0</ele>
        <time>2012-03-02T17:42:35Z</time>
      </trkpt>
      <trkpt lat="43.414151" lon="-5.969224">
        <ele>242.0</ele>
        <time>2012-03-02T17:42:39Z</time>
      </trkpt>
      <trkpt lat="43.413933" lon="-5.969339">
        <ele>241.0</ele>
        <time>2012-03-02T17:42:43Z</time>
      </trkpt>
      <trkpt lat="43.413696" lon="-5.969507">
        <ele>240.0</ele>
        <time>2012-03-02T17:42:47Z</time>
      </trkpt>
      <trkpt lat="43.413437" lon="-5.96952">
        <ele>239.0</ele>
        <time>2012-03-02T17:42:51Z</time>
      </trkpt>
      <trkpt lat="43.413266" lon="-5.969416">
        <ele>239.0</ele>
        <time>2012-03-02T17:42:54Z</time>
      </trkpt>
      <trkpt lat="43.413056" lon="-5.969256">
        <ele>238.0</ele>
        <time>2012-03-02T17:42:58Z</time>
      </trkpt>
      <trkpt lat="43.41286" lon="-5.969105">
        <ele>237.0</ele>
        <time>2012-03-02T17:43:02Z</time>
      </trkpt>
      <trkpt lat="43.412671" lon="-5.968962">
        <ele>237.0</ele>
        <time>2012-03-02T17:43:06Z</time>
      </trkpt>
      <trkpt lat="43.412481" lon="-5.968815">
        <ele>237.0</ele>
        <time>2012-03-02T17:43:10Z</time>
      </trkpt>
      <trkpt lat="43.412282" lon="-5.96866">
        <ele>237.0</ele>
        <time>2012-03-02T17:43:14Z</time>
      </trkpt>
      <trkpt lat="43.412082" lon="-5.968488">
        <ele>237.0</ele>
        <time>2012-03-02T17:43:18Z</time>
      </trkpt>
      <trkpt lat="43.411878" lon="-5.96834">
        <ele>238.0</ele>
        <time>2012-03-02T17:43:22Z</time>
      </trkpt>
      <trkpt lat="43.411663" lon="-5.968281">
        <ele>238.0</ele>
        <time>2012-03-02T17:43:26Z</time>
      </trkpt>
      <trkpt lat="43.411452" lon="-5.968314">
        <ele>239.0</ele>
        <time>2012-03-02T17:43:30Z</time>
      </trkpt>
      <trkpt lat="43.411262" lon="-5.968427">
        <ele>240.0</ele>
        <time>2012-03-02T17:43:34Z</time>
      </trkpt>
      <trkpt lat="43.411084" lon="-5.968556">
        <ele>240.0</ele>
        <time>2012-03-02T17:43:38Z</time>
      </trkpt>
      <trkpt lat="43.410896" lon="-5.96863">
        <ele>240.0</ele>
        <time>2012-03-02T17:43:42Z</time>
      </trkpt>
      <trkpt lat="43.410701" lon="-5.968683">
        <ele>241.0</ele>
        <time>2012-03-02T17:43:46Z</time>
      </trkpt>
      <trkpt lat="43.410513" lon="-5.968732">
        <ele>241.0</ele>
        <time>2012-03-02T17:43:50Z</time>
      </trkpt>
      <trkpt lat="43.410343" lon="-5.96881">
        <ele>242.0</ele>
        <time>2012-03-02T17:43:54Z</time>
      </trkpt>
      <trkpt lat="43.4102" lon="-5.968961">
        <ele>242.0</ele>
        <time>2012-03-02T17:43:58Z</time>
      </trkpt>
      <trkpt lat="43.410071" lon="-5.969155">
        <ele>243.0</ele>
        <time>2012-03-02T17:44:02Z</time>
      </trkpt>
      <trkpt lat="43.40994" lon="-5.969358">
        <ele>243.0</ele>
        <time>2012-03-02T17:44:06Z</time>
      </trkpt>
      <trkpt lat="43.409815" lon="-5.969577">
        <ele>244.0</ele>
        <time>2012-03-02T17:44:10Z</time>
      </trkpt>
      <trkpt lat="43.409725" lon="-5.969839">
        <ele>245.0</ele>
        <time>2012-03-02T17:44:14Z</time>
      </trkpt>
      <trkpt lat="43.409655" lon="-5.97012">
        <ele>246.0</ele>
        <time>2012-03-02T17:44:18Z</time>
      </trkpt>
      <trkpt lat="43.409585" lon="-5.970401">
        <ele>246.0</ele>
        <time>2012-03-02T17:44:22Z</time>
      </trkpt>
      <trkpt lat="43.409505" lon="-5.970659">
        <ele>247.0</ele>
        <time>2012-03-02T17:44:26Z</time>
      </trkpt>
      <trkpt lat="43.409413" lon="-5.970936">
        <ele>247.0</ele>
        <time>2012-03-02T17:44:30Z</time>
      </trkpt>
      <trkpt lat="43.409299" lon="-5.971223">
        <ele>248.0</ele>
        <time>2012-03-02T17:44:34Z</time>
      </trkpt>
      <trkpt lat="43.409167" lon="-5.971529">
        <ele>249.0</ele>
        <time>2012-03-02T17:44:38Z</time>
      </trkpt>
      <trkpt lat="43.409026" lon="-5.971842">
        <ele>251.0</ele>
        <time>2012-03-02T17:44:42Z</time>
      </trkpt>
      <trkpt lat="43.408888" lon="-5.972163">
        <ele>251.0</ele>
        <time>2012-03-02T17:44:46Z</time>
      </trkpt>
      <trkpt lat="43.408763" lon="-5.972528">
        <ele>251.0</ele>
        <time>2012-03-02T17:44:50Z</time>
      </trkpt>
      <trkpt lat="43.408653" lon="-5.972965">
        <ele>250.0</ele>
        <time>2012-03-02T17:44:54Z</time>
      </trkpt>
      <trkpt lat="43.408521" lon="-5.973454">
        <ele>250.0</ele>
        <time>2012-03-02T17:44:58Z</time>
      </trkpt>
      <trkpt lat="43.408373" lon="-5.974032">
        <ele>249.0</ele>
        <time>2012-03-02T17:45:02Z</time>
      </trkpt>
      <trkpt lat="43.408275" lon="-5.974705">
        <ele>248.0</ele>
        <time>2012-03-02T17:45:06Z</time>
      </trkpt>
      <trkpt lat="43.408219" lon="-5.97527">
        <ele>248.0</ele>
        <time>2012-03-02T17:45:10Z</time>
      </trkpt>
      <trkpt lat="43.407909" lon="-5.975303">
        <ele>247.0</ele>
        <time>2012-03-02T17:45:15Z</time>
      </trkpt>
      <trkpt lat="43.407682" lon="-5.975069">
        <ele>245.0</ele>
        <time>2012-03-02T17:45:18Z</time>
      </trkpt>
      <trkpt lat="43.407165" lon="-5.974891">
        <ele>241.0</ele>
        <time>2012-03-02T17:45:23Z</time>
      </trkpt>
      <trkpt lat="43.406808" lon="-5.975055">
        <ele>239.0</ele>
        <time>2012-03-02T17:45:26Z</time>
      </trkpt>
      <trkpt lat="43.406328" lon="-5.975286">
        <ele>235.0</ele>
        <time>2012-03-02T17:45:30Z</time>
      </trkpt>
      <trkpt lat="43.405806" lon="-5.975351">
        <ele>232.0</ele>
        <time>2012-03-02T17:45:34Z</time>
      </trkpt>
      <trkpt lat="43.405366" lon="-5.975694">
        <ele>229.0</ele>
        <time>2012-03-02T17:45:38Z</time>
      </trkpt>
      <trkpt lat="43.404793" lon="-5.976133">
        <ele>225.0</ele>
        <time>2012-03-02T17:45:43Z</time>
      </trkpt>
      <trkpt lat="43.404448" lon="-5.976328">
        <ele>222.0</ele>
        <time>2012-03-02T17:45:46Z</time>
      </trkpt>
      <trkpt lat="43.404107" lon="-5.976677">
        <ele>220.0</ele>
        <time>2012-03-02T17:45:50Z</time>
      </trkpt>
      <trkpt lat="43.403769" lon="-5.976803">
        <ele>218.0</ele>
        <time>2012-03-02T17:45:54Z</time>
      </trkpt>
      <trkpt lat="43.403325" lon="-5.976868">
        <ele>217.0</ele>
        <time>2012-03-02T17:45:59Z</time>
      </trkpt>
      <trkpt lat="43.403058" lon="-5.976944">
        <ele>216.0</ele>
        <time>2012-03-02T17:46:02Z</time>
      </trkpt>
      <trkpt lat="43.402722" lon="-5.977109">
        <ele>215.0</ele>
        <time>2012-03-02T17:46:06Z</time>
      </trkpt>
      <trkpt lat="43.4024" lon="-5.977271">
        <ele>213.0</ele>
        <time>2012-03-02T17:46:10Z</time>
      </trkpt>
      <trkpt lat="43.402082" lon="-5.977434">
        <ele>212.0</ele>
        <time>2012-03-02T17:46:14Z</time>
      </trkpt>
      <trkpt lat="43.401776" lon="-5.977789">
        <ele>211.0</ele>
        <time>2012-03-02T17:46:19Z</time>
      </trkpt>
      <trkpt lat="43.401634" lon="-5.978152">
        <ele>211.0</ele>
        <time>2012-03-02T17:46:23Z</time>
      </trkpt>
      <trkpt lat="43.401509" lon="-5.978576">
        <ele>211.0</ele>
        <time>2012-03-02T17:46:27Z</time>
      </trkpt>
      <trkpt lat="43.401328" lon="-5.978979">
        <ele>210.0</ele>
        <time>2012-03-02T17:46:31Z</time>
      </trkpt>
      <trkpt lat="43.401141" lon="-5.979344">
        <ele>210.0</ele>
        <time>2012-03-02T17:46:35Z</time>
      </trkpt>
      <trkpt lat="43.400928" lon="-5.979653">
        <ele>210.0</ele>
        <time>2012-03-02T17:46:39Z</time>
      </trkpt>
      <trkpt lat="43.400631" lon="-5.979822">
        <ele>209.0</ele>
        <time>2012-03-02T17:46:43Z</time>
      </trkpt>
      <trkpt lat="43.400366" lon="-5.979976">
        <ele>209.0</ele>
        <time>2012-03-02T17:46:46Z</time>
      </trkpt>
      <trkpt lat="43.39984" lon="-5.980169">
        <ele>208.0</ele>
        <time>2012-03-02T17:46:51Z</time>
      </trkpt>
      <trkpt lat="43.399488" lon="-5.980503">
        <ele>208.0</ele>
        <time>2012-03-02T17:46:55Z</time>
      </trkpt>
      <trkpt lat="43.399154" lon="-5.980813">
        <ele>208.0</ele>
        <time>2012-03-02T17:46:59Z</time>
      </trkpt>
      <trkpt lat="43.39887" lon="-5.981105">
        <ele>208.0</ele>
        <time>2012-03-02T17:47:03Z</time>
      </trkpt>
      <trkpt lat="43.398625" lon="-5.981364">
        <ele>209.0</ele>
        <time>2012-03-02T17:47:07Z</time>
      </trkpt>
      <trkpt lat="43.398375" lon="-5.98156">
        <ele>209.0</ele>
        <time>2012-03-02T17:47:11Z</time>
      </trkpt>
      <trkpt lat="43.398135" lon="-5.981762">
        <ele>209.0</ele>
        <time>2012-03-02T17:47:15Z</time>
      </trkpt>
      <trkpt lat="43.397956" lon="-5.982083">
        <ele>209.0</ele>
        <time>2012-03-02T17:47:19Z</time>
      </trkpt>
      <trkpt lat="43.39786" lon="-5.982481">
        <ele>210.0</ele>
        <time>2012-03-02T17:47:23Z</time>
      </trkpt>
      <trkpt lat="43.39785" lon="-5.982917">
        <ele>210.0</ele>
        <time>2012-03-02T17:47:27Z</time>
      </trkpt>
      <trkpt lat="43.397794" lon="-5.983367">
        <ele>210.0</ele>
        <time>2012-03-02T17:47:31Z</time>
      </trkpt>
      <trkpt lat="43.397629" lon="-5.983781">
        <ele>210.0</ele>
        <time>2012-03-02T17:47:35Z</time>
      </trkpt>
      <trkpt lat="43.397436" lon="-5.984255">
        <ele>209.0</ele>
        <time>2012-03-02T17:47:39Z</time>
      </trkpt>
      <trkpt lat="43.397213" lon="-5.984745">
        <ele>207.0</ele>
        <time>2012-03-02T17:47:43Z</time>
      </trkpt>
      <trkpt lat="43.396991" lon="-5.985254">
        <ele>206.0</ele>
        <time>2012-03-02T17:47:47Z</time>
      </trkpt>
      <trkpt lat="43.396727" lon="-5.985831">
        <ele>203.0</ele>
        <time>2012-03-02T17:47:51Z</time>
      </trkpt>
      <trkpt lat="43.396386" lon="-5.986399">
        <ele>199.0</ele>
        <time>2012-03-02T17:47:55Z</time>
      </trkpt>
      <trkpt lat="43.395989" lon="-5.986927">
        <ele>194.0</ele>
        <time>2012-03-02T17:47:59Z</time>
      </trkpt>
      <trkpt lat="43.395662" lon="-5.98741">
        <ele>189.0</ele>
        <time>2012-03-02T17:48:03Z</time>
      </trkpt>
      <trkpt lat="43.395311" lon="-5.987583">
        <ele>187.0</ele>
        <time>2012-03-02T17:48:07Z</time>
      </trkpt>
      <trkpt lat="43.395092" lon="-5.987871">
        <ele>186.0</ele>
        <time>2012-03-02T17:48:11Z</time>
      </trkpt>
      <trkpt lat="43.39494" lon="-5.988194">
        <ele>186.0</ele>
        <time>2012-03-02T17:48:15Z</time>
      </trkpt>
      <trkpt lat="43.394778" lon="-5.988497">
        <ele>186.0</ele>
        <time>2012-03-02T17:48:19Z</time>
      </trkpt>
      <trkpt lat="43.394649" lon="-5.988836">
        <ele>186.0</ele>
        <time>2012-03-02T17:48:23Z</time>
      </trkpt>
      <trkpt lat="43.394611" lon="-5.989218">
        <ele>186.0</ele>
        <time>2012-03-02T17:48:27Z</time>
      </trkpt>
      <trkpt lat="43.394594" lon="-5.989606">
        <ele>187.0</ele>
        <time>2012-03-02T17:48:31Z</time>
      </trkpt>
      <trkpt lat="43.394539" lon="-5.989987">
        <ele>187.0</ele>
        <time>2012-03-02T17:48:35Z</time>
      </trkpt>
      <trkpt lat="43.39446" lon="-5.990332">
        <ele>187.0</ele>
        <time>2012-03-02T17:48:39Z</time>
      </trkpt>
      <trkpt lat="43.394442" lon="-5.990419">
        <ele>187.0</ele>
        <time>2012-03-02T17:48:40Z</time>
      </trkpt>
      <trkpt lat="43.394447" lon="-5.99091">
        <ele>180.0</ele>
        <time>2012-03-02T17:48:46Z</time>
      </trkpt>
      <trkpt lat="43.394503" lon="-5.99137">
        <ele>180.0</ele>
        <time>2012-03-02T17:48:51Z</time>
      </trkpt>
      <trkpt lat="43.394532" lon="-5.991776">
        <ele>180.0</ele>
        <time>2012-03-02T17:48:55Z</time>
      </trkpt>
      <trkpt lat="43.394529" lon="-5.992222">
        <ele>181.0</ele>
        <time>2012-03-02T17:48:59Z</time>
      </trkpt>
      <trkpt lat="43.394477" lon="-5.992716">
        <ele>182.0</ele>
        <time>2012-03-02T17:49:03Z</time>
      </trkpt>
      <trkpt lat="43.394385" lon="-5.993272">
        <ele>182.0</ele>
        <time>2012-03-02T17:49:07Z</time>
      </trkpt>
      <trkpt lat="43.394227" lon="-5.993842">
        <ele>182.0</ele>
        <time>2012-03-02T17:49:11Z</time>
      </trkpt>
      <trkpt lat="43.394007" lon="-5.994367">
        <ele>181.0</ele>
        <time>2012-03-02T17:49:15Z</time>
      </trkpt>
      <trkpt lat="43.3938" lon="-5.994849">
        <ele>181.0</ele>
        <time>2012-03-02T17:49:19Z</time>
      </trkpt>
      <trkpt lat="43.393622" lon="-5.995342">
        <ele>181.0</ele>
        <time>2012-03-02T17:49:23Z</time>
      </trkpt>
      <trkpt lat="43.393419" lon="-5.995955">
        <ele>179.0</ele>
        <time>2012-03-02T17:49:27Z</time>
      </trkpt>
      <trkpt lat="43.393187" lon="-5.996671">
        <ele>177.0</ele>
        <time>2012-03-02T17:49:31Z</time>
      </trkpt>
      <trkpt lat="43.393001" lon="-5.997245">
        <ele>176.0</ele>
        <time>2012-03-02T17:49:34Z</time>
      </trkpt>
      <trkpt lat="43.392744" lon="-5.998154">
        <ele>173.0</ele>
        <time>2012-03-02T17:49:39Z</time>
      </trkpt>
      <trkpt lat="43.392564" lon="-5.998674">
        <ele>173.0</ele>
        <time>2012-03-02T17:49:43Z</time>
      </trkpt>
      <trkpt lat="43.392519" lon="-5.998804">
        <ele>173.0</ele>
        <time>2012-03-02T17:49:44Z</time>
      </trkpt>
      <trkpt lat="43.392519" lon="-5.998804">
        <time>2012-03-02T17:49:55Z</time>
      </trkpt>
    </trkseg>
    <trkseg>
      <trkpt lat="43.392519" lon="-5.998804">
        <time>2012-03-02T17:49:56Z</time>
      </trkpt>
      <trkpt lat="43.393179" lon="-6.000984">
        <ele>169.0</ele>
        <time>2012-03-02T17:50:00Z</time>
      </trkpt>
      <trkpt lat="43.392995" lon="-6.001656">
        <ele>165.0</ele>
        <time>2012-03-02T17:50:04Z</time>
      </trkpt>
      <trkpt lat="43.392668" lon="-6.002185">
        <ele>159.0</ele>
        <time>2012-03-02T17:50:08Z</time>
      </trkpt>
      <trkpt lat="43.392192" lon="-6.002498">
        <ele>151.0</ele>
        <time>2012-03-02T17:50:12Z</time>
      </trkpt>
      <trkpt lat="43.391943" lon="-6.002632">
        <ele>144.0</ele>
        <time>2012-03-02T17:50:15Z</time>
      </trkpt>
      <trkpt lat="43.391676" lon="-6.002794">
        <ele>136.0</ele>
        <time>2012-03-02T17:50:20Z</time>
      </trkpt>
      <trkpt lat="43.39141" lon="-6.003022">
        <ele>133.0</ele>
        <time>2012-03-02T17:50:24Z</time>
      </trkpt>
      <trkpt lat="43.391169" lon="-6.00344">
        <ele>132.0</ele>
        <time>2012-03-02T17:50:28Z</time>
      </trkpt>
      <trkpt lat="43.390847" lon="-6.003722">
        <ele>131.0</ele>
        <time>2012-03-02T17:50:32Z</time>
      </trkpt>
      <trkpt lat="43.390546" lon="-6.003896">
        <ele>130.0</ele>
        <time>2012-03-02T17:50:36Z</time>
      </trkpt>
      <trkpt lat="43.390219" lon="-6.003998">
        <ele>129.0</ele>
        <time>2012-03-02T17:50:40Z</time>
      </trkpt>
      <trkpt lat="43.389947" lon="-6.004224">
        <ele>128.0</ele>
        <time>2012-03-02T17:50:44Z</time>
      </trkpt>
      <trkpt lat="43.389797" lon="-6.004383">
        <ele>126.0</ele>
        <time>2012-03-02T17:50:47Z</time>
      </trkpt>
      <trkpt lat="43.389622" lon="-6.00457">
        <ele>124.0</ele>
        <time>2012-03-02T17:50:51Z</time>
      </trkpt>
      <trkpt lat="43.389383" lon="-6.004839">
        <ele>123.0</ele>
        <time>2012-03-02T17:50:56Z</time>
      </trkpt>
      <trkpt lat="43.389305" lon="-6.005191">
        <ele>122.0</ele>
        <time>2012-03-02T17:51:00Z</time>
      </trkpt>
      <trkpt lat="43.389431" lon="-6.005573">
        <ele>122.0</ele>
        <time>2012-03-02T17:51:04Z</time>
      </trkpt>
      <trkpt lat="43.389578" lon="-6.005948">
        <ele>122.0</ele>
        <time>2012-03-02T17:51:08Z</time>
      </trkpt>
      <trkpt lat="43.389697" lon="-6.006328">
        <ele>121.0</ele>
        <time>2012-03-02T17:51:12Z</time>
      </trkpt>
      <trkpt lat="43.389571" lon="-6.006605">
        <ele>121.0</ele>
        <time>2012-03-02T17:51:16Z</time>
      </trkpt>
      <trkpt lat="43.389386" lon="-6.006488">
        <ele>120.0</ele>
        <time>2012-03-02T17:51:20Z</time>
      </trkpt>
      <trkpt lat="43.389284" lon="-6.006265">
        <ele>120.0</ele>
        <time>2012-03-02T17:51:24Z</time>
      </trkpt>
      <trkpt lat="43.389224" lon="-6.006041">
        <ele>120.0</ele>
        <time>2012-03-02T17:51:28Z</time>
      </trkpt>
      <trkpt lat="43.389165" lon="-6.005811">
        <ele>121.0</ele>
        <time>2012-03-02T17:51:32Z</time>
      </trkpt>
      <trkpt lat="43.38908" lon="-6.005581">
        <ele>121.0</ele>
        <time>2012-03-02T17:51:36Z</time>
      </trkpt>
      <trkpt lat="43.388958" lon="-6.005431">
        <ele>122.0</ele>
        <time>2012-03-02T17:51:40Z</time>
      </trkpt>
      <trkpt lat="43.388847" lon="-6.005542">
        <ele>123.0</ele>
        <time>2012-03-02T17:51:44Z</time>
      </trkpt>
      <trkpt lat="43.388828" lon="-6.005738">
        <ele>123.0</ele>
        <time>2012-03-02T17:51:48Z</time>
      </trkpt>
      <trkpt lat="43.388838" lon="-6.00594">
        <ele>124.0</ele>
        <time>2012-03-02T17:51:52Z</time>
      </trkpt>
      <trkpt lat="43.388865" lon="-6.006135">
        <ele>124.0</ele>
        <time>2012-03-02T17:51:56Z</time>
      </trkpt>
      <trkpt lat="43.388886" lon="-6.006317">
        <ele>124.0</ele>
        <time>2012-03-02T17:52:00Z</time>
      </trkpt>
      <trkpt lat="43.38889" lon="-6.006507">
        <ele>125.0</ele>
        <time>2012-03-02T17:52:04Z</time>
      </trkpt>
      <trkpt lat="43.388893" lon="-6.006699">
        <ele>125.0</ele>
        <time>2012-03-02T17:52:08Z</time>
      </trkpt>
      <trkpt lat="43.388896" lon="-6.006894">
        <ele>125.0</ele>
        <time>2012-03-02T17:52:12Z</time>
      </trkpt>
      <trkpt lat="43.388891" lon="-6.00709">
        <ele>125.0</ele>
        <time>2012-03-02T17:52:16Z</time>
      </trkpt>
      <trkpt lat="43.388877" lon="-6.007281">
        <ele>125.0</ele>
        <time>2012-03-02T17:52:20Z</time>
      </trkpt>
      <trkpt lat="43.388888" lon="-6.007465">
        <ele>126.0</ele>
        <time>2012-03-02T17:52:24Z</time>
      </trkpt>
      <trkpt lat="43.388917" lon="-6.007655">
        <ele>126.0</ele>
        <time>2012-03-02T17:52:28Z</time>
      </trkpt>
      <trkpt lat="43.388933" lon="-6.00785">
        <ele>126.0</ele>
        <time>2012-03-02T17:52:32Z</time>
      </trkpt>
      <trkpt lat="43.388965" lon="-6.008039">
        <ele>127.0</ele>
        <time>2012-03-02T17:52:36Z</time>
      </trkpt>
      <trkpt lat="43.388991" lon="-6.008226">
        <ele>127.0</ele>
        <time>2012-03-02T17:52:40Z</time>
      </trkpt>
      <trkpt lat="43.389062" lon="-6.008451">
        <ele>131.0</ele>
        <time>2012-03-02T17:52:44Z</time>
      </trkpt>
      <trkpt lat="43.389192" lon="-6.008726">
        <ele>132.0</ele>
        <time>2012-03-02T17:52:48Z</time>
      </trkpt>
      <trkpt lat="43.389348" lon="-6.009034">
        <ele>133.0</ele>
        <time>2012-03-02T17:52:52Z</time>
      </trkpt>
      <trkpt lat="43.389504" lon="-6.009367">
        <ele>133.0</ele>
        <time>2012-03-02T17:52:56Z</time>
      </trkpt>
      <trkpt lat="43.389671" lon="-6.009719">
        <ele>133.0</ele>
        <time>2012-03-02T17:53:00Z</time>
      </trkpt>
      <trkpt lat="43.38985" lon="-6.010088">
        <ele>133.0</ele>
        <time>2012-03-02T17:53:04Z</time>
      </trkpt>
      <trkpt lat="43.390028" lon="-6.010472">
        <ele>134.0</ele>
        <time>2012-03-02T17:53:08Z</time>
      </trkpt>
      <trkpt lat="43.39021" lon="-6.010855">
        <ele>134.0</ele>
        <time>2012-03-02T17:53:12Z</time>
      </trkpt>
      <trkpt lat="43.390394" lon="-6.011239">
        <ele>134.0</ele>
        <time>2012-03-02T17:53:16Z</time>
      </trkpt>
      <trkpt lat="43.390583" lon="-6.011628">
        <ele>135.0</ele>
        <time>2012-03-02T17:53:20Z</time>
      </trkpt>
      <trkpt lat="43.390796" lon="-6.012003">
        <ele>135.0</ele>
        <time>2012-03-02T17:53:24Z</time>
      </trkpt>
      <trkpt lat="43.391101" lon="-6.012238">
        <ele>135.0</ele>
        <time>2012-03-02T17:53:28Z</time>
      </trkpt>
      <trkpt lat="43.391415" lon="-6.012421">
        <ele>136.0</ele>
        <time>2012-03-02T17:53:32Z</time>
      </trkpt>
      <trkpt lat="43.391691" lon="-6.012693">
        <ele>136.0</ele>
        <time>2012-03-02T17:53:36Z</time>
      </trkpt>
      <trkpt lat="43.391948" lon="-6.013025">
        <ele>136.0</ele>
        <time>2012-03-02T17:53:40Z</time>
      </trkpt>
      <trkpt lat="43.392175" lon="-6.013405">
        <ele>136.0</ele>
        <time>2012-03-02T17:53:44Z</time>
      </trkpt>
      <trkpt lat="43.392345" lon="-6.01385">
        <ele>136.0</ele>
        <time>2012-03-02T17:53:48Z</time>
      </trkpt>
      <trkpt lat="43.392444" lon="-6.014347">
        <ele>135.0</ele>
        <time>2012-03-02T17:53:52Z</time>
      </trkpt>
      <trkpt lat="43.39247" lon="-6.014874">
        <ele>135.0</ele>
        <time>2012-03-02T17:53:56Z</time>
      </trkpt>
      <trkpt lat="43.392494" lon="-6.01541">
        <ele>135.0</ele>
        <time>2012-03-02T17:54:00Z</time>
      </trkpt>
      <trkpt lat="43.392521" lon="-6.015949">
        <ele>134.0</ele>
        <time>2012-03-02T17:54:04Z</time>
      </trkpt>
      <trkpt lat="43.392552" lon="-6.016494">
        <ele>134.0</ele>
        <time>2012-03-02T17:54:08Z</time>
      </trkpt>
      <trkpt lat="43.392584" lon="-6.017035">
        <ele>133.0</ele>
        <time>2012-03-02T17:54:12Z</time>
      </trkpt>
      <trkpt lat="43.392613" lon="-6.017576">
        <ele>133.0</ele>
        <time>2012-03-02T17:54:16Z</time>
      </trkpt>
      <trkpt lat="43.392637" lon="-6.018121">
        <ele>132.0</ele>
        <time>2012-03-02T17:54:20Z</time>
      </trkpt>
      <trkpt lat="43.392773" lon="-6.018617">
        <ele>133.0</ele>
        <time>2012-03-02T17:54:24Z</time>
      </trkpt>
      <trkpt lat="43.393004" lon="-6.018848">
        <ele>133.0</ele>
        <time>2012-03-02T17:54:27Z</time>
      </trkpt>
      <trkpt lat="43.393388" lon="-6.019165">
        <ele>133.0</ele>
        <time>2012-03-02T17:54:32Z</time>
      </trkpt>
      <trkpt lat="43.393546" lon="-6.019565">
        <ele>131.0</ele>
        <time>2012-03-02T17:54:36Z</time>
      </trkpt>
      <trkpt lat="43.393633" lon="-6.019997">
        <ele>130.0</ele>
        <time>2012-03-02T17:54:40Z</time>
      </trkpt>
      <trkpt lat="43.393645" lon="-6.020445">
        <ele>129.0</ele>
        <time>2012-03-02T17:54:44Z</time>
      </trkpt>
      <trkpt lat="43.393504" lon="-6.020836">
        <ele>128.0</ele>
        <time>2012-03-02T17:54:48Z</time>
      </trkpt>
      <trkpt lat="43.393276" lon="-6.021117">
        <ele>128.0</ele>
        <time>2012-03-02T17:54:52Z</time>
      </trkpt>
      <trkpt lat="43.393026" lon="-6.021372">
        <ele>127.0</ele>
        <time>2012-03-02T17:54:56Z</time>
      </trkpt>
      <trkpt lat="43.392866" lon="-6.021723">
        <ele>127.0</ele>
        <time>2012-03-02T17:55:00Z</time>
      </trkpt>
      <trkpt lat="43.392901" lon="-6.022141">
        <ele>128.0</ele>
        <time>2012-03-02T17:55:04Z</time>
      </trkpt>
      <trkpt lat="43.393037" lon="-6.02251">
        <ele>128.0</ele>
        <time>2012-03-02T17:55:08Z</time>
      </trkpt>
      <trkpt lat="43.393144" lon="-6.022782">
        <ele>129.0</ele>
        <time>2012-03-02T17:55:11Z</time>
      </trkpt>
      <trkpt lat="43.393263" lon="-6.023265">
        <ele>128.0</ele>
        <time>2012-03-02T17:55:16Z</time>
      </trkpt>
      <trkpt lat="43.393315" lon="-6.023684">
        <ele>128.0</ele>
        <time>2012-03-02T17:55:20Z</time>
      </trkpt>
      <trkpt lat="43.393375" lon="-6.024101">
        <ele>128.0</ele>
        <time>2012-03-02T17:55:24Z</time>
      </trkpt>
      <trkpt lat="43.393501" lon="-6.024477">
        <ele>128.0</ele>
        <time>2012-03-02T17:55:28Z</time>
      </trkpt>
      <trkpt lat="43.393698" lon="-6.024787">
        <ele>129.0</ele>
        <time>2012-03-02T17:55:32Z</time>
      </trkpt>
      <trkpt lat="43.393933" lon="-6.025046">
        <ele>129.0</ele>
        <time>2012-03-02T17:55:36Z</time>
      </trkpt>
      <trkpt lat="43.394115" lon="-6.025229">
        <ele>129.0</ele>
        <time>2012-03-02T17:55:39Z</time>
      </trkpt>
      <trkpt lat="43.39445" lon="-6.025494">
        <ele>130.0</ele>
        <time>2012-03-02T17:55:44Z</time>
      </trkpt>
      <trkpt lat="43.394757" lon="-6.025639">
        <ele>130.0</ele>
        <time>2012-03-02T17:55:48Z</time>
      </trkpt>
      <trkpt lat="43.395077" lon="-6.025694">
        <ele>129.0</ele>
        <time>2012-03-02T17:55:52Z</time>
      </trkpt>
      <trkpt lat="43.395392" lon="-6.025674">
        <ele>128.0</ele>
        <time>2012-03-02T17:55:56Z</time>
      </trkpt>
      <trkpt lat="43.395693" lon="-6.025687">
        <ele>126.0</ele>
        <time>2012-03-02T17:56:00Z</time>
      </trkpt>
      <trkpt lat="43.395956" lon="-6.025893">
        <ele>126.0</ele>
        <time>2012-03-02T17:56:04Z</time>
      </trkpt>
      <trkpt lat="43.3961" lon="-6.026266">
        <ele>125.0</ele>
        <time>2012-03-02T17:56:08Z</time>
      </trkpt>
      <trkpt lat="43.396193" lon="-6.026689">
        <ele>125.0</ele>
        <time>2012-03-02T17:56:12Z</time>
      </trkpt>
      <trkpt lat="43.39627" lon="-6.027137">
        <ele>125.0</ele>
        <time>2012-03-02T17:56:16Z</time>
      </trkpt>
      <trkpt lat="43.396348" lon="-6.0276">
        <ele>124.0</ele>
        <time>2012-03-02T17:56:20Z</time>
      </trkpt>
      <trkpt lat="43.39644" lon="-6.028065">
        <ele>124.0</ele>
        <time>2012-03-02T17:56:24Z</time>
      </trkpt>
      <trkpt lat="43.396538" lon="-6.028522">
        <ele>124.0</ele>
        <time>2012-03-02T17:56:28Z</time>
      </trkpt>
      <trkpt lat="43.396682" lon="-6.028947">
        <ele>123.0</ele>
        <time>2012-03-02T17:56:32Z</time>
      </trkpt>
      <trkpt lat="43.396874" lon="-6.029332">
        <ele>124.0</ele>
        <time>2012-03-02T17:56:36Z</time>
      </trkpt>
      <trkpt lat="43.397101" lon="-6.029678">
        <ele>124.0</ele>
        <time>2012-03-02T17:56:40Z</time>
      </trkpt>
      <trkpt lat="43.397385" lon="-6.02995">
        <ele>124.0</ele>
        <time>2012-03-02T17:56:44Z</time>
      </trkpt>
      <trkpt lat="43.397687" lon="-6.030158">
        <ele>124.0</ele>
        <time>2012-03-02T17:56:48Z</time>
      </trkpt>
      <trkpt lat="43.397981" lon="-6.030365">
        <ele>123.0</ele>
        <time>2012-03-02T17:56:52Z</time>
      </trkpt>
      <trkpt lat="43.398274" lon="-6.030577">
        <ele>123.0</ele>
        <time>2012-03-02T17:56:56Z</time>
      </trkpt>
      <trkpt lat="43.398566" lon="-6.030822">
        <ele>123.0</ele>
        <time>2012-03-02T17:57:00Z</time>
      </trkpt>
      <trkpt lat="43.398844" lon="-6.031143">
        <ele>123.0</ele>
        <time>2012-03-02T17:57:04Z</time>
      </trkpt>
      <trkpt lat="43.399104" lon="-6.031532">
        <ele>123.0</ele>
        <time>2012-03-02T17:57:08Z</time>
      </trkpt>
      <trkpt lat="43.399368" lon="-6.031921">
        <ele>123.0</ele>
        <time>2012-03-02T17:57:12Z</time>
      </trkpt>
      <trkpt lat="43.399633" lon="-6.032303">
        <ele>122.0</ele>
        <time>2012-03-02T17:57:16Z</time>
      </trkpt>
      <trkpt lat="43.399897" lon="-6.032684">
        <ele>122.0</ele>
        <time>2012-03-02T17:57:20Z</time>
      </trkpt>
      <trkpt lat="43.400166" lon="-6.033062">
        <ele>122.0</ele>
        <time>2012-03-02T17:57:24Z</time>
      </trkpt>
      <trkpt lat="43.400446" lon="-6.033432">
        <ele>121.0</ele>
        <time>2012-03-02T17:57:28Z</time>
      </trkpt>
      <trkpt lat="43.400728" lon="-6.033801">
        <ele>121.0</ele>
        <time>2012-03-02T17:57:32Z</time>
      </trkpt>
      <trkpt lat="43.401003" lon="-6.034178">
        <ele>121.0</ele>
        <time>2012-03-02T17:57:36Z</time>
      </trkpt>
      <trkpt lat="43.401239" lon="-6.034606">
        <ele>120.0</ele>
        <time>2012-03-02T17:57:40Z</time>
      </trkpt>
      <trkpt lat="43.40141" lon="-6.035099">
        <ele>120.0</ele>
        <time>2012-03-02T17:57:44Z</time>
      </trkpt>
      <trkpt lat="43.401526" lon="-6.035633">
        <ele>119.0</ele>
        <time>2012-03-02T17:57:48Z</time>
      </trkpt>
      <trkpt lat="43.40165" lon="-6.03616">
        <ele>119.0</ele>
        <time>2012-03-02T17:57:52Z</time>
      </trkpt>
      <trkpt lat="43.401799" lon="-6.036669">
        <ele>119.0</ele>
        <time>2012-03-02T17:57:56Z</time>
      </trkpt>
      <trkpt lat="43.401983" lon="-6.037143">
        <ele>119.0</ele>
        <time>2012-03-02T17:58:00Z</time>
      </trkpt>
      <trkpt lat="43.402167" lon="-6.037609">
        <ele>118.0</ele>
        <time>2012-03-02T17:58:04Z</time>
      </trkpt>
      <trkpt lat="43.402347" lon="-6.03807">
        <ele>118.0</ele>
        <time>2012-03-02T17:58:08Z</time>
      </trkpt>
      <trkpt lat="43.402524" lon="-6.038537">
        <ele>118.0</ele>
        <time>2012-03-02T17:58:12Z</time>
      </trkpt>
      <trkpt lat="43.402696" lon="-6.039013">
        <ele>118.0</ele>
        <time>2012-03-02T17:58:16Z</time>
      </trkpt>
      <trkpt lat="43.402857" lon="-6.039505">
        <ele>118.0</ele>
        <time>2012-03-02T17:58:20Z</time>
      </trkpt>
      <trkpt lat="43.402991" lon="-6.040018">
        <ele>118.0</ele>
        <time>2012-03-02T17:58:24Z</time>
      </trkpt>
      <trkpt lat="43.403068" lon="-6.040562">
        <ele>117.0</ele>
        <time>2012-03-02T17:58:28Z</time>
      </trkpt>
      <trkpt lat="43.403092" lon="-6.041127">
        <ele>116.0</ele>
        <time>2012-03-02T17:58:32Z</time>
      </trkpt>
      <trkpt lat="43.403145" lon="-6.041708">
        <ele>116.0</ele>
        <time>2012-03-02T17:58:36Z</time>
      </trkpt>
      <trkpt lat="43.403208" lon="-6.042302">
        <ele>117.0</ele>
        <time>2012-03-02T17:58:40Z</time>
      </trkpt>
      <trkpt lat="43.403208" lon="-6.042911">
        <ele>117.0</ele>
        <time>2012-03-02T17:58:44Z</time>
      </trkpt>
      <trkpt lat="43.403142" lon="-6.043504">
        <ele>116.0</ele>
        <time>2012-03-02T17:58:48Z</time>
      </trkpt>
      <trkpt lat="43.403028" lon="-6.044061">
        <ele>115.0</ele>
        <time>2012-03-02T17:58:52Z</time>
      </trkpt>
      <trkpt lat="43.402796" lon="-6.04446">
        <ele>114.0</ele>
        <time>2012-03-02T17:58:56Z</time>
      </trkpt>
      <trkpt lat="43.402573" lon="-6.044762">
        <ele>114.0</ele>
        <time>2012-03-02T17:59:00Z</time>
      </trkpt>
      <trkpt lat="43.402429" lon="-6.045097">
        <ele>114.0</ele>
        <time>2012-03-02T17:59:04Z</time>
      </trkpt>
      <trkpt lat="43.402317" lon="-6.045421">
        <ele>114.0</ele>
        <time>2012-03-02T17:59:08Z</time>
      </trkpt>
      <trkpt lat="43.402175" lon="-6.045717">
        <ele>115.0</ele>
        <time>2012-03-02T17:59:12Z</time>
      </trkpt>
      <trkpt lat="43.401964" lon="-6.045968">
        <ele>114.0</ele>
        <time>2012-03-02T17:59:16Z</time>
      </trkpt>
      <trkpt lat="43.401699" lon="-6.046199">
        <ele>112.0</ele>
        <time>2012-03-02T17:59:20Z</time>
      </trkpt>
      <trkpt lat="43.401437" lon="-6.046437">
        <ele>111.0</ele>
        <time>2012-03-02T17:59:24Z</time>
      </trkpt>
      <trkpt lat="43.401182" lon="-6.046673">
        <ele>110.0</ele>
        <time>2012-03-02T17:59:28Z</time>
      </trkpt>
      <trkpt lat="43.400933" lon="-6.046914">
        <ele>110.0</ele>
        <time>2012-03-02T17:59:32Z</time>
      </trkpt>
      <trkpt lat="43.400688" lon="-6.047152">
        <ele>110.0</ele>
        <time>2012-03-02T17:59:36Z</time>
      </trkpt>
      <trkpt lat="43.400452" lon="-6.047389">
        <ele>110.0</ele>
        <time>2012-03-02T17:59:40Z</time>
      </trkpt>
      <trkpt lat="43.400212" lon="-6.047638">
        <ele>110.0</ele>
        <time>2012-03-02T17:59:44Z</time>
      </trkpt>
      <trkpt lat="43.399966" lon="-6.047897">
        <ele>109.0</ele>
        <time>2012-03-02T17:59:48Z</time>
      </trkpt>
      <trkpt lat="43.399727" lon="-6.048184">
        <ele>108.0</ele>
        <time>2012-03-02T17:59:52Z</time>
      </trkpt>
      <trkpt lat="43.399512" lon="-6.048498">
        <ele>106.0</ele>
        <time>2012-03-02T17:59:56Z</time>
      </trkpt>
      <trkpt lat="43.399317" lon="-6.048827">
        <ele>105.0</ele>
        <time>2012-03-02T18:00:00Z</time>
      </trkpt>
      <trkpt lat="43.399122" lon="-6.049173">
        <ele>105.0</ele>
        <time>2012-03-02T18:00:04Z</time>
      </trkpt>
      <trkpt lat="43.398942" lon="-6.04954">
        <ele>104.0</ele>
        <time>2012-03-02T18:00:08Z</time>
      </trkpt>
      <trkpt lat="43.398766" lon="-6.049904">
        <ele>104.0</ele>
        <time>2012-03-02T18:00:12Z</time>
      </trkpt>
      <trkpt lat="43.398584" lon="-6.050258">
        <ele>104.0</ele>
        <time>2012-03-02T18:00:16Z</time>
      </trkpt>
      <trkpt lat="43.39838" lon="-6.050571">
        <ele>104.0</ele>
        <time>2012-03-02T18:00:20Z</time>
      </trkpt>
      <trkpt lat="43.398286" lon="-6.050966">
        <ele>104.0</ele>
        <time>2012-03-02T18:00:24Z</time>
      </trkpt>
      <trkpt lat="43.398073" lon="-6.051237">
        <ele>105.0</ele>
        <time>2012-03-02T18:00:28Z</time>
      </trkpt>
      <trkpt lat="43.39791" lon="-6.051583">
        <ele>105.0</ele>
        <time>2012-03-02T18:00:32Z</time>
      </trkpt>
      <trkpt lat="43.397777" lon="-6.05198">
        <ele>106.0</ele>
        <time>2012-03-02T18:00:36Z</time>
      </trkpt>
      <trkpt lat="43.397632" lon="-6.052362">
        <ele>106.0</ele>
        <time>2012-03-02T18:00:40Z</time>
      </trkpt>
      <trkpt lat="43.39746" lon="-6.052724">
        <ele>106.0</ele>
        <time>2012-03-02T18:00:44Z</time>
      </trkpt>
      <trkpt lat="43.397277" lon="-6.053086">
        <ele>106.0</ele>
        <time>2012-03-02T18:00:48Z</time>
      </trkpt>
      <trkpt lat="43.397089" lon="-6.053458">
        <ele>105.0</ele>
        <time>2012-03-02T18:00:52Z</time>
      </trkpt>
      <trkpt lat="43.396899" lon="-6.053831">
        <ele>105.0</ele>
        <time>2012-03-02T18:00:56Z</time>
      </trkpt>
      <trkpt lat="43.396712" lon="-6.054207">
        <ele>105.0</ele>
        <time>2012-03-02T18:01:00Z</time>
      </trkpt>
      <trkpt lat="43.396527" lon="-6.054593">
        <ele>106.0</ele>
        <time>2012-03-02T18:01:04Z</time>
      </trkpt>
      <trkpt lat="43.396426" lon="-6.05503">
        <ele>106.0</ele>
        <time>2012-03-02T18:01:08Z</time>
      </trkpt>
      <trkpt lat="43.396294" lon="-6.055457">
        <ele>107.0</ele>
        <time>2012-03-02T18:01:12Z</time>
      </trkpt>
      <trkpt lat="43.396034" lon="-6.055761">
        <ele>107.0</ele>
        <time>2012-03-02T18:01:16Z</time>
      </trkpt>
      <trkpt lat="43.395798" lon="-6.056065">
        <ele>106.0</ele>
        <time>2012-03-02T18:01:20Z</time>
      </trkpt>
      <trkpt lat="43.395607" lon="-6.056438">
        <ele>106.0</ele>
        <time>2012-03-02T18:01:24Z</time>
      </trkpt>
      <trkpt lat="43.395424" lon="-6.056809">
        <ele>106.0</ele>
        <time>2012-03-02T18:01:28Z</time>
      </trkpt>
      <trkpt lat="43.395229" lon="-6.057179">
        <ele>105.0</ele>
        <time>2012-03-02T18:01:32Z</time>
      </trkpt>
      <trkpt lat="43.395031" lon="-6.057544">
        <ele>105.0</ele>
        <time>2012-03-02T18:01:36Z</time>
      </trkpt>
      <trkpt lat="43.39485" lon="-6.057919">
        <ele>105.0</ele>
        <time>2012-03-02T18:01:40Z</time>
      </trkpt>
      <trkpt lat="43.394736" lon="-6.058323">
        <ele>105.0</ele>
        <time>2012-03-02T18:01:44Z</time>
      </trkpt>
      <trkpt lat="43.394501" lon="-6.058572">
        <ele>106.0</ele>
        <time>2012-03-02T18:01:48Z</time>
      </trkpt>
      <trkpt lat="43.394318" lon="-6.058912">
        <ele>106.0</ele>
        <time>2012-03-02T18:01:52Z</time>
      </trkpt>
      <trkpt lat="43.394138" lon="-6.059284">
        <ele>106.0</ele>
        <time>2012-03-02T18:01:56Z</time>
      </trkpt>
      <trkpt lat="43.39395" lon="-6.059663">
        <ele>106.0</ele>
        <time>2012-03-02T18:02:00Z</time>
      </trkpt>
      <trkpt lat="43.393767" lon="-6.060042">
        <ele>106.0</ele>
        <time>2012-03-02T18:02:04Z</time>
      </trkpt>
      <trkpt lat="43.39359" lon="-6.06043">
        <ele>106.0</ele>
        <time>2012-03-02T18:02:08Z</time>
      </trkpt>
      <trkpt lat="43.393453" lon="-6.060849">
        <ele>105.0</ele>
        <time>2012-03-02T18:02:12Z</time>
      </trkpt>
      <trkpt lat="43.393371" lon="-6.061296">
        <ele>105.0</ele>
        <time>2012-03-02T18:02:16Z</time>
      </trkpt>
      <trkpt lat="43.393332" lon="-6.061753">
        <ele>105.0</ele>
        <time>2012-03-02T18:02:20Z</time>
      </trkpt>
      <trkpt lat="43.393325" lon="-6.062217">
        <ele>105.0</ele>
        <time>2012-03-02T18:02:24Z</time>
      </trkpt>
      <trkpt lat="43.393323" lon="-6.06268">
        <ele>105.0</ele>
        <time>2012-03-02T18:02:28Z</time>
      </trkpt>
      <trkpt lat="43.393319" lon="-6.063148">
        <ele>105.0</ele>
        <time>2012-03-02T18:02:32Z</time>
      </trkpt>
      <trkpt lat="43.393322" lon="-6.063614">
        <ele>106.0</ele>
        <time>2012-03-02T18:02:36Z</time>
      </trkpt>
      <trkpt lat="43.393324" lon="-6.064047">
        <ele>107.0</ele>
        <time>2012-03-02T18:02:40Z</time>
      </trkpt>
      <trkpt lat="43.393326" lon="-6.064328">
        <ele>107.0</ele>
        <time>2012-03-02T18:02:43Z</time>
      </trkpt>
      <trkpt lat="43.393344" lon="-6.064582">
        <ele>107.0</ele>
        <time>2012-03-02T18:02:47Z</time>
      </trkpt>
      <trkpt lat="43.393361" lon="-6.064792">
        <ele>107.0</ele>
        <time>2012-03-02T18:02:52Z</time>
      </trkpt>
      <trkpt lat="43.393277" lon="-6.064989">
        <ele>107.0</ele>
        <time>2012-03-02T18:02:56Z</time>
      </trkpt>
      <trkpt lat="43.393202" lon="-6.065228">
        <ele>107.0</ele>
        <time>2012-03-02T18:03:00Z</time>
      </trkpt>
      <trkpt lat="43.39299" lon="-6.065331">
        <ele>107.0</ele>
        <time>2012-03-02T18:03:04Z</time>
      </trkpt>
      <trkpt lat="43.392875" lon="-6.065309">
        <ele>107.0</ele>
        <time>2012-03-02T18:03:06Z</time>
      </trkpt>
      <trkpt lat="43.392875" lon="-6.065309">
        <time>2012-03-02T18:03:12Z</time>
      </trkpt>
    </trkseg>
  </trk>
</gpx>